<?xml version="1.0" encoding="UTF-8" standalone="no" ?>
<gpx xmlns="http://www.topografix.com/GPX/1/1" xmlns:xsi="http://www.w3.org/2001/XMLSchema-instance" xsi:schemaLocation="http://www.topografix.com/GPX/1/1 http://www.topografix.com/GPX/1/1/gpx.xsd" version="1.1" creator="VisuGPX - https://www.visugpx.com">
  <metadata>
    <name>sortie du 14/01/2017</name>
    <desc><![CDATA[sortie sympa avec des bonnes côtes]]></desc>
  </metadata>
  <trk>
    <name><![CDATA[Tracé actuel: 14 JAN 2017 08:29]]></name>
    <trkseg>
      <trkpt lat="43.40084" lon="-0.58">
        <ele>151.54</ele>
        <time>2017-01-14T07:29:06Z</time>
      </trkpt>
      <trkpt lat="43.40088" lon="-0.58001">
        <ele>111.17</ele>
        <time>2017-01-14T07:29:29Z</time>
      </trkpt>
      <trkpt lat="43.40085" lon="-0.58007">
        <ele>114.53</ele>
        <time>2017-01-14T07:29:44Z</time>
      </trkpt>
      <trkpt lat="43.40078" lon="-0.58015">
        <ele>113.57</ele>
        <time>2017-01-14T07:29:49Z</time>
      </trkpt>
      <trkpt lat="43.40077" lon="-0.58017">
        <ele>113.57</ele>
        <time>2017-01-14T07:29:50Z</time>
      </trkpt>
      <trkpt lat="43.40076" lon="-0.5802">
        <ele>113.57</ele>
        <time>2017-01-14T07:29:51Z</time>
      </trkpt>
      <trkpt lat="43.40076" lon="-0.58024">
        <ele>113.57</ele>
        <time>2017-01-14T07:29:52Z</time>
      </trkpt>
      <trkpt lat="43.40076" lon="-0.58028">
        <ele>113.57</ele>
        <time>2017-01-14T07:29:53Z</time>
      </trkpt>
      <trkpt lat="43.40077" lon="-0.58032">
        <ele>113.57</ele>
        <time>2017-01-14T07:29:54Z</time>
      </trkpt>
      <trkpt lat="43.40082" lon="-0.58057">
        <ele>113.57</ele>
        <time>2017-01-14T07:29:59Z</time>
      </trkpt>
      <trkpt lat="43.40083" lon="-0.58062">
        <ele>113.09</ele>
        <time>2017-01-14T07:30:00Z</time>
      </trkpt>
      <trkpt lat="43.40084" lon="-0.58068">
        <ele>112.61</ele>
        <time>2017-01-14T07:30:01Z</time>
      </trkpt>
      <trkpt lat="43.40083" lon="-0.58094">
        <ele>111.65</ele>
        <time>2017-01-14T07:30:08Z</time>
      </trkpt>
      <trkpt lat="43.40081" lon="-0.58096">
        <ele>111.65</ele>
        <time>2017-01-14T07:30:09Z</time>
      </trkpt>
      <trkpt lat="43.40078" lon="-0.58098">
        <ele>111.65</ele>
        <time>2017-01-14T07:30:10Z</time>
      </trkpt>
      <trkpt lat="43.40075" lon="-0.58099">
        <ele>111.65</ele>
        <time>2017-01-14T07:30:11Z</time>
      </trkpt>
      <trkpt lat="43.40072" lon="-0.58101">
        <ele>111.65</ele>
        <time>2017-01-14T07:30:12Z</time>
      </trkpt>
      <trkpt lat="43.4007" lon="-0.58103">
        <ele>111.65</ele>
        <time>2017-01-14T07:30:13Z</time>
      </trkpt>
      <trkpt lat="43.40067" lon="-0.58104">
        <ele>111.65</ele>
        <time>2017-01-14T07:30:14Z</time>
      </trkpt>
      <trkpt lat="43.40063" lon="-0.58106">
        <ele>111.65</ele>
        <time>2017-01-14T07:30:15Z</time>
      </trkpt>
      <trkpt lat="43.40014" lon="-0.58135">
        <ele>110.69</ele>
        <time>2017-01-14T07:30:28Z</time>
      </trkpt>
      <trkpt lat="43.39993" lon="-0.5814">
        <ele>111.17</ele>
        <time>2017-01-14T07:30:38Z</time>
      </trkpt>
      <trkpt lat="43.39977" lon="-0.58098">
        <ele>109.73</ele>
        <time>2017-01-14T07:30:47Z</time>
      </trkpt>
      <trkpt lat="43.39934" lon="-0.57979">
        <ele>108.77</ele>
        <time>2017-01-14T07:31:07Z</time>
      </trkpt>
      <trkpt lat="43.3991" lon="-0.57916">
        <ele>107.81</ele>
        <time>2017-01-14T07:31:17Z</time>
      </trkpt>
      <trkpt lat="43.39869" lon="-0.57849">
        <ele>106.36</ele>
        <time>2017-01-14T07:31:30Z</time>
      </trkpt>
      <trkpt lat="43.39865" lon="-0.57846">
        <ele>106.36</ele>
        <time>2017-01-14T07:31:31Z</time>
      </trkpt>
      <trkpt lat="43.39861" lon="-0.57843">
        <ele>105.88</ele>
        <time>2017-01-14T07:31:32Z</time>
      </trkpt>
      <trkpt lat="43.39839" lon="-0.57826">
        <ele>105.88</ele>
        <time>2017-01-14T07:31:37Z</time>
      </trkpt>
      <trkpt lat="43.39836" lon="-0.5782">
        <ele>105.88</ele>
        <time>2017-01-14T07:31:38Z</time>
      </trkpt>
      <trkpt lat="43.39834" lon="-0.57815">
        <ele>105.88</ele>
        <time>2017-01-14T07:31:39Z</time>
      </trkpt>
      <trkpt lat="43.39833" lon="-0.57808">
        <ele>105.88</ele>
        <time>2017-01-14T07:31:40Z</time>
      </trkpt>
      <trkpt lat="43.39833" lon="-0.578">
        <ele>105.88</ele>
        <time>2017-01-14T07:31:41Z</time>
      </trkpt>
      <trkpt lat="43.39834" lon="-0.57793">
        <ele>105.88</ele>
        <time>2017-01-14T07:31:42Z</time>
      </trkpt>
      <trkpt lat="43.39836" lon="-0.57786">
        <ele>106.36</ele>
        <time>2017-01-14T07:31:43Z</time>
      </trkpt>
      <trkpt lat="43.39838" lon="-0.57779">
        <ele>106.36</ele>
        <time>2017-01-14T07:31:44Z</time>
      </trkpt>
      <trkpt lat="43.39849" lon="-0.57754">
        <ele>106.84</ele>
        <time>2017-01-14T07:31:48Z</time>
      </trkpt>
      <trkpt lat="43.39852" lon="-0.57749">
        <ele>106.84</ele>
        <time>2017-01-14T07:31:49Z</time>
      </trkpt>
      <trkpt lat="43.39856" lon="-0.57744">
        <ele>106.84</ele>
        <time>2017-01-14T07:31:50Z</time>
      </trkpt>
      <trkpt lat="43.39863" lon="-0.57739">
        <ele>106.36</ele>
        <time>2017-01-14T07:31:52Z</time>
      </trkpt>
      <trkpt lat="43.39871" lon="-0.57736">
        <ele>106.84</ele>
        <time>2017-01-14T07:31:53Z</time>
      </trkpt>
      <trkpt lat="43.39958" lon="-0.57701">
        <ele>106.84</ele>
        <time>2017-01-14T07:32:10Z</time>
      </trkpt>
      <trkpt lat="43.40009" lon="-0.57683">
        <ele>107.32</ele>
        <time>2017-01-14T07:32:20Z</time>
      </trkpt>
      <trkpt lat="43.40014" lon="-0.57683">
        <ele>107.32</ele>
        <time>2017-01-14T07:32:21Z</time>
      </trkpt>
      <trkpt lat="43.40019" lon="-0.57683">
        <ele>107.32</ele>
        <time>2017-01-14T07:32:22Z</time>
      </trkpt>
      <trkpt lat="43.40023" lon="-0.57683">
        <ele>107.81</ele>
        <time>2017-01-14T07:32:23Z</time>
      </trkpt>
      <trkpt lat="43.40028" lon="-0.57684">
        <ele>107.81</ele>
        <time>2017-01-14T07:32:24Z</time>
      </trkpt>
      <trkpt lat="43.40067" lon="-0.57689">
        <ele>108.77</ele>
        <time>2017-01-14T07:32:33Z</time>
      </trkpt>
      <trkpt lat="43.40072" lon="-0.57689">
        <ele>109.25</ele>
        <time>2017-01-14T07:32:34Z</time>
      </trkpt>
      <trkpt lat="43.40124" lon="-0.57675">
        <ele>111.65</ele>
        <time>2017-01-14T07:32:49Z</time>
      </trkpt>
      <trkpt lat="43.4016" lon="-0.57682">
        <ele>115.5</ele>
        <time>2017-01-14T07:33:02Z</time>
      </trkpt>
      <trkpt lat="43.40203" lon="-0.57711">
        <ele>121.26</ele>
        <time>2017-01-14T07:33:21Z</time>
      </trkpt>
      <trkpt lat="43.40233" lon="-0.57709">
        <ele>126.55</ele>
        <time>2017-01-14T07:33:34Z</time>
      </trkpt>
      <trkpt lat="43.40274" lon="-0.57697">
        <ele>129.92</ele>
        <time>2017-01-14T07:33:49Z</time>
      </trkpt>
      <trkpt lat="43.40317" lon="-0.57682">
        <ele>129.92</ele>
        <time>2017-01-14T07:34:06Z</time>
      </trkpt>
      <trkpt lat="43.40358" lon="-0.57666">
        <ele>129.43</ele>
        <time>2017-01-14T07:34:19Z</time>
      </trkpt>
      <trkpt lat="43.4043" lon="-0.57642">
        <ele>128.95</ele>
        <time>2017-01-14T07:34:37Z</time>
      </trkpt>
      <trkpt lat="43.40506" lon="-0.57646">
        <ele>128.95</ele>
        <time>2017-01-14T07:34:51Z</time>
      </trkpt>
      <trkpt lat="43.40593" lon="-0.57641">
        <ele>129.43</ele>
        <time>2017-01-14T07:35:07Z</time>
      </trkpt>
      <trkpt lat="43.40694" lon="-0.5762">
        <ele>127.99</ele>
        <time>2017-01-14T07:35:26Z</time>
      </trkpt>
      <trkpt lat="43.40778" lon="-0.57602">
        <ele>127.51</ele>
        <time>2017-01-14T07:35:42Z</time>
      </trkpt>
      <trkpt lat="43.40882" lon="-0.57572">
        <ele>125.59</ele>
        <time>2017-01-14T07:36:01Z</time>
      </trkpt>
      <trkpt lat="43.4096" lon="-0.57543">
        <ele>126.55</ele>
        <time>2017-01-14T07:36:14Z</time>
      </trkpt>
      <trkpt lat="43.41038" lon="-0.57523">
        <ele>127.99</ele>
        <time>2017-01-14T07:36:30Z</time>
      </trkpt>
      <trkpt lat="43.41133" lon="-0.57499">
        <ele>127.51</ele>
        <time>2017-01-14T07:36:48Z</time>
      </trkpt>
      <trkpt lat="43.41216" lon="-0.57478">
        <ele>128.47</ele>
        <time>2017-01-14T07:37:04Z</time>
      </trkpt>
      <trkpt lat="43.41227" lon="-0.57477">
        <ele>128.95</ele>
        <time>2017-01-14T07:37:06Z</time>
      </trkpt>
      <trkpt lat="43.41242" lon="-0.57478">
        <ele>129.92</ele>
        <time>2017-01-14T07:37:09Z</time>
      </trkpt>
      <trkpt lat="43.41246" lon="-0.57477">
        <ele>129.92</ele>
        <time>2017-01-14T07:37:10Z</time>
      </trkpt>
      <trkpt lat="43.41263" lon="-0.57478">
        <ele>130.4</ele>
        <time>2017-01-14T07:37:14Z</time>
      </trkpt>
      <trkpt lat="43.41267" lon="-0.5748">
        <ele>130.4</ele>
        <time>2017-01-14T07:37:15Z</time>
      </trkpt>
      <trkpt lat="43.4127" lon="-0.57485">
        <ele>130.4</ele>
        <time>2017-01-14T07:37:16Z</time>
      </trkpt>
      <trkpt lat="43.41271" lon="-0.57491">
        <ele>130.4</ele>
        <time>2017-01-14T07:37:17Z</time>
      </trkpt>
      <trkpt lat="43.41272" lon="-0.57495">
        <ele>130.4</ele>
        <time>2017-01-14T07:37:18Z</time>
      </trkpt>
      <trkpt lat="43.41272" lon="-0.57501">
        <ele>130.4</ele>
        <time>2017-01-14T07:37:19Z</time>
      </trkpt>
      <trkpt lat="43.41272" lon="-0.57508">
        <ele>129.92</ele>
        <time>2017-01-14T07:37:20Z</time>
      </trkpt>
      <trkpt lat="43.41272" lon="-0.57515">
        <ele>129.92</ele>
        <time>2017-01-14T07:37:21Z</time>
      </trkpt>
      <trkpt lat="43.41272" lon="-0.57521">
        <ele>129.92</ele>
        <time>2017-01-14T07:37:22Z</time>
      </trkpt>
      <trkpt lat="43.41273" lon="-0.57528">
        <ele>129.92</ele>
        <time>2017-01-14T07:37:23Z</time>
      </trkpt>
      <trkpt lat="43.41274" lon="-0.57535">
        <ele>129.92</ele>
        <time>2017-01-14T07:37:24Z</time>
      </trkpt>
      <trkpt lat="43.41275" lon="-0.57542">
        <ele>130.4</ele>
        <time>2017-01-14T07:37:25Z</time>
      </trkpt>
      <trkpt lat="43.41275" lon="-0.57548">
        <ele>130.4</ele>
        <time>2017-01-14T07:37:26Z</time>
      </trkpt>
      <trkpt lat="43.41275" lon="-0.57555">
        <ele>130.4</ele>
        <time>2017-01-14T07:37:27Z</time>
      </trkpt>
      <trkpt lat="43.41276" lon="-0.57561">
        <ele>130.4</ele>
        <time>2017-01-14T07:37:28Z</time>
      </trkpt>
      <trkpt lat="43.41285" lon="-0.57631">
        <ele>130.4</ele>
        <time>2017-01-14T07:37:38Z</time>
      </trkpt>
      <trkpt lat="43.41287" lon="-0.57637">
        <ele>130.4</ele>
        <time>2017-01-14T07:37:39Z</time>
      </trkpt>
      <trkpt lat="43.41294" lon="-0.57649">
        <ele>130.4</ele>
        <time>2017-01-14T07:37:41Z</time>
      </trkpt>
      <trkpt lat="43.41353" lon="-0.57746">
        <ele>128.95</ele>
        <time>2017-01-14T07:37:58Z</time>
      </trkpt>
      <trkpt lat="43.41377" lon="-0.57777">
        <ele>128.47</ele>
        <time>2017-01-14T07:38:04Z</time>
      </trkpt>
      <trkpt lat="43.41381" lon="-0.57781">
        <ele>128.47</ele>
        <time>2017-01-14T07:38:05Z</time>
      </trkpt>
      <trkpt lat="43.41401" lon="-0.57806">
        <ele>127.99</ele>
        <time>2017-01-14T07:38:10Z</time>
      </trkpt>
      <trkpt lat="43.41408" lon="-0.57818">
        <ele>127.99</ele>
        <time>2017-01-14T07:38:12Z</time>
      </trkpt>
      <trkpt lat="43.4141" lon="-0.57824">
        <ele>127.99</ele>
        <time>2017-01-14T07:38:13Z</time>
      </trkpt>
      <trkpt lat="43.41413" lon="-0.57832">
        <ele>127.99</ele>
        <time>2017-01-14T07:38:14Z</time>
      </trkpt>
      <trkpt lat="43.41415" lon="-0.57839">
        <ele>127.99</ele>
        <time>2017-01-14T07:38:15Z</time>
      </trkpt>
      <trkpt lat="43.41417" lon="-0.57846">
        <ele>127.99</ele>
        <time>2017-01-14T07:38:16Z</time>
      </trkpt>
      <trkpt lat="43.41429" lon="-0.57888">
        <ele>127.99</ele>
        <time>2017-01-14T07:38:22Z</time>
      </trkpt>
      <trkpt lat="43.41432" lon="-0.57895">
        <ele>127.99</ele>
        <time>2017-01-14T07:38:23Z</time>
      </trkpt>
      <trkpt lat="43.41469" lon="-0.58014">
        <ele>128.95</ele>
        <time>2017-01-14T07:38:40Z</time>
      </trkpt>
      <trkpt lat="43.41473" lon="-0.58027">
        <ele>128.95</ele>
        <time>2017-01-14T07:38:42Z</time>
      </trkpt>
      <trkpt lat="43.41476" lon="-0.58033">
        <ele>128.95</ele>
        <time>2017-01-14T07:38:43Z</time>
      </trkpt>
      <trkpt lat="43.41478" lon="-0.5804">
        <ele>128.95</ele>
        <time>2017-01-14T07:38:44Z</time>
      </trkpt>
      <trkpt lat="43.41492" lon="-0.58078">
        <ele>128.47</ele>
        <time>2017-01-14T07:38:50Z</time>
      </trkpt>
      <trkpt lat="43.41502" lon="-0.58104">
        <ele>128.47</ele>
        <time>2017-01-14T07:38:54Z</time>
      </trkpt>
      <trkpt lat="43.41506" lon="-0.58118">
        <ele>128.47</ele>
        <time>2017-01-14T07:38:56Z</time>
      </trkpt>
      <trkpt lat="43.41508" lon="-0.58124">
        <ele>128.47</ele>
        <time>2017-01-14T07:38:57Z</time>
      </trkpt>
      <trkpt lat="43.41542" lon="-0.5822">
        <ele>128.47</ele>
        <time>2017-01-14T07:39:12Z</time>
      </trkpt>
      <trkpt lat="43.41543" lon="-0.58226">
        <ele>128.47</ele>
        <time>2017-01-14T07:39:13Z</time>
      </trkpt>
      <trkpt lat="43.41543" lon="-0.58233">
        <ele>128.95</ele>
        <time>2017-01-14T07:39:14Z</time>
      </trkpt>
      <trkpt lat="43.41547" lon="-0.5826">
        <ele>128.47</ele>
        <time>2017-01-14T07:39:18Z</time>
      </trkpt>
      <trkpt lat="43.41585" lon="-0.58379">
        <ele>127.99</ele>
        <time>2017-01-14T07:39:36Z</time>
      </trkpt>
      <trkpt lat="43.41621" lon="-0.58482">
        <ele>127.03</ele>
        <time>2017-01-14T07:39:52Z</time>
      </trkpt>
      <trkpt lat="43.41634" lon="-0.5852">
        <ele>127.03</ele>
        <time>2017-01-14T07:39:58Z</time>
      </trkpt>
      <trkpt lat="43.41636" lon="-0.58527">
        <ele>127.03</ele>
        <time>2017-01-14T07:39:59Z</time>
      </trkpt>
      <trkpt lat="43.41638" lon="-0.58533">
        <ele>127.03</ele>
        <time>2017-01-14T07:40:00Z</time>
      </trkpt>
      <trkpt lat="43.4164" lon="-0.58539">
        <ele>127.03</ele>
        <time>2017-01-14T07:40:01Z</time>
      </trkpt>
      <trkpt lat="43.41643" lon="-0.58546">
        <ele>127.51</ele>
        <time>2017-01-14T07:40:02Z</time>
      </trkpt>
      <trkpt lat="43.41646" lon="-0.58552">
        <ele>127.51</ele>
        <time>2017-01-14T07:40:03Z</time>
      </trkpt>
      <trkpt lat="43.41648" lon="-0.58558">
        <ele>127.51</ele>
        <time>2017-01-14T07:40:04Z</time>
      </trkpt>
      <trkpt lat="43.41651" lon="-0.58564">
        <ele>127.51</ele>
        <time>2017-01-14T07:40:05Z</time>
      </trkpt>
      <trkpt lat="43.41652" lon="-0.58571">
        <ele>127.51</ele>
        <time>2017-01-14T07:40:06Z</time>
      </trkpt>
      <trkpt lat="43.41654" lon="-0.58578">
        <ele>127.51</ele>
        <time>2017-01-14T07:40:07Z</time>
      </trkpt>
      <trkpt lat="43.41668" lon="-0.5869">
        <ele>127.51</ele>
        <time>2017-01-14T07:40:23Z</time>
      </trkpt>
      <trkpt lat="43.41673" lon="-0.58726">
        <ele>127.03</ele>
        <time>2017-01-14T07:40:28Z</time>
      </trkpt>
      <trkpt lat="43.41674" lon="-0.58732">
        <ele>127.51</ele>
        <time>2017-01-14T07:40:29Z</time>
      </trkpt>
      <trkpt lat="43.41676" lon="-0.58738">
        <ele>127.51</ele>
        <time>2017-01-14T07:40:30Z</time>
      </trkpt>
      <trkpt lat="43.4171" lon="-0.58807">
        <ele>126.55</ele>
        <time>2017-01-14T07:40:41Z</time>
      </trkpt>
      <trkpt lat="43.41713" lon="-0.58814">
        <ele>126.55</ele>
        <time>2017-01-14T07:40:42Z</time>
      </trkpt>
      <trkpt lat="43.41715" lon="-0.58821">
        <ele>126.55</ele>
        <time>2017-01-14T07:40:43Z</time>
      </trkpt>
      <trkpt lat="43.41716" lon="-0.58829">
        <ele>126.55</ele>
        <time>2017-01-14T07:40:44Z</time>
      </trkpt>
      <trkpt lat="43.41716" lon="-0.58836">
        <ele>126.55</ele>
        <time>2017-01-14T07:40:45Z</time>
      </trkpt>
      <trkpt lat="43.41716" lon="-0.58844">
        <ele>126.55</ele>
        <time>2017-01-14T07:40:46Z</time>
      </trkpt>
      <trkpt lat="43.41715" lon="-0.58852">
        <ele>126.55</ele>
        <time>2017-01-14T07:40:47Z</time>
      </trkpt>
      <trkpt lat="43.41712" lon="-0.58875">
        <ele>127.03</ele>
        <time>2017-01-14T07:40:50Z</time>
      </trkpt>
      <trkpt lat="43.41712" lon="-0.58882">
        <ele>127.03</ele>
        <time>2017-01-14T07:40:51Z</time>
      </trkpt>
      <trkpt lat="43.41712" lon="-0.58889">
        <ele>127.03</ele>
        <time>2017-01-14T07:40:52Z</time>
      </trkpt>
      <trkpt lat="43.41713" lon="-0.58897">
        <ele>127.03</ele>
        <time>2017-01-14T07:40:53Z</time>
      </trkpt>
      <trkpt lat="43.41715" lon="-0.58905">
        <ele>127.03</ele>
        <time>2017-01-14T07:40:54Z</time>
      </trkpt>
      <trkpt lat="43.41716" lon="-0.58912">
        <ele>127.03</ele>
        <time>2017-01-14T07:40:55Z</time>
      </trkpt>
      <trkpt lat="43.41721" lon="-0.5894">
        <ele>127.03</ele>
        <time>2017-01-14T07:40:59Z</time>
      </trkpt>
      <trkpt lat="43.41724" lon="-0.58948">
        <ele>127.03</ele>
        <time>2017-01-14T07:41:00Z</time>
      </trkpt>
      <trkpt lat="43.4177" lon="-0.59078">
        <ele>125.59</ele>
        <time>2017-01-14T07:41:19Z</time>
      </trkpt>
      <trkpt lat="43.41817" lon="-0.59208">
        <ele>125.59</ele>
        <time>2017-01-14T07:41:38Z</time>
      </trkpt>
      <trkpt lat="43.41848" lon="-0.59325">
        <ele>126.07</ele>
        <time>2017-01-14T07:41:56Z</time>
      </trkpt>
      <trkpt lat="43.41849" lon="-0.5933">
        <ele>125.59</ele>
        <time>2017-01-14T07:41:57Z</time>
      </trkpt>
      <trkpt lat="43.41852" lon="-0.59334">
        <ele>125.59</ele>
        <time>2017-01-14T07:41:58Z</time>
      </trkpt>
      <trkpt lat="43.41855" lon="-0.59338">
        <ele>125.59</ele>
        <time>2017-01-14T07:41:59Z</time>
      </trkpt>
      <trkpt lat="43.41859" lon="-0.5934">
        <ele>125.59</ele>
        <time>2017-01-14T07:42:00Z</time>
      </trkpt>
      <trkpt lat="43.41863" lon="-0.59341">
        <ele>125.59</ele>
        <time>2017-01-14T07:42:01Z</time>
      </trkpt>
      <trkpt lat="43.41867" lon="-0.59341">
        <ele>125.59</ele>
        <time>2017-01-14T07:42:02Z</time>
      </trkpt>
      <trkpt lat="43.41872" lon="-0.59339">
        <ele>126.07</ele>
        <time>2017-01-14T07:42:03Z</time>
      </trkpt>
      <trkpt lat="43.41876" lon="-0.59336">
        <ele>126.07</ele>
        <time>2017-01-14T07:42:04Z</time>
      </trkpt>
      <trkpt lat="43.4195" lon="-0.59293">
        <ele>127.03</ele>
        <time>2017-01-14T07:42:20Z</time>
      </trkpt>
      <trkpt lat="43.42003" lon="-0.59264">
        <ele>129.92</ele>
        <time>2017-01-14T07:42:33Z</time>
      </trkpt>
      <trkpt lat="43.4206" lon="-0.59236">
        <ele>133.76</ele>
        <time>2017-01-14T07:42:49Z</time>
      </trkpt>
      <trkpt lat="43.42129" lon="-0.59196">
        <ele>133.28</ele>
        <time>2017-01-14T07:43:05Z</time>
      </trkpt>
      <trkpt lat="43.42199" lon="-0.5913">
        <ele>127.51</ele>
        <time>2017-01-14T07:43:18Z</time>
      </trkpt>
      <trkpt lat="43.42258" lon="-0.59059">
        <ele>126.55</ele>
        <time>2017-01-14T07:43:32Z</time>
      </trkpt>
      <trkpt lat="43.42309" lon="-0.58985">
        <ele>128.47</ele>
        <time>2017-01-14T07:43:47Z</time>
      </trkpt>
      <trkpt lat="43.42342" lon="-0.58908">
        <ele>129.43</ele>
        <time>2017-01-14T07:44:02Z</time>
      </trkpt>
      <trkpt lat="43.42347" lon="-0.58903">
        <ele>128.95</ele>
        <time>2017-01-14T07:44:04Z</time>
      </trkpt>
      <trkpt lat="43.4235" lon="-0.58902">
        <ele>128.47</ele>
        <time>2017-01-14T07:44:05Z</time>
      </trkpt>
      <trkpt lat="43.42354" lon="-0.58902">
        <ele>128.47</ele>
        <time>2017-01-14T07:44:06Z</time>
      </trkpt>
      <trkpt lat="43.42357" lon="-0.58902">
        <ele>128.47</ele>
        <time>2017-01-14T07:44:07Z</time>
      </trkpt>
      <trkpt lat="43.4236" lon="-0.58901">
        <ele>128.47</ele>
        <time>2017-01-14T07:44:08Z</time>
      </trkpt>
      <trkpt lat="43.42364" lon="-0.58899">
        <ele>128.47</ele>
        <time>2017-01-14T07:44:09Z</time>
      </trkpt>
      <trkpt lat="43.42367" lon="-0.58897">
        <ele>128.47</ele>
        <time>2017-01-14T07:44:10Z</time>
      </trkpt>
      <trkpt lat="43.42369" lon="-0.58893">
        <ele>128.95</ele>
        <time>2017-01-14T07:44:11Z</time>
      </trkpt>
      <trkpt lat="43.42371" lon="-0.58888">
        <ele>128.95</ele>
        <time>2017-01-14T07:44:12Z</time>
      </trkpt>
      <trkpt lat="43.42379" lon="-0.58873">
        <ele>128.95</ele>
        <time>2017-01-14T07:44:15Z</time>
      </trkpt>
      <trkpt lat="43.42397" lon="-0.58813">
        <ele>130.88</ele>
        <time>2017-01-14T07:44:27Z</time>
      </trkpt>
      <trkpt lat="43.42397" lon="-0.58749">
        <ele>131.84</ele>
        <time>2017-01-14T07:44:39Z</time>
      </trkpt>
      <trkpt lat="43.4239" lon="-0.58728">
        <ele>131.36</ele>
        <time>2017-01-14T07:44:43Z</time>
      </trkpt>
      <trkpt lat="43.42387" lon="-0.58723">
        <ele>131.36</ele>
        <time>2017-01-14T07:44:44Z</time>
      </trkpt>
      <trkpt lat="43.42378" lon="-0.5871">
        <ele>131.36</ele>
        <time>2017-01-14T07:44:47Z</time>
      </trkpt>
      <trkpt lat="43.42353" lon="-0.58672">
        <ele>131.84</ele>
        <time>2017-01-14T07:44:55Z</time>
      </trkpt>
      <trkpt lat="43.4235" lon="-0.58668">
        <ele>131.84</ele>
        <time>2017-01-14T07:44:56Z</time>
      </trkpt>
      <trkpt lat="43.42347" lon="-0.58663">
        <ele>132.32</ele>
        <time>2017-01-14T07:44:57Z</time>
      </trkpt>
      <trkpt lat="43.42344" lon="-0.58658">
        <ele>132.32</ele>
        <time>2017-01-14T07:44:58Z</time>
      </trkpt>
      <trkpt lat="43.42342" lon="-0.58653">
        <ele>132.32</ele>
        <time>2017-01-14T07:44:59Z</time>
      </trkpt>
      <trkpt lat="43.42339" lon="-0.58649">
        <ele>131.84</ele>
        <time>2017-01-14T07:45:00Z</time>
      </trkpt>
      <trkpt lat="43.42336" lon="-0.58644">
        <ele>131.84</ele>
        <time>2017-01-14T07:45:01Z</time>
      </trkpt>
      <trkpt lat="43.42314" lon="-0.58615">
        <ele>131.36</ele>
        <time>2017-01-14T07:45:08Z</time>
      </trkpt>
      <trkpt lat="43.42311" lon="-0.58611">
        <ele>131.36</ele>
        <time>2017-01-14T07:45:09Z</time>
      </trkpt>
      <trkpt lat="43.42308" lon="-0.58607">
        <ele>131.36</ele>
        <time>2017-01-14T07:45:10Z</time>
      </trkpt>
      <trkpt lat="43.42305" lon="-0.58603">
        <ele>131.36</ele>
        <time>2017-01-14T07:45:11Z</time>
      </trkpt>
      <trkpt lat="43.42304" lon="-0.58598">
        <ele>131.36</ele>
        <time>2017-01-14T07:45:12Z</time>
      </trkpt>
      <trkpt lat="43.42304" lon="-0.58593">
        <ele>131.36</ele>
        <time>2017-01-14T07:45:13Z</time>
      </trkpt>
      <trkpt lat="43.42306" lon="-0.58589">
        <ele>131.36</ele>
        <time>2017-01-14T07:45:14Z</time>
      </trkpt>
      <trkpt lat="43.42308" lon="-0.58585">
        <ele>130.88</ele>
        <time>2017-01-14T07:45:15Z</time>
      </trkpt>
      <trkpt lat="43.42312" lon="-0.58582">
        <ele>131.36</ele>
        <time>2017-01-14T07:45:16Z</time>
      </trkpt>
      <trkpt lat="43.42316" lon="-0.5858">
        <ele>131.36</ele>
        <time>2017-01-14T07:45:17Z</time>
      </trkpt>
      <trkpt lat="43.42319" lon="-0.58578">
        <ele>131.36</ele>
        <time>2017-01-14T07:45:18Z</time>
      </trkpt>
      <trkpt lat="43.42365" lon="-0.58559">
        <ele>133.28</ele>
        <time>2017-01-14T07:45:30Z</time>
      </trkpt>
      <trkpt lat="43.42369" lon="-0.58558">
        <ele>133.28</ele>
        <time>2017-01-14T07:45:31Z</time>
      </trkpt>
      <trkpt lat="43.42407" lon="-0.58554">
        <ele>133.28</ele>
        <time>2017-01-14T07:45:40Z</time>
      </trkpt>
      <trkpt lat="43.42411" lon="-0.58553">
        <ele>133.28</ele>
        <time>2017-01-14T07:45:41Z</time>
      </trkpt>
      <trkpt lat="43.42436" lon="-0.58549">
        <ele>133.76</ele>
        <time>2017-01-14T07:45:47Z</time>
      </trkpt>
      <trkpt lat="43.42449" lon="-0.58545">
        <ele>133.76</ele>
        <time>2017-01-14T07:45:50Z</time>
      </trkpt>
      <trkpt lat="43.42509" lon="-0.58513">
        <ele>135.68</ele>
        <time>2017-01-14T07:46:06Z</time>
      </trkpt>
      <trkpt lat="43.42569" lon="-0.58477">
        <ele>136.16</ele>
        <time>2017-01-14T07:46:23Z</time>
      </trkpt>
      <trkpt lat="43.42619" lon="-0.58456">
        <ele>137.13</ele>
        <time>2017-01-14T07:46:37Z</time>
      </trkpt>
      <trkpt lat="43.42654" lon="-0.58442">
        <ele>138.09</ele>
        <time>2017-01-14T07:46:48Z</time>
      </trkpt>
      <trkpt lat="43.42693" lon="-0.58435">
        <ele>139.05</ele>
        <time>2017-01-14T07:47:01Z</time>
      </trkpt>
      <trkpt lat="43.42719" lon="-0.58448">
        <ele>139.53</ele>
        <time>2017-01-14T07:47:09Z</time>
      </trkpt>
      <trkpt lat="43.42722" lon="-0.58447">
        <ele>139.53</ele>
        <time>2017-01-14T07:47:10Z</time>
      </trkpt>
      <trkpt lat="43.42724" lon="-0.58445">
        <ele>139.53</ele>
        <time>2017-01-14T07:47:11Z</time>
      </trkpt>
      <trkpt lat="43.42726" lon="-0.58442">
        <ele>140.01</ele>
        <time>2017-01-14T07:47:12Z</time>
      </trkpt>
      <trkpt lat="43.42728" lon="-0.58439">
        <ele>140.01</ele>
        <time>2017-01-14T07:47:13Z</time>
      </trkpt>
      <trkpt lat="43.42728" lon="-0.58435">
        <ele>140.49</ele>
        <time>2017-01-14T07:47:14Z</time>
      </trkpt>
      <trkpt lat="43.42728" lon="-0.58432">
        <ele>140.49</ele>
        <time>2017-01-14T07:47:15Z</time>
      </trkpt>
      <trkpt lat="43.42717" lon="-0.58377">
        <ele>140.97</ele>
        <time>2017-01-14T07:47:27Z</time>
      </trkpt>
      <trkpt lat="43.427" lon="-0.58303">
        <ele>140.49</ele>
        <time>2017-01-14T07:47:42Z</time>
      </trkpt>
      <trkpt lat="43.42678" lon="-0.58218">
        <ele>139.53</ele>
        <time>2017-01-14T07:47:59Z</time>
      </trkpt>
      <trkpt lat="43.42686" lon="-0.58178">
        <ele>140.49</ele>
        <time>2017-01-14T07:48:08Z</time>
      </trkpt>
      <trkpt lat="43.42695" lon="-0.58152">
        <ele>140.97</ele>
        <time>2017-01-14T07:48:23Z</time>
      </trkpt>
      <trkpt lat="43.42694" lon="-0.58153">
        <ele>141.93</ele>
        <time>2017-01-14T07:48:59Z</time>
      </trkpt>
      <trkpt lat="43.42698" lon="-0.58147">
        <ele>141.45</ele>
        <time>2017-01-14T07:49:11Z</time>
      </trkpt>
      <trkpt lat="43.42699" lon="-0.58146">
        <ele>141.45</ele>
        <time>2017-01-14T07:49:12Z</time>
      </trkpt>
      <trkpt lat="43.42701" lon="-0.58146">
        <ele>141.93</ele>
        <time>2017-01-14T07:49:13Z</time>
      </trkpt>
      <trkpt lat="43.42703" lon="-0.58147">
        <ele>141.93</ele>
        <time>2017-01-14T07:49:14Z</time>
      </trkpt>
      <trkpt lat="43.42705" lon="-0.58149">
        <ele>141.93</ele>
        <time>2017-01-14T07:49:15Z</time>
      </trkpt>
      <trkpt lat="43.42707" lon="-0.58151">
        <ele>142.41</ele>
        <time>2017-01-14T07:49:16Z</time>
      </trkpt>
      <trkpt lat="43.42709" lon="-0.58154">
        <ele>142.41</ele>
        <time>2017-01-14T07:49:17Z</time>
      </trkpt>
      <trkpt lat="43.42747" lon="-0.58192">
        <ele>144.34</ele>
        <time>2017-01-14T07:49:32Z</time>
      </trkpt>
      <trkpt lat="43.42751" lon="-0.58195">
        <ele>143.85</ele>
        <time>2017-01-14T07:49:34Z</time>
      </trkpt>
      <trkpt lat="43.4275" lon="-0.58197">
        <ele>144.34</ele>
        <time>2017-01-14T07:49:35Z</time>
      </trkpt>
      <trkpt lat="43.42749" lon="-0.58198">
        <ele>143.85</ele>
        <time>2017-01-14T07:49:36Z</time>
      </trkpt>
      <trkpt lat="43.42745" lon="-0.58196">
        <ele>143.85</ele>
        <time>2017-01-14T07:49:37Z</time>
      </trkpt>
      <trkpt lat="43.42743" lon="-0.58195">
        <ele>143.37</ele>
        <time>2017-01-14T07:49:38Z</time>
      </trkpt>
      <trkpt lat="43.42739" lon="-0.58193">
        <ele>143.37</ele>
        <time>2017-01-14T07:49:39Z</time>
      </trkpt>
      <trkpt lat="43.42736" lon="-0.5819">
        <ele>142.89</ele>
        <time>2017-01-14T07:49:40Z</time>
      </trkpt>
      <trkpt lat="43.42732" lon="-0.58186">
        <ele>142.41</ele>
        <time>2017-01-14T07:49:41Z</time>
      </trkpt>
      <trkpt lat="43.42728" lon="-0.58182">
        <ele>141.93</ele>
        <time>2017-01-14T07:49:42Z</time>
      </trkpt>
      <trkpt lat="43.42711" lon="-0.58161">
        <ele>141.45</ele>
        <time>2017-01-14T07:49:47Z</time>
      </trkpt>
      <trkpt lat="43.42701" lon="-0.58149">
        <ele>140.97</ele>
        <time>2017-01-14T07:49:50Z</time>
      </trkpt>
      <trkpt lat="43.42699" lon="-0.58144">
        <ele>140.97</ele>
        <time>2017-01-14T07:49:51Z</time>
      </trkpt>
      <trkpt lat="43.42698" lon="-0.5814">
        <ele>140.97</ele>
        <time>2017-01-14T07:49:52Z</time>
      </trkpt>
      <trkpt lat="43.42698" lon="-0.58137">
        <ele>140.97</ele>
        <time>2017-01-14T07:49:53Z</time>
      </trkpt>
      <trkpt lat="43.427" lon="-0.58136">
        <ele>140.97</ele>
        <time>2017-01-14T07:50:03Z</time>
      </trkpt>
      <trkpt lat="43.42701" lon="-0.58138">
        <ele>140.97</ele>
        <time>2017-01-14T07:50:04Z</time>
      </trkpt>
      <trkpt lat="43.42701" lon="-0.58139">
        <ele>140.49</ele>
        <time>2017-01-14T07:50:05Z</time>
      </trkpt>
      <trkpt lat="43.42702" lon="-0.58142">
        <ele>140.49</ele>
        <time>2017-01-14T07:50:06Z</time>
      </trkpt>
      <trkpt lat="43.42703" lon="-0.58145">
        <ele>140.49</ele>
        <time>2017-01-14T07:50:07Z</time>
      </trkpt>
      <trkpt lat="43.42706" lon="-0.58148">
        <ele>140.49</ele>
        <time>2017-01-14T07:50:08Z</time>
      </trkpt>
      <trkpt lat="43.42708" lon="-0.58151">
        <ele>140.49</ele>
        <time>2017-01-14T07:50:09Z</time>
      </trkpt>
      <trkpt lat="43.4275" lon="-0.58193">
        <ele>142.41</ele>
        <time>2017-01-14T07:50:24Z</time>
      </trkpt>
      <trkpt lat="43.4279" lon="-0.5819">
        <ele>144.34</ele>
        <time>2017-01-14T07:50:39Z</time>
      </trkpt>
      <trkpt lat="43.42836" lon="-0.58186">
        <ele>149.14</ele>
        <time>2017-01-14T07:50:57Z</time>
      </trkpt>
      <trkpt lat="43.4288" lon="-0.58183">
        <ele>152.03</ele>
        <time>2017-01-14T07:51:14Z</time>
      </trkpt>
      <trkpt lat="43.4293" lon="-0.58189">
        <ele>154.91</ele>
        <time>2017-01-14T07:51:34Z</time>
      </trkpt>
      <trkpt lat="43.42974" lon="-0.58203">
        <ele>156.83</ele>
        <time>2017-01-14T07:51:52Z</time>
      </trkpt>
      <trkpt lat="43.43013" lon="-0.58214">
        <ele>159.24</ele>
        <time>2017-01-14T07:52:08Z</time>
      </trkpt>
      <trkpt lat="43.43051" lon="-0.58228">
        <ele>161.64</ele>
        <time>2017-01-14T07:52:24Z</time>
      </trkpt>
      <trkpt lat="43.43086" lon="-0.5824">
        <ele>163.56</ele>
        <time>2017-01-14T07:52:40Z</time>
      </trkpt>
      <trkpt lat="43.43089" lon="-0.58242">
        <ele>163.56</ele>
        <time>2017-01-14T07:52:44Z</time>
      </trkpt>
      <trkpt lat="43.4309" lon="-0.58245">
        <ele>163.56</ele>
        <time>2017-01-14T07:52:45Z</time>
      </trkpt>
      <trkpt lat="43.43091" lon="-0.58249">
        <ele>163.56</ele>
        <time>2017-01-14T07:52:46Z</time>
      </trkpt>
      <trkpt lat="43.43091" lon="-0.58252">
        <ele>163.56</ele>
        <time>2017-01-14T07:52:47Z</time>
      </trkpt>
      <trkpt lat="43.43091" lon="-0.58256">
        <ele>164.04</ele>
        <time>2017-01-14T07:52:48Z</time>
      </trkpt>
      <trkpt lat="43.43091" lon="-0.58259">
        <ele>164.04</ele>
        <time>2017-01-14T07:52:49Z</time>
      </trkpt>
      <trkpt lat="43.43091" lon="-0.58262">
        <ele>164.04</ele>
        <time>2017-01-14T07:52:50Z</time>
      </trkpt>
      <trkpt lat="43.43096" lon="-0.58305">
        <ele>166.45</ele>
        <time>2017-01-14T07:53:03Z</time>
      </trkpt>
      <trkpt lat="43.43104" lon="-0.58351">
        <ele>166.45</ele>
        <time>2017-01-14T07:53:16Z</time>
      </trkpt>
      <trkpt lat="43.4314" lon="-0.58394">
        <ele>166.93</ele>
        <time>2017-01-14T07:53:29Z</time>
      </trkpt>
      <trkpt lat="43.43149" lon="-0.58404">
        <ele>167.41</ele>
        <time>2017-01-14T07:53:32Z</time>
      </trkpt>
      <trkpt lat="43.43152" lon="-0.58408">
        <ele>166.93</ele>
        <time>2017-01-14T07:53:33Z</time>
      </trkpt>
      <trkpt lat="43.43157" lon="-0.58419">
        <ele>166.45</ele>
        <time>2017-01-14T07:53:35Z</time>
      </trkpt>
      <trkpt lat="43.43182" lon="-0.58521">
        <ele>160.68</ele>
        <time>2017-01-14T07:53:47Z</time>
      </trkpt>
      <trkpt lat="43.43228" lon="-0.58651">
        <ele>158.27</ele>
        <time>2017-01-14T07:54:00Z</time>
      </trkpt>
      <trkpt lat="43.43244" lon="-0.58732">
        <ele>157.31</ele>
        <time>2017-01-14T07:54:09Z</time>
      </trkpt>
      <trkpt lat="43.43244" lon="-0.58741">
        <ele>157.31</ele>
        <time>2017-01-14T07:54:10Z</time>
      </trkpt>
      <trkpt lat="43.43242" lon="-0.5875">
        <ele>157.31</ele>
        <time>2017-01-14T07:54:11Z</time>
      </trkpt>
      <trkpt lat="43.43236" lon="-0.58799">
        <ele>156.35</ele>
        <time>2017-01-14T07:54:17Z</time>
      </trkpt>
      <trkpt lat="43.43237" lon="-0.58807">
        <ele>156.35</ele>
        <time>2017-01-14T07:54:18Z</time>
      </trkpt>
      <trkpt lat="43.43237" lon="-0.58814">
        <ele>155.87</ele>
        <time>2017-01-14T07:54:19Z</time>
      </trkpt>
      <trkpt lat="43.43238" lon="-0.58821">
        <ele>155.87</ele>
        <time>2017-01-14T07:54:20Z</time>
      </trkpt>
      <trkpt lat="43.4324" lon="-0.58828">
        <ele>155.87</ele>
        <time>2017-01-14T07:54:21Z</time>
      </trkpt>
      <trkpt lat="43.43242" lon="-0.58835">
        <ele>155.87</ele>
        <time>2017-01-14T07:54:22Z</time>
      </trkpt>
      <trkpt lat="43.43245" lon="-0.58841">
        <ele>156.35</ele>
        <time>2017-01-14T07:54:23Z</time>
      </trkpt>
      <trkpt lat="43.43248" lon="-0.58847">
        <ele>156.35</ele>
        <time>2017-01-14T07:54:24Z</time>
      </trkpt>
      <trkpt lat="43.43251" lon="-0.58852">
        <ele>156.35</ele>
        <time>2017-01-14T07:54:25Z</time>
      </trkpt>
      <trkpt lat="43.43254" lon="-0.58857">
        <ele>156.83</ele>
        <time>2017-01-14T07:54:26Z</time>
      </trkpt>
      <trkpt lat="43.43258" lon="-0.58862">
        <ele>157.31</ele>
        <time>2017-01-14T07:54:27Z</time>
      </trkpt>
      <trkpt lat="43.4326" lon="-0.58866">
        <ele>157.79</ele>
        <time>2017-01-14T07:54:28Z</time>
      </trkpt>
      <trkpt lat="43.4329" lon="-0.58928">
        <ele>159.24</ele>
        <time>2017-01-14T07:54:42Z</time>
      </trkpt>
      <trkpt lat="43.43327" lon="-0.59">
        <ele>161.16</ele>
        <time>2017-01-14T07:54:58Z</time>
      </trkpt>
      <trkpt lat="43.4333" lon="-0.59004">
        <ele>161.16</ele>
        <time>2017-01-14T07:54:59Z</time>
      </trkpt>
      <trkpt lat="43.43356" lon="-0.59085">
        <ele>161.64</ele>
        <time>2017-01-14T07:55:16Z</time>
      </trkpt>
      <trkpt lat="43.43371" lon="-0.59148">
        <ele>161.16</ele>
        <time>2017-01-14T07:55:31Z</time>
      </trkpt>
      <trkpt lat="43.43383" lon="-0.59157">
        <ele>160.68</ele>
        <time>2017-01-14T07:55:35Z</time>
      </trkpt>
      <trkpt lat="43.43393" lon="-0.59162">
        <ele>160.2</ele>
        <time>2017-01-14T07:55:37Z</time>
      </trkpt>
      <trkpt lat="43.43398" lon="-0.59166">
        <ele>159.72</ele>
        <time>2017-01-14T07:55:38Z</time>
      </trkpt>
      <trkpt lat="43.43403" lon="-0.59172">
        <ele>159.24</ele>
        <time>2017-01-14T07:55:39Z</time>
      </trkpt>
      <trkpt lat="43.43407" lon="-0.59179">
        <ele>159.24</ele>
        <time>2017-01-14T07:55:40Z</time>
      </trkpt>
      <trkpt lat="43.43411" lon="-0.59186">
        <ele>159.24</ele>
        <time>2017-01-14T07:55:41Z</time>
      </trkpt>
      <trkpt lat="43.43414" lon="-0.59194">
        <ele>158.75</ele>
        <time>2017-01-14T07:55:42Z</time>
      </trkpt>
      <trkpt lat="43.43416" lon="-0.59202">
        <ele>158.75</ele>
        <time>2017-01-14T07:55:43Z</time>
      </trkpt>
      <trkpt lat="43.43452" lon="-0.59322">
        <ele>154.91</ele>
        <time>2017-01-14T07:55:57Z</time>
      </trkpt>
      <trkpt lat="43.4346" lon="-0.59377">
        <ele>152.51</ele>
        <time>2017-01-14T07:56:02Z</time>
      </trkpt>
      <trkpt lat="43.4346" lon="-0.59388">
        <ele>151.54</ele>
        <time>2017-01-14T07:56:03Z</time>
      </trkpt>
      <trkpt lat="43.43458" lon="-0.594">
        <ele>151.06</ele>
        <time>2017-01-14T07:56:04Z</time>
      </trkpt>
      <trkpt lat="43.43455" lon="-0.59411">
        <ele>150.1</ele>
        <time>2017-01-14T07:56:05Z</time>
      </trkpt>
      <trkpt lat="43.43451" lon="-0.59423">
        <ele>149.62</ele>
        <time>2017-01-14T07:56:06Z</time>
      </trkpt>
      <trkpt lat="43.43446" lon="-0.59435">
        <ele>148.66</ele>
        <time>2017-01-14T07:56:07Z</time>
      </trkpt>
      <trkpt lat="43.43442" lon="-0.59448">
        <ele>148.18</ele>
        <time>2017-01-14T07:56:08Z</time>
      </trkpt>
      <trkpt lat="43.4344" lon="-0.59459">
        <ele>147.7</ele>
        <time>2017-01-14T07:56:09Z</time>
      </trkpt>
      <trkpt lat="43.43434" lon="-0.59512">
        <ele>145.3</ele>
        <time>2017-01-14T07:56:13Z</time>
      </trkpt>
      <trkpt lat="43.43435" lon="-0.59525">
        <ele>145.3</ele>
        <time>2017-01-14T07:56:14Z</time>
      </trkpt>
      <trkpt lat="43.43436" lon="-0.59537">
        <ele>145.3</ele>
        <time>2017-01-14T07:56:15Z</time>
      </trkpt>
      <trkpt lat="43.43439" lon="-0.59608">
        <ele>143.37</ele>
        <time>2017-01-14T07:56:21Z</time>
      </trkpt>
      <trkpt lat="43.43437" lon="-0.59619">
        <ele>142.89</ele>
        <time>2017-01-14T07:56:22Z</time>
      </trkpt>
      <trkpt lat="43.43434" lon="-0.59629">
        <ele>142.89</ele>
        <time>2017-01-14T07:56:23Z</time>
      </trkpt>
      <trkpt lat="43.4343" lon="-0.59639">
        <ele>142.41</ele>
        <time>2017-01-14T07:56:24Z</time>
      </trkpt>
      <trkpt lat="43.43426" lon="-0.59647">
        <ele>142.41</ele>
        <time>2017-01-14T07:56:25Z</time>
      </trkpt>
      <trkpt lat="43.4337" lon="-0.59758">
        <ele>141.45</ele>
        <time>2017-01-14T07:56:40Z</time>
      </trkpt>
      <trkpt lat="43.43335" lon="-0.59824">
        <ele>141.45</ele>
        <time>2017-01-14T07:56:52Z</time>
      </trkpt>
      <trkpt lat="43.43335" lon="-0.59831">
        <ele>141.93</ele>
        <time>2017-01-14T07:56:53Z</time>
      </trkpt>
      <trkpt lat="43.43335" lon="-0.59837">
        <ele>141.93</ele>
        <time>2017-01-14T07:56:54Z</time>
      </trkpt>
      <trkpt lat="43.43335" lon="-0.59842">
        <ele>141.93</ele>
        <time>2017-01-14T07:56:55Z</time>
      </trkpt>
      <trkpt lat="43.43337" lon="-0.59848">
        <ele>142.41</ele>
        <time>2017-01-14T07:56:56Z</time>
      </trkpt>
      <trkpt lat="43.43338" lon="-0.59853">
        <ele>142.89</ele>
        <time>2017-01-14T07:56:57Z</time>
      </trkpt>
      <trkpt lat="43.43351" lon="-0.59891">
        <ele>147.22</ele>
        <time>2017-01-14T07:57:09Z</time>
      </trkpt>
      <trkpt lat="43.43354" lon="-0.59945">
        <ele>150.1</ele>
        <time>2017-01-14T07:57:25Z</time>
      </trkpt>
      <trkpt lat="43.43345" lon="-0.60007">
        <ele>150.58</ele>
        <time>2017-01-14T07:57:39Z</time>
      </trkpt>
      <trkpt lat="43.43345" lon="-0.60013">
        <ele>150.58</ele>
        <time>2017-01-14T07:57:40Z</time>
      </trkpt>
      <trkpt lat="43.43348" lon="-0.60039">
        <ele>149.62</ele>
        <time>2017-01-14T07:57:44Z</time>
      </trkpt>
      <trkpt lat="43.43347" lon="-0.60072">
        <ele>147.7</ele>
        <time>2017-01-14T07:57:48Z</time>
      </trkpt>
      <trkpt lat="43.43347" lon="-0.60081">
        <ele>147.22</ele>
        <time>2017-01-14T07:57:49Z</time>
      </trkpt>
      <trkpt lat="43.43349" lon="-0.60091">
        <ele>146.74</ele>
        <time>2017-01-14T07:57:50Z</time>
      </trkpt>
      <trkpt lat="43.43352" lon="-0.601">
        <ele>146.74</ele>
        <time>2017-01-14T07:57:51Z</time>
      </trkpt>
      <trkpt lat="43.43355" lon="-0.60109">
        <ele>146.26</ele>
        <time>2017-01-14T07:57:52Z</time>
      </trkpt>
      <trkpt lat="43.43359" lon="-0.60117">
        <ele>145.78</ele>
        <time>2017-01-14T07:57:53Z</time>
      </trkpt>
      <trkpt lat="43.43364" lon="-0.60125">
        <ele>145.78</ele>
        <time>2017-01-14T07:57:54Z</time>
      </trkpt>
      <trkpt lat="43.43369" lon="-0.60133">
        <ele>145.3</ele>
        <time>2017-01-14T07:57:55Z</time>
      </trkpt>
      <trkpt lat="43.43416" lon="-0.60257">
        <ele>138.09</ele>
        <time>2017-01-14T07:58:07Z</time>
      </trkpt>
      <trkpt lat="43.4342" lon="-0.6027">
        <ele>137.61</ele>
        <time>2017-01-14T07:58:08Z</time>
      </trkpt>
      <trkpt lat="43.43422" lon="-0.60283">
        <ele>137.13</ele>
        <time>2017-01-14T07:58:09Z</time>
      </trkpt>
      <trkpt lat="43.43423" lon="-0.60295">
        <ele>136.64</ele>
        <time>2017-01-14T07:58:10Z</time>
      </trkpt>
      <trkpt lat="43.43406" lon="-0.60417">
        <ele>132.8</ele>
        <time>2017-01-14T07:58:20Z</time>
      </trkpt>
      <trkpt lat="43.43376" lon="-0.60499">
        <ele>133.28</ele>
        <time>2017-01-14T07:58:30Z</time>
      </trkpt>
      <trkpt lat="43.43374" lon="-0.60506">
        <ele>133.28</ele>
        <time>2017-01-14T07:58:31Z</time>
      </trkpt>
      <trkpt lat="43.43374" lon="-0.60513">
        <ele>133.76</ele>
        <time>2017-01-14T07:58:32Z</time>
      </trkpt>
      <trkpt lat="43.43373" lon="-0.60518">
        <ele>133.76</ele>
        <time>2017-01-14T07:58:33Z</time>
      </trkpt>
      <trkpt lat="43.43374" lon="-0.60523">
        <ele>134.24</ele>
        <time>2017-01-14T07:58:34Z</time>
      </trkpt>
      <trkpt lat="43.43375" lon="-0.60529">
        <ele>134.24</ele>
        <time>2017-01-14T07:58:35Z</time>
      </trkpt>
      <trkpt lat="43.43385" lon="-0.60568">
        <ele>137.61</ele>
        <time>2017-01-14T07:58:47Z</time>
      </trkpt>
      <trkpt lat="43.43398" lon="-0.60612">
        <ele>142.41</ele>
        <time>2017-01-14T07:59:01Z</time>
      </trkpt>
      <trkpt lat="43.43412" lon="-0.60662">
        <ele>146.74</ele>
        <time>2017-01-14T07:59:18Z</time>
      </trkpt>
      <trkpt lat="43.43419" lon="-0.6072">
        <ele>148.18</ele>
        <time>2017-01-14T07:59:34Z</time>
      </trkpt>
      <trkpt lat="43.43418" lon="-0.60769">
        <ele>145.3</ele>
        <time>2017-01-14T07:59:41Z</time>
      </trkpt>
      <trkpt lat="43.43419" lon="-0.60779">
        <ele>144.82</ele>
        <time>2017-01-14T07:59:42Z</time>
      </trkpt>
      <trkpt lat="43.43423" lon="-0.60798">
        <ele>143.85</ele>
        <time>2017-01-14T07:59:44Z</time>
      </trkpt>
      <trkpt lat="43.43426" lon="-0.60805">
        <ele>143.85</ele>
        <time>2017-01-14T07:59:45Z</time>
      </trkpt>
      <trkpt lat="43.4343" lon="-0.60811">
        <ele>143.85</ele>
        <time>2017-01-14T07:59:46Z</time>
      </trkpt>
      <trkpt lat="43.43437" lon="-0.60821">
        <ele>143.85</ele>
        <time>2017-01-14T07:59:48Z</time>
      </trkpt>
      <trkpt lat="43.43439" lon="-0.60826">
        <ele>143.85</ele>
        <time>2017-01-14T07:59:49Z</time>
      </trkpt>
      <trkpt lat="43.43457" lon="-0.60882">
        <ele>145.3</ele>
        <time>2017-01-14T08:00:04Z</time>
      </trkpt>
      <trkpt lat="43.43491" lon="-0.60948">
        <ele>146.74</ele>
        <time>2017-01-14T08:00:19Z</time>
      </trkpt>
      <trkpt lat="43.43538" lon="-0.61047">
        <ele>143.85</ele>
        <time>2017-01-14T08:00:34Z</time>
      </trkpt>
      <trkpt lat="43.43613" lon="-0.61176">
        <ele>136.64</ele>
        <time>2017-01-14T08:00:48Z</time>
      </trkpt>
      <trkpt lat="43.43693" lon="-0.613">
        <ele>130.88</ele>
        <time>2017-01-14T08:01:01Z</time>
      </trkpt>
      <trkpt lat="43.43703" lon="-0.61321">
        <ele>130.4</ele>
        <time>2017-01-14T08:01:03Z</time>
      </trkpt>
      <trkpt lat="43.43706" lon="-0.61333">
        <ele>129.92</ele>
        <time>2017-01-14T08:01:04Z</time>
      </trkpt>
      <trkpt lat="43.43708" lon="-0.61345">
        <ele>129.43</ele>
        <time>2017-01-14T08:01:05Z</time>
      </trkpt>
      <trkpt lat="43.43713" lon="-0.61402">
        <ele>127.99</ele>
        <time>2017-01-14T08:01:10Z</time>
      </trkpt>
      <trkpt lat="43.43715" lon="-0.61411">
        <ele>127.99</ele>
        <time>2017-01-14T08:01:11Z</time>
      </trkpt>
      <trkpt lat="43.43719" lon="-0.6142">
        <ele>127.99</ele>
        <time>2017-01-14T08:01:12Z</time>
      </trkpt>
      <trkpt lat="43.43722" lon="-0.61428">
        <ele>127.99</ele>
        <time>2017-01-14T08:01:13Z</time>
      </trkpt>
      <trkpt lat="43.43727" lon="-0.61436">
        <ele>128.47</ele>
        <time>2017-01-14T08:01:14Z</time>
      </trkpt>
      <trkpt lat="43.43773" lon="-0.61515">
        <ele>131.36</ele>
        <time>2017-01-14T08:01:28Z</time>
      </trkpt>
      <trkpt lat="43.43781" lon="-0.61537">
        <ele>132.32</ele>
        <time>2017-01-14T08:01:32Z</time>
      </trkpt>
      <trkpt lat="43.43796" lon="-0.61602">
        <ele>135.2</ele>
        <time>2017-01-14T08:01:47Z</time>
      </trkpt>
      <trkpt lat="43.43804" lon="-0.61661">
        <ele>137.61</ele>
        <time>2017-01-14T08:02:02Z</time>
      </trkpt>
      <trkpt lat="43.43809" lon="-0.61717">
        <ele>140.49</ele>
        <time>2017-01-14T08:02:17Z</time>
      </trkpt>
      <trkpt lat="43.43798" lon="-0.61793">
        <ele>138.57</ele>
        <time>2017-01-14T08:02:29Z</time>
      </trkpt>
      <trkpt lat="43.4377" lon="-0.61936">
        <ele>129.43</ele>
        <time>2017-01-14T08:02:41Z</time>
      </trkpt>
      <trkpt lat="43.43739" lon="-0.62077">
        <ele>126.55</ele>
        <time>2017-01-14T08:02:53Z</time>
      </trkpt>
      <trkpt lat="43.43721" lon="-0.6219">
        <ele>127.99</ele>
        <time>2017-01-14T08:03:06Z</time>
      </trkpt>
      <trkpt lat="43.43711" lon="-0.62251">
        <ele>132.32</ele>
        <time>2017-01-14T08:03:18Z</time>
      </trkpt>
      <trkpt lat="43.43708" lon="-0.62322">
        <ele>134.72</ele>
        <time>2017-01-14T08:03:35Z</time>
      </trkpt>
      <trkpt lat="43.43711" lon="-0.62412">
        <ele>132.32</ele>
        <time>2017-01-14T08:03:49Z</time>
      </trkpt>
      <trkpt lat="43.437" lon="-0.62542">
        <ele>128.47</ele>
        <time>2017-01-14T08:04:04Z</time>
      </trkpt>
      <trkpt lat="43.43691" lon="-0.62692">
        <ele>120.78</ele>
        <time>2017-01-14T08:04:16Z</time>
      </trkpt>
      <trkpt lat="43.43707" lon="-0.6286">
        <ele>117.42</ele>
        <time>2017-01-14T08:04:30Z</time>
      </trkpt>
      <trkpt lat="43.4372" lon="-0.62985">
        <ele>115.5</ele>
        <time>2017-01-14T08:04:45Z</time>
      </trkpt>
      <trkpt lat="43.43728" lon="-0.63091">
        <ele>114.53</ele>
        <time>2017-01-14T08:04:59Z</time>
      </trkpt>
      <trkpt lat="43.43726" lon="-0.63098">
        <ele>114.53</ele>
        <time>2017-01-14T08:05:00Z</time>
      </trkpt>
      <trkpt lat="43.43723" lon="-0.63104">
        <ele>114.53</ele>
        <time>2017-01-14T08:05:01Z</time>
      </trkpt>
      <trkpt lat="43.4372" lon="-0.63109">
        <ele>114.53</ele>
        <time>2017-01-14T08:05:02Z</time>
      </trkpt>
      <trkpt lat="43.43716" lon="-0.63114">
        <ele>114.53</ele>
        <time>2017-01-14T08:05:03Z</time>
      </trkpt>
      <trkpt lat="43.43712" lon="-0.63117">
        <ele>114.53</ele>
        <time>2017-01-14T08:05:04Z</time>
      </trkpt>
      <trkpt lat="43.43707" lon="-0.6312">
        <ele>114.05</ele>
        <time>2017-01-14T08:05:05Z</time>
      </trkpt>
      <trkpt lat="43.43702" lon="-0.63121">
        <ele>114.53</ele>
        <time>2017-01-14T08:05:06Z</time>
      </trkpt>
      <trkpt lat="43.43698" lon="-0.63122">
        <ele>114.53</ele>
        <time>2017-01-14T08:05:07Z</time>
      </trkpt>
      <trkpt lat="43.43693" lon="-0.63122">
        <ele>114.53</ele>
        <time>2017-01-14T08:05:08Z</time>
      </trkpt>
      <trkpt lat="43.43673" lon="-0.63125">
        <ele>114.05</ele>
        <time>2017-01-14T08:05:12Z</time>
      </trkpt>
      <trkpt lat="43.4367" lon="-0.63128">
        <ele>113.57</ele>
        <time>2017-01-14T08:05:13Z</time>
      </trkpt>
      <trkpt lat="43.43668" lon="-0.63134">
        <ele>113.57</ele>
        <time>2017-01-14T08:05:14Z</time>
      </trkpt>
      <trkpt lat="43.43668" lon="-0.63138">
        <ele>113.57</ele>
        <time>2017-01-14T08:05:15Z</time>
      </trkpt>
      <trkpt lat="43.43667" lon="-0.63142">
        <ele>113.09</ele>
        <time>2017-01-14T08:05:16Z</time>
      </trkpt>
      <trkpt lat="43.43667" lon="-0.63145">
        <ele>113.09</ele>
        <time>2017-01-14T08:05:17Z</time>
      </trkpt>
      <trkpt lat="43.43667" lon="-0.63149">
        <ele>113.57</ele>
        <time>2017-01-14T08:05:18Z</time>
      </trkpt>
      <trkpt lat="43.43667" lon="-0.63154">
        <ele>113.09</ele>
        <time>2017-01-14T08:05:19Z</time>
      </trkpt>
      <trkpt lat="43.43665" lon="-0.63188">
        <ele>113.57</ele>
        <time>2017-01-14T08:05:25Z</time>
      </trkpt>
      <trkpt lat="43.43665" lon="-0.63194">
        <ele>113.57</ele>
        <time>2017-01-14T08:05:26Z</time>
      </trkpt>
      <trkpt lat="43.43667" lon="-0.632">
        <ele>113.57</ele>
        <time>2017-01-14T08:05:27Z</time>
      </trkpt>
      <trkpt lat="43.4371" lon="-0.63308">
        <ele>115.5</ele>
        <time>2017-01-14T08:05:45Z</time>
      </trkpt>
      <trkpt lat="43.43738" lon="-0.63428">
        <ele>114.05</ele>
        <time>2017-01-14T08:06:02Z</time>
      </trkpt>
      <trkpt lat="43.43737" lon="-0.63435">
        <ele>114.05</ele>
        <time>2017-01-14T08:06:03Z</time>
      </trkpt>
      <trkpt lat="43.43735" lon="-0.63443">
        <ele>114.05</ele>
        <time>2017-01-14T08:06:04Z</time>
      </trkpt>
      <trkpt lat="43.43733" lon="-0.6345">
        <ele>114.05</ele>
        <time>2017-01-14T08:06:05Z</time>
      </trkpt>
      <trkpt lat="43.4373" lon="-0.63457">
        <ele>114.05</ele>
        <time>2017-01-14T08:06:06Z</time>
      </trkpt>
      <trkpt lat="43.43728" lon="-0.63464">
        <ele>114.05</ele>
        <time>2017-01-14T08:06:07Z</time>
      </trkpt>
      <trkpt lat="43.43701" lon="-0.63539">
        <ele>114.05</ele>
        <time>2017-01-14T08:06:18Z</time>
      </trkpt>
      <trkpt lat="43.43699" lon="-0.63545">
        <ele>114.05</ele>
        <time>2017-01-14T08:06:19Z</time>
      </trkpt>
      <trkpt lat="43.43697" lon="-0.6355">
        <ele>114.05</ele>
        <time>2017-01-14T08:06:20Z</time>
      </trkpt>
      <trkpt lat="43.4367" lon="-0.63632">
        <ele>111.65</ele>
        <time>2017-01-14T08:06:34Z</time>
      </trkpt>
      <trkpt lat="43.43657" lon="-0.63672">
        <ele>110.21</ele>
        <time>2017-01-14T08:06:40Z</time>
      </trkpt>
      <trkpt lat="43.43655" lon="-0.6368">
        <ele>110.21</ele>
        <time>2017-01-14T08:06:41Z</time>
      </trkpt>
      <trkpt lat="43.43655" lon="-0.63688">
        <ele>110.21</ele>
        <time>2017-01-14T08:06:42Z</time>
      </trkpt>
      <trkpt lat="43.43655" lon="-0.63696">
        <ele>109.73</ele>
        <time>2017-01-14T08:06:43Z</time>
      </trkpt>
      <trkpt lat="43.43656" lon="-0.63704">
        <ele>109.73</ele>
        <time>2017-01-14T08:06:44Z</time>
      </trkpt>
      <trkpt lat="43.43658" lon="-0.63711">
        <ele>109.73</ele>
        <time>2017-01-14T08:06:45Z</time>
      </trkpt>
      <trkpt lat="43.43661" lon="-0.63718">
        <ele>110.21</ele>
        <time>2017-01-14T08:06:46Z</time>
      </trkpt>
      <trkpt lat="43.43665" lon="-0.63724">
        <ele>110.21</ele>
        <time>2017-01-14T08:06:47Z</time>
      </trkpt>
      <trkpt lat="43.43668" lon="-0.63729">
        <ele>110.69</ele>
        <time>2017-01-14T08:06:48Z</time>
      </trkpt>
      <trkpt lat="43.43716" lon="-0.63802">
        <ele>115.01</ele>
        <time>2017-01-14T08:07:03Z</time>
      </trkpt>
      <trkpt lat="43.43764" lon="-0.63878">
        <ele>115.01</ele>
        <time>2017-01-14T08:07:18Z</time>
      </trkpt>
      <trkpt lat="43.43811" lon="-0.63964">
        <ele>114.05</ele>
        <time>2017-01-14T08:07:33Z</time>
      </trkpt>
      <trkpt lat="43.43854" lon="-0.64061">
        <ele>111.65</ele>
        <time>2017-01-14T08:07:48Z</time>
      </trkpt>
      <trkpt lat="43.43856" lon="-0.64068">
        <ele>111.17</ele>
        <time>2017-01-14T08:07:49Z</time>
      </trkpt>
      <trkpt lat="43.43857" lon="-0.64077">
        <ele>110.69</ele>
        <time>2017-01-14T08:07:50Z</time>
      </trkpt>
      <trkpt lat="43.43866" lon="-0.64126">
        <ele>107.32</ele>
        <time>2017-01-14T08:07:55Z</time>
      </trkpt>
      <trkpt lat="43.43869" lon="-0.64135">
        <ele>106.84</ele>
        <time>2017-01-14T08:07:56Z</time>
      </trkpt>
      <trkpt lat="43.43874" lon="-0.64142">
        <ele>106.36</ele>
        <time>2017-01-14T08:07:57Z</time>
      </trkpt>
      <trkpt lat="43.43879" lon="-0.64149">
        <ele>105.88</ele>
        <time>2017-01-14T08:07:58Z</time>
      </trkpt>
      <trkpt lat="43.43885" lon="-0.64155">
        <ele>105.4</ele>
        <time>2017-01-14T08:07:59Z</time>
      </trkpt>
      <trkpt lat="43.43891" lon="-0.64162">
        <ele>105.4</ele>
        <time>2017-01-14T08:08:00Z</time>
      </trkpt>
      <trkpt lat="43.43896" lon="-0.64169">
        <ele>104.92</ele>
        <time>2017-01-14T08:08:01Z</time>
      </trkpt>
      <trkpt lat="43.43902" lon="-0.64176">
        <ele>104.44</ele>
        <time>2017-01-14T08:08:02Z</time>
      </trkpt>
      <trkpt lat="43.43908" lon="-0.64183">
        <ele>103.96</ele>
        <time>2017-01-14T08:08:03Z</time>
      </trkpt>
      <trkpt lat="43.43913" lon="-0.64188">
        <ele>103.48</ele>
        <time>2017-01-14T08:08:04Z</time>
      </trkpt>
      <trkpt lat="43.4392" lon="-0.64191">
        <ele>103.48</ele>
        <time>2017-01-14T08:08:05Z</time>
      </trkpt>
      <trkpt lat="43.43926" lon="-0.64193">
        <ele>103</ele>
        <time>2017-01-14T08:08:06Z</time>
      </trkpt>
      <trkpt lat="43.43932" lon="-0.64194">
        <ele>102.52</ele>
        <time>2017-01-14T08:08:07Z</time>
      </trkpt>
      <trkpt lat="43.43955" lon="-0.64198">
        <ele>101.56</ele>
        <time>2017-01-14T08:08:11Z</time>
      </trkpt>
      <trkpt lat="43.4396" lon="-0.64196">
        <ele>101.56</ele>
        <time>2017-01-14T08:08:12Z</time>
      </trkpt>
      <trkpt lat="43.43964" lon="-0.64193">
        <ele>102.04</ele>
        <time>2017-01-14T08:08:13Z</time>
      </trkpt>
      <trkpt lat="43.43968" lon="-0.6419">
        <ele>101.56</ele>
        <time>2017-01-14T08:08:14Z</time>
      </trkpt>
      <trkpt lat="43.43972" lon="-0.64187">
        <ele>101.56</ele>
        <time>2017-01-14T08:08:15Z</time>
      </trkpt>
      <trkpt lat="43.43976" lon="-0.64183">
        <ele>101.56</ele>
        <time>2017-01-14T08:08:16Z</time>
      </trkpt>
      <trkpt lat="43.43981" lon="-0.64181">
        <ele>101.56</ele>
        <time>2017-01-14T08:08:17Z</time>
      </trkpt>
      <trkpt lat="43.43989" lon="-0.64174">
        <ele>101.56</ele>
        <time>2017-01-14T08:08:19Z</time>
      </trkpt>
      <trkpt lat="43.43993" lon="-0.6417">
        <ele>101.56</ele>
        <time>2017-01-14T08:08:20Z</time>
      </trkpt>
      <trkpt lat="43.43996" lon="-0.64165">
        <ele>101.56</ele>
        <time>2017-01-14T08:08:21Z</time>
      </trkpt>
      <trkpt lat="43.44" lon="-0.64159">
        <ele>101.56</ele>
        <time>2017-01-14T08:08:22Z</time>
      </trkpt>
      <trkpt lat="43.44002" lon="-0.64154">
        <ele>102.04</ele>
        <time>2017-01-14T08:08:23Z</time>
      </trkpt>
      <trkpt lat="43.44005" lon="-0.64148">
        <ele>102.04</ele>
        <time>2017-01-14T08:08:24Z</time>
      </trkpt>
      <trkpt lat="43.44007" lon="-0.64142">
        <ele>102.04</ele>
        <time>2017-01-14T08:08:25Z</time>
      </trkpt>
      <trkpt lat="43.44009" lon="-0.64136">
        <ele>102.04</ele>
        <time>2017-01-14T08:08:26Z</time>
      </trkpt>
      <trkpt lat="43.44011" lon="-0.6413">
        <ele>102.52</ele>
        <time>2017-01-14T08:08:27Z</time>
      </trkpt>
      <trkpt lat="43.44013" lon="-0.64124">
        <ele>102.52</ele>
        <time>2017-01-14T08:08:28Z</time>
      </trkpt>
      <trkpt lat="43.44018" lon="-0.64105">
        <ele>102.52</ele>
        <time>2017-01-14T08:08:31Z</time>
      </trkpt>
      <trkpt lat="43.44018" lon="-0.64099">
        <ele>102.52</ele>
        <time>2017-01-14T08:08:32Z</time>
      </trkpt>
      <trkpt lat="43.44018" lon="-0.64093">
        <ele>102.52</ele>
        <time>2017-01-14T08:08:33Z</time>
      </trkpt>
      <trkpt lat="43.44018" lon="-0.64087">
        <ele>102.52</ele>
        <time>2017-01-14T08:08:34Z</time>
      </trkpt>
      <trkpt lat="43.44018" lon="-0.64081">
        <ele>102.52</ele>
        <time>2017-01-14T08:08:35Z</time>
      </trkpt>
      <trkpt lat="43.44017" lon="-0.64068">
        <ele>102.52</ele>
        <time>2017-01-14T08:08:37Z</time>
      </trkpt>
      <trkpt lat="43.44017" lon="-0.64028">
        <ele>102.04</ele>
        <time>2017-01-14T08:08:43Z</time>
      </trkpt>
      <trkpt lat="43.44017" lon="-0.64021">
        <ele>102.04</ele>
        <time>2017-01-14T08:08:44Z</time>
      </trkpt>
      <trkpt lat="43.44017" lon="-0.64014">
        <ele>102.04</ele>
        <time>2017-01-14T08:08:45Z</time>
      </trkpt>
      <trkpt lat="43.44017" lon="-0.64008">
        <ele>102.04</ele>
        <time>2017-01-14T08:08:46Z</time>
      </trkpt>
      <trkpt lat="43.44016" lon="-0.64001">
        <ele>102.04</ele>
        <time>2017-01-14T08:08:47Z</time>
      </trkpt>
      <trkpt lat="43.4401" lon="-0.63936">
        <ele>102.04</ele>
        <time>2017-01-14T08:08:57Z</time>
      </trkpt>
      <trkpt lat="43.44011" lon="-0.6393">
        <ele>102.04</ele>
        <time>2017-01-14T08:08:58Z</time>
      </trkpt>
      <trkpt lat="43.44012" lon="-0.6391">
        <ele>101.56</ele>
        <time>2017-01-14T08:09:01Z</time>
      </trkpt>
      <trkpt lat="43.44019" lon="-0.63827">
        <ele>102.04</ele>
        <time>2017-01-14T08:09:14Z</time>
      </trkpt>
      <trkpt lat="43.44018" lon="-0.6382">
        <ele>102.04</ele>
        <time>2017-01-14T08:09:15Z</time>
      </trkpt>
      <trkpt lat="43.44014" lon="-0.638">
        <ele>102.52</ele>
        <time>2017-01-14T08:09:18Z</time>
      </trkpt>
      <trkpt lat="43.44012" lon="-0.63794">
        <ele>102.04</ele>
        <time>2017-01-14T08:09:19Z</time>
      </trkpt>
      <trkpt lat="43.44014" lon="-0.63711">
        <ele>102.52</ele>
        <time>2017-01-14T08:09:33Z</time>
      </trkpt>
      <trkpt lat="43.44036" lon="-0.63665">
        <ele>105.4</ele>
        <time>2017-01-14T08:09:46Z</time>
      </trkpt>
      <trkpt lat="43.44071" lon="-0.63656">
        <ele>109.25</ele>
        <time>2017-01-14T08:10:00Z</time>
      </trkpt>
      <trkpt lat="43.44079" lon="-0.63601">
        <ele>109.25</ele>
        <time>2017-01-14T08:10:14Z</time>
      </trkpt>
      <trkpt lat="43.44085" lon="-0.63515">
        <ele>108.77</ele>
        <time>2017-01-14T08:10:31Z</time>
      </trkpt>
      <trkpt lat="43.44091" lon="-0.63459">
        <ele>107.81</ele>
        <time>2017-01-14T08:10:42Z</time>
      </trkpt>
      <trkpt lat="43.44094" lon="-0.63455">
        <ele>107.81</ele>
        <time>2017-01-14T08:10:43Z</time>
      </trkpt>
      <trkpt lat="43.44098" lon="-0.63451">
        <ele>107.81</ele>
        <time>2017-01-14T08:10:44Z</time>
      </trkpt>
      <trkpt lat="43.44106" lon="-0.63447">
        <ele>107.32</ele>
        <time>2017-01-14T08:10:46Z</time>
      </trkpt>
      <trkpt lat="43.44111" lon="-0.63445">
        <ele>107.32</ele>
        <time>2017-01-14T08:10:47Z</time>
      </trkpt>
      <trkpt lat="43.44115" lon="-0.63444">
        <ele>106.84</ele>
        <time>2017-01-14T08:10:48Z</time>
      </trkpt>
      <trkpt lat="43.44119" lon="-0.63443">
        <ele>106.84</ele>
        <time>2017-01-14T08:10:49Z</time>
      </trkpt>
      <trkpt lat="43.44155" lon="-0.63435">
        <ele>106.36</ele>
        <time>2017-01-14T08:10:56Z</time>
      </trkpt>
      <trkpt lat="43.44174" lon="-0.63426">
        <ele>107.32</ele>
        <time>2017-01-14T08:11:00Z</time>
      </trkpt>
      <trkpt lat="43.44194" lon="-0.63415">
        <ele>109.73</ele>
        <time>2017-01-14T08:11:05Z</time>
      </trkpt>
      <trkpt lat="43.44198" lon="-0.63415">
        <ele>110.21</ele>
        <time>2017-01-14T08:11:06Z</time>
      </trkpt>
      <trkpt lat="43.44202" lon="-0.63415">
        <ele>110.69</ele>
        <time>2017-01-14T08:11:07Z</time>
      </trkpt>
      <trkpt lat="43.44235" lon="-0.63426">
        <ele>114.53</ele>
        <time>2017-01-14T08:11:15Z</time>
      </trkpt>
      <trkpt lat="43.44239" lon="-0.63428">
        <ele>115.01</ele>
        <time>2017-01-14T08:11:16Z</time>
      </trkpt>
      <trkpt lat="43.44243" lon="-0.63429">
        <ele>115.5</ele>
        <time>2017-01-14T08:11:17Z</time>
      </trkpt>
      <trkpt lat="43.44301" lon="-0.63437">
        <ele>119.82</ele>
        <time>2017-01-14T08:11:31Z</time>
      </trkpt>
      <trkpt lat="43.4433" lon="-0.63424">
        <ele>121.26</ele>
        <time>2017-01-14T08:11:39Z</time>
      </trkpt>
      <trkpt lat="43.44332" lon="-0.63424">
        <ele>121.26</ele>
        <time>2017-01-14T08:11:40Z</time>
      </trkpt>
      <trkpt lat="43.44334" lon="-0.63426">
        <ele>120.78</ele>
        <time>2017-01-14T08:11:41Z</time>
      </trkpt>
      <trkpt lat="43.44359" lon="-0.63481">
        <ele>115.98</ele>
        <time>2017-01-14T08:11:54Z</time>
      </trkpt>
      <trkpt lat="43.44351" lon="-0.63542">
        <ele>114.05</ele>
        <time>2017-01-14T08:12:06Z</time>
      </trkpt>
      <trkpt lat="43.44334" lon="-0.63637">
        <ele>114.05</ele>
        <time>2017-01-14T08:12:25Z</time>
      </trkpt>
      <trkpt lat="43.44316" lon="-0.63732">
        <ele>113.57</ele>
        <time>2017-01-14T08:12:42Z</time>
      </trkpt>
      <trkpt lat="43.44314" lon="-0.63763">
        <ele>113.09</ele>
        <time>2017-01-14T08:12:47Z</time>
      </trkpt>
      <trkpt lat="43.44315" lon="-0.63873">
        <ele>111.65</ele>
        <time>2017-01-14T08:13:02Z</time>
      </trkpt>
      <trkpt lat="43.44317" lon="-0.63946">
        <ele>111.17</ele>
        <time>2017-01-14T08:13:11Z</time>
      </trkpt>
      <trkpt lat="43.44326" lon="-0.64024">
        <ele>110.69</ele>
        <time>2017-01-14T08:13:21Z</time>
      </trkpt>
      <trkpt lat="43.44325" lon="-0.64032">
        <ele>110.69</ele>
        <time>2017-01-14T08:13:22Z</time>
      </trkpt>
      <trkpt lat="43.44323" lon="-0.64039">
        <ele>110.69</ele>
        <time>2017-01-14T08:13:23Z</time>
      </trkpt>
      <trkpt lat="43.44321" lon="-0.64047">
        <ele>110.69</ele>
        <time>2017-01-14T08:13:24Z</time>
      </trkpt>
      <trkpt lat="43.44319" lon="-0.64054">
        <ele>110.69</ele>
        <time>2017-01-14T08:13:25Z</time>
      </trkpt>
      <trkpt lat="43.44316" lon="-0.64061">
        <ele>110.69</ele>
        <time>2017-01-14T08:13:26Z</time>
      </trkpt>
      <trkpt lat="43.44314" lon="-0.64068">
        <ele>110.69</ele>
        <time>2017-01-14T08:13:27Z</time>
      </trkpt>
      <trkpt lat="43.4431" lon="-0.64082">
        <ele>110.69</ele>
        <time>2017-01-14T08:13:29Z</time>
      </trkpt>
      <trkpt lat="43.44307" lon="-0.64095">
        <ele>110.69</ele>
        <time>2017-01-14T08:13:31Z</time>
      </trkpt>
      <trkpt lat="43.44298" lon="-0.6413">
        <ele>110.21</ele>
        <time>2017-01-14T08:13:36Z</time>
      </trkpt>
      <trkpt lat="43.44297" lon="-0.64137">
        <ele>110.21</ele>
        <time>2017-01-14T08:13:37Z</time>
      </trkpt>
      <trkpt lat="43.44297" lon="-0.64144">
        <ele>110.21</ele>
        <time>2017-01-14T08:13:38Z</time>
      </trkpt>
      <trkpt lat="43.44299" lon="-0.64151">
        <ele>109.73</ele>
        <time>2017-01-14T08:13:39Z</time>
      </trkpt>
      <trkpt lat="43.44302" lon="-0.64157">
        <ele>109.73</ele>
        <time>2017-01-14T08:13:40Z</time>
      </trkpt>
      <trkpt lat="43.44305" lon="-0.64163">
        <ele>109.25</ele>
        <time>2017-01-14T08:13:41Z</time>
      </trkpt>
      <trkpt lat="43.4431" lon="-0.64169">
        <ele>109.25</ele>
        <time>2017-01-14T08:13:42Z</time>
      </trkpt>
      <trkpt lat="43.44356" lon="-0.64255">
        <ele>107.81</ele>
        <time>2017-01-14T08:13:55Z</time>
      </trkpt>
      <trkpt lat="43.4436" lon="-0.6427">
        <ele>108.29</ele>
        <time>2017-01-14T08:13:57Z</time>
      </trkpt>
      <trkpt lat="43.44371" lon="-0.64373">
        <ele>109.73</ele>
        <time>2017-01-14T08:14:11Z</time>
      </trkpt>
      <trkpt lat="43.44385" lon="-0.64454">
        <ele>109.73</ele>
        <time>2017-01-14T08:14:25Z</time>
      </trkpt>
      <trkpt lat="43.44387" lon="-0.64454">
        <ele>109.73</ele>
        <time>2017-01-14T08:14:26Z</time>
      </trkpt>
      <trkpt lat="43.4439" lon="-0.64452">
        <ele>109.73</ele>
        <time>2017-01-14T08:14:27Z</time>
      </trkpt>
      <trkpt lat="43.44392" lon="-0.64449">
        <ele>109.73</ele>
        <time>2017-01-14T08:14:28Z</time>
      </trkpt>
      <trkpt lat="43.44395" lon="-0.64446">
        <ele>109.73</ele>
        <time>2017-01-14T08:14:29Z</time>
      </trkpt>
      <trkpt lat="43.44398" lon="-0.64443">
        <ele>109.73</ele>
        <time>2017-01-14T08:14:30Z</time>
      </trkpt>
      <trkpt lat="43.44445" lon="-0.644">
        <ele>109.25</ele>
        <time>2017-01-14T08:14:45Z</time>
      </trkpt>
      <trkpt lat="43.4451" lon="-0.64359">
        <ele>110.21</ele>
        <time>2017-01-14T08:15:02Z</time>
      </trkpt>
      <trkpt lat="43.44563" lon="-0.64332">
        <ele>111.17</ele>
        <time>2017-01-14T08:15:18Z</time>
      </trkpt>
      <trkpt lat="43.44627" lon="-0.64299">
        <ele>113.09</ele>
        <time>2017-01-14T08:15:38Z</time>
      </trkpt>
      <trkpt lat="43.44689" lon="-0.64278">
        <ele>114.53</ele>
        <time>2017-01-14T08:15:56Z</time>
      </trkpt>
      <trkpt lat="43.44755" lon="-0.64265">
        <ele>116.46</ele>
        <time>2017-01-14T08:16:15Z</time>
      </trkpt>
      <trkpt lat="43.44803" lon="-0.64239">
        <ele>117.9</ele>
        <time>2017-01-14T08:16:30Z</time>
      </trkpt>
      <trkpt lat="43.44852" lon="-0.64198">
        <ele>116.94</ele>
        <time>2017-01-14T08:16:46Z</time>
      </trkpt>
      <trkpt lat="43.44855" lon="-0.642">
        <ele>117.42</ele>
        <time>2017-01-14T08:16:47Z</time>
      </trkpt>
      <trkpt lat="43.44857" lon="-0.64203">
        <ele>117.42</ele>
        <time>2017-01-14T08:16:48Z</time>
      </trkpt>
      <trkpt lat="43.44858" lon="-0.64207">
        <ele>117.9</ele>
        <time>2017-01-14T08:16:49Z</time>
      </trkpt>
      <trkpt lat="43.44859" lon="-0.6421">
        <ele>117.9</ele>
        <time>2017-01-14T08:16:50Z</time>
      </trkpt>
      <trkpt lat="43.44859" lon="-0.64215">
        <ele>117.9</ele>
        <time>2017-01-14T08:16:51Z</time>
      </trkpt>
      <trkpt lat="43.44859" lon="-0.64219">
        <ele>117.9</ele>
        <time>2017-01-14T08:16:52Z</time>
      </trkpt>
      <trkpt lat="43.44858" lon="-0.64224">
        <ele>118.38</ele>
        <time>2017-01-14T08:16:53Z</time>
      </trkpt>
      <trkpt lat="43.44858" lon="-0.64228">
        <ele>118.38</ele>
        <time>2017-01-14T08:16:54Z</time>
      </trkpt>
      <trkpt lat="43.44857" lon="-0.64233">
        <ele>118.38</ele>
        <time>2017-01-14T08:16:55Z</time>
      </trkpt>
      <trkpt lat="43.44856" lon="-0.64238">
        <ele>118.38</ele>
        <time>2017-01-14T08:16:56Z</time>
      </trkpt>
      <trkpt lat="43.44849" lon="-0.64323">
        <ele>119.82</ele>
        <time>2017-01-14T08:17:13Z</time>
      </trkpt>
      <trkpt lat="43.44849" lon="-0.6434">
        <ele>119.82</ele>
        <time>2017-01-14T08:17:16Z</time>
      </trkpt>
      <trkpt lat="43.44853" lon="-0.64445">
        <ele>119.82</ele>
        <time>2017-01-14T08:17:32Z</time>
      </trkpt>
      <trkpt lat="43.44855" lon="-0.64483">
        <ele>120.3</ele>
        <time>2017-01-14T08:17:38Z</time>
      </trkpt>
      <trkpt lat="43.44862" lon="-0.64513">
        <ele>120.3</ele>
        <time>2017-01-14T08:17:43Z</time>
      </trkpt>
      <trkpt lat="43.44882" lon="-0.64571">
        <ele>120.78</ele>
        <time>2017-01-14T08:17:53Z</time>
      </trkpt>
      <trkpt lat="43.44916" lon="-0.64636">
        <ele>123.19</ele>
        <time>2017-01-14T08:18:07Z</time>
      </trkpt>
      <trkpt lat="43.44918" lon="-0.64641">
        <ele>123.19</ele>
        <time>2017-01-14T08:18:08Z</time>
      </trkpt>
      <trkpt lat="43.44918" lon="-0.64653">
        <ele>122.22</ele>
        <time>2017-01-14T08:18:10Z</time>
      </trkpt>
      <trkpt lat="43.44918" lon="-0.64659">
        <ele>122.22</ele>
        <time>2017-01-14T08:18:11Z</time>
      </trkpt>
      <trkpt lat="43.44915" lon="-0.64768">
        <ele>122.71</ele>
        <time>2017-01-14T08:18:28Z</time>
      </trkpt>
      <trkpt lat="43.44911" lon="-0.64821">
        <ele>125.59</ele>
        <time>2017-01-14T08:18:37Z</time>
      </trkpt>
      <trkpt lat="43.4491" lon="-0.64827">
        <ele>125.59</ele>
        <time>2017-01-14T08:18:38Z</time>
      </trkpt>
      <trkpt lat="43.44905" lon="-0.64845">
        <ele>126.07</ele>
        <time>2017-01-14T08:18:41Z</time>
      </trkpt>
      <trkpt lat="43.44872" lon="-0.64941">
        <ele>124.63</ele>
        <time>2017-01-14T08:18:56Z</time>
      </trkpt>
      <trkpt lat="43.44836" lon="-0.65077">
        <ele>122.22</ele>
        <time>2017-01-14T08:19:13Z</time>
      </trkpt>
      <trkpt lat="43.44824" lon="-0.65122">
        <ele>122.22</ele>
        <time>2017-01-14T08:19:20Z</time>
      </trkpt>
      <trkpt lat="43.44825" lon="-0.65125">
        <ele>122.71</ele>
        <time>2017-01-14T08:19:21Z</time>
      </trkpt>
      <trkpt lat="43.44827" lon="-0.65126">
        <ele>122.71</ele>
        <time>2017-01-14T08:19:22Z</time>
      </trkpt>
      <trkpt lat="43.4483" lon="-0.65127">
        <ele>122.71</ele>
        <time>2017-01-14T08:19:23Z</time>
      </trkpt>
      <trkpt lat="43.44832" lon="-0.65127">
        <ele>123.19</ele>
        <time>2017-01-14T08:19:24Z</time>
      </trkpt>
      <trkpt lat="43.44879" lon="-0.65135">
        <ele>127.51</ele>
        <time>2017-01-14T08:19:41Z</time>
      </trkpt>
      <trkpt lat="43.44925" lon="-0.65142">
        <ele>128.95</ele>
        <time>2017-01-14T08:19:58Z</time>
      </trkpt>
      <trkpt lat="43.44959" lon="-0.65144">
        <ele>129.43</ele>
        <time>2017-01-14T08:20:11Z</time>
      </trkpt>
      <trkpt lat="43.44987" lon="-0.65169">
        <ele>133.28</ele>
        <time>2017-01-14T08:20:23Z</time>
      </trkpt>
      <trkpt lat="43.45007" lon="-0.65168">
        <ele>134.72</ele>
        <time>2017-01-14T08:20:34Z</time>
      </trkpt>
      <trkpt lat="43.45027" lon="-0.6517">
        <ele>140.97</ele>
        <time>2017-01-14T08:20:47Z</time>
      </trkpt>
      <trkpt lat="43.45049" lon="-0.65186">
        <ele>145.3</ele>
        <time>2017-01-14T08:21:01Z</time>
      </trkpt>
      <trkpt lat="43.45079" lon="-0.65197">
        <ele>146.74</ele>
        <time>2017-01-14T08:21:18Z</time>
      </trkpt>
      <trkpt lat="43.45101" lon="-0.65198">
        <ele>148.18</ele>
        <time>2017-01-14T08:21:31Z</time>
      </trkpt>
      <trkpt lat="43.45121" lon="-0.65214">
        <ele>150.1</ele>
        <time>2017-01-14T08:21:43Z</time>
      </trkpt>
      <trkpt lat="43.4515" lon="-0.65206">
        <ele>152.99</ele>
        <time>2017-01-14T08:21:59Z</time>
      </trkpt>
      <trkpt lat="43.45174" lon="-0.65187">
        <ele>157.31</ele>
        <time>2017-01-14T08:22:16Z</time>
      </trkpt>
      <trkpt lat="43.45198" lon="-0.6517">
        <ele>160.68</ele>
        <time>2017-01-14T08:22:33Z</time>
      </trkpt>
      <trkpt lat="43.45218" lon="-0.65159">
        <ele>164.04</ele>
        <time>2017-01-14T08:22:47Z</time>
      </trkpt>
      <trkpt lat="43.45223" lon="-0.65135">
        <ele>167.41</ele>
        <time>2017-01-14T08:23:00Z</time>
      </trkpt>
      <trkpt lat="43.45223" lon="-0.65133">
        <ele>167.89</ele>
        <time>2017-01-14T08:23:01Z</time>
      </trkpt>
      <trkpt lat="43.45225" lon="-0.65124">
        <ele>166.93</ele>
        <time>2017-01-14T08:23:12Z</time>
      </trkpt>
      <trkpt lat="43.45225" lon="-0.65123">
        <ele>165.96</ele>
        <time>2017-01-14T08:23:14Z</time>
      </trkpt>
      <trkpt lat="43.45215" lon="-0.65107">
        <ele>165.48</ele>
        <time>2017-01-14T08:23:25Z</time>
      </trkpt>
      <trkpt lat="43.45216" lon="-0.65104">
        <ele>165.48</ele>
        <time>2017-01-14T08:23:29Z</time>
      </trkpt>
      <trkpt lat="43.45229" lon="-0.65104">
        <ele>166.45</ele>
        <time>2017-01-14T08:23:45Z</time>
      </trkpt>
      <trkpt lat="43.4523" lon="-0.65104">
        <ele>165.96</ele>
        <time>2017-01-14T08:24:05Z</time>
      </trkpt>
      <trkpt lat="43.4523" lon="-0.65103">
        <ele>165.48</ele>
        <time>2017-01-14T08:24:19Z</time>
      </trkpt>
      <trkpt lat="43.45237" lon="-0.65101">
        <ele>165.96</ele>
        <time>2017-01-14T08:24:34Z</time>
      </trkpt>
      <trkpt lat="43.45246" lon="-0.65099">
        <ele>166.45</ele>
        <time>2017-01-14T08:24:51Z</time>
      </trkpt>
      <trkpt lat="43.45247" lon="-0.65098">
        <ele>165.48</ele>
        <time>2017-01-14T08:25:06Z</time>
      </trkpt>
      <trkpt lat="43.45247" lon="-0.65098">
        <ele>163.56</ele>
        <time>2017-01-14T08:25:29Z</time>
      </trkpt>
      <trkpt lat="43.45245" lon="-0.65101">
        <ele>161.64</ele>
        <time>2017-01-14T08:25:48Z</time>
      </trkpt>
      <trkpt lat="43.45245" lon="-0.65102">
        <ele>164.52</ele>
        <time>2017-01-14T08:26:22Z</time>
      </trkpt>
      <trkpt lat="43.45246" lon="-0.65101">
        <ele>164.52</ele>
        <time>2017-01-14T08:26:58Z</time>
      </trkpt>
      <trkpt lat="43.45246" lon="-0.65099">
        <ele>165.96</ele>
        <time>2017-01-14T08:27:19Z</time>
      </trkpt>
      <trkpt lat="43.45246" lon="-0.65098">
        <ele>165.48</ele>
        <time>2017-01-14T08:27:39Z</time>
      </trkpt>
      <trkpt lat="43.45245" lon="-0.65099">
        <ele>165</ele>
        <time>2017-01-14T08:28:07Z</time>
      </trkpt>
      <trkpt lat="43.45246" lon="-0.651">
        <ele>165</ele>
        <time>2017-01-14T08:28:52Z</time>
      </trkpt>
      <trkpt lat="43.45242" lon="-0.65102">
        <ele>161.16</ele>
        <time>2017-01-14T08:29:34Z</time>
      </trkpt>
      <trkpt lat="43.45244" lon="-0.65096">
        <ele>161.16</ele>
        <time>2017-01-14T08:30:02Z</time>
      </trkpt>
      <trkpt lat="43.45246" lon="-0.65098">
        <ele>166.45</ele>
        <time>2017-01-14T08:30:34Z</time>
      </trkpt>
      <trkpt lat="43.45247" lon="-0.65097">
        <ele>165.96</ele>
        <time>2017-01-14T08:30:58Z</time>
      </trkpt>
      <trkpt lat="43.45259" lon="-0.6509">
        <ele>169.81</ele>
        <time>2017-01-14T08:31:10Z</time>
      </trkpt>
      <trkpt lat="43.45283" lon="-0.65074">
        <ele>172.21</ele>
        <time>2017-01-14T08:31:32Z</time>
      </trkpt>
      <trkpt lat="43.4531" lon="-0.65057">
        <ele>174.14</ele>
        <time>2017-01-14T08:31:54Z</time>
      </trkpt>
      <trkpt lat="43.45314" lon="-0.65054">
        <ele>175.58</ele>
        <time>2017-01-14T08:31:58Z</time>
      </trkpt>
      <trkpt lat="43.45331" lon="-0.65046">
        <ele>176.54</ele>
        <time>2017-01-14T08:32:13Z</time>
      </trkpt>
      <trkpt lat="43.45355" lon="-0.65039">
        <ele>179.42</ele>
        <time>2017-01-14T08:32:32Z</time>
      </trkpt>
      <trkpt lat="43.45368" lon="-0.65034">
        <ele>180.38</ele>
        <time>2017-01-14T08:32:42Z</time>
      </trkpt>
      <trkpt lat="43.45374" lon="-0.65033">
        <ele>179.9</ele>
        <time>2017-01-14T08:32:47Z</time>
      </trkpt>
      <trkpt lat="43.45378" lon="-0.65031">
        <ele>180.87</ele>
        <time>2017-01-14T08:32:50Z</time>
      </trkpt>
      <trkpt lat="43.45379" lon="-0.65008">
        <ele>182.79</ele>
        <time>2017-01-14T08:33:01Z</time>
      </trkpt>
      <trkpt lat="43.45365" lon="-0.64977">
        <ele>186.63</ele>
        <time>2017-01-14T08:33:16Z</time>
      </trkpt>
      <trkpt lat="43.45352" lon="-0.64947">
        <ele>190.48</ele>
        <time>2017-01-14T08:33:33Z</time>
      </trkpt>
      <trkpt lat="43.45354" lon="-0.64934">
        <ele>192.4</ele>
        <time>2017-01-14T08:33:41Z</time>
      </trkpt>
      <trkpt lat="43.45371" lon="-0.64943">
        <ele>191.44</ele>
        <time>2017-01-14T08:33:57Z</time>
      </trkpt>
      <trkpt lat="43.4538" lon="-0.64952">
        <ele>191.92</ele>
        <time>2017-01-14T08:34:05Z</time>
      </trkpt>
      <trkpt lat="43.454" lon="-0.64963">
        <ele>192.88</ele>
        <time>2017-01-14T08:34:20Z</time>
      </trkpt>
      <trkpt lat="43.45427" lon="-0.6498">
        <ele>194.32</ele>
        <time>2017-01-14T08:34:37Z</time>
      </trkpt>
      <trkpt lat="43.45449" lon="-0.65">
        <ele>197.69</ele>
        <time>2017-01-14T08:34:54Z</time>
      </trkpt>
      <trkpt lat="43.45467" lon="-0.65015">
        <ele>199.13</ele>
        <time>2017-01-14T08:35:08Z</time>
      </trkpt>
      <trkpt lat="43.45492" lon="-0.65026">
        <ele>203.46</ele>
        <time>2017-01-14T08:35:24Z</time>
      </trkpt>
      <trkpt lat="43.45527" lon="-0.65034">
        <ele>208.26</ele>
        <time>2017-01-14T08:35:42Z</time>
      </trkpt>
      <trkpt lat="43.45561" lon="-0.6504">
        <ele>210.67</ele>
        <time>2017-01-14T08:35:57Z</time>
      </trkpt>
      <trkpt lat="43.45607" lon="-0.65049">
        <ele>211.63</ele>
        <time>2017-01-14T08:36:13Z</time>
      </trkpt>
      <trkpt lat="43.45646" lon="-0.65044">
        <ele>210.67</ele>
        <time>2017-01-14T08:36:26Z</time>
      </trkpt>
      <trkpt lat="43.45677" lon="-0.65011">
        <ele>210.19</ele>
        <time>2017-01-14T08:36:36Z</time>
      </trkpt>
      <trkpt lat="43.45708" lon="-0.6496">
        <ele>207.78</ele>
        <time>2017-01-14T08:36:50Z</time>
      </trkpt>
      <trkpt lat="43.45735" lon="-0.64918">
        <ele>206.34</ele>
        <time>2017-01-14T08:37:04Z</time>
      </trkpt>
      <trkpt lat="43.45735" lon="-0.64919">
        <ele>205.86</ele>
        <time>2017-01-14T08:37:20Z</time>
      </trkpt>
      <trkpt lat="43.45742" lon="-0.64915">
        <ele>205.86</ele>
        <time>2017-01-14T08:37:24Z</time>
      </trkpt>
      <trkpt lat="43.45746" lon="-0.64912">
        <ele>204.9</ele>
        <time>2017-01-14T08:37:33Z</time>
      </trkpt>
      <trkpt lat="43.45744" lon="-0.64916">
        <ele>203.94</ele>
        <time>2017-01-14T08:37:39Z</time>
      </trkpt>
      <trkpt lat="43.45743" lon="-0.64918">
        <ele>204.42</ele>
        <time>2017-01-14T08:37:40Z</time>
      </trkpt>
      <trkpt lat="43.45735" lon="-0.64972">
        <ele>205.86</ele>
        <time>2017-01-14T08:37:53Z</time>
      </trkpt>
      <trkpt lat="43.45748" lon="-0.65051">
        <ele>206.82</ele>
        <time>2017-01-14T08:38:07Z</time>
      </trkpt>
      <trkpt lat="43.45771" lon="-0.65115">
        <ele>208.26</ele>
        <time>2017-01-14T08:38:18Z</time>
      </trkpt>
      <trkpt lat="43.45778" lon="-0.65138">
        <ele>208.74</ele>
        <time>2017-01-14T08:38:22Z</time>
      </trkpt>
      <trkpt lat="43.45781" lon="-0.65145">
        <ele>208.26</ele>
        <time>2017-01-14T08:38:23Z</time>
      </trkpt>
      <trkpt lat="43.45786" lon="-0.65157">
        <ele>208.26</ele>
        <time>2017-01-14T08:38:25Z</time>
      </trkpt>
      <trkpt lat="43.45837" lon="-0.65268">
        <ele>202.01</ele>
        <time>2017-01-14T08:38:39Z</time>
      </trkpt>
      <trkpt lat="43.45911" lon="-0.65404">
        <ele>195.28</ele>
        <time>2017-01-14T08:38:53Z</time>
      </trkpt>
      <trkpt lat="43.45935" lon="-0.65545">
        <ele>188.08</ele>
        <time>2017-01-14T08:39:04Z</time>
      </trkpt>
      <trkpt lat="43.45934" lon="-0.65558">
        <ele>187.59</ele>
        <time>2017-01-14T08:39:05Z</time>
      </trkpt>
      <trkpt lat="43.45933" lon="-0.65695">
        <ele>179.9</ele>
        <time>2017-01-14T08:39:15Z</time>
      </trkpt>
      <trkpt lat="43.45953" lon="-0.658">
        <ele>177.98</ele>
        <time>2017-01-14T08:39:25Z</time>
      </trkpt>
      <trkpt lat="43.45954" lon="-0.65807">
        <ele>177.98</ele>
        <time>2017-01-14T08:39:26Z</time>
      </trkpt>
      <trkpt lat="43.45944" lon="-0.65868">
        <ele>178.94</ele>
        <time>2017-01-14T08:39:38Z</time>
      </trkpt>
      <trkpt lat="43.45921" lon="-0.65944">
        <ele>177.98</ele>
        <time>2017-01-14T08:39:51Z</time>
      </trkpt>
      <trkpt lat="43.45916" lon="-0.65967">
        <ele>177.5</ele>
        <time>2017-01-14T08:39:54Z</time>
      </trkpt>
      <trkpt lat="43.4589" lon="-0.66042">
        <ele>173.17</ele>
        <time>2017-01-14T08:40:02Z</time>
      </trkpt>
      <trkpt lat="43.45889" lon="-0.66053">
        <ele>172.21</ele>
        <time>2017-01-14T08:40:03Z</time>
      </trkpt>
      <trkpt lat="43.45889" lon="-0.66067">
        <ele>171.25</ele>
        <time>2017-01-14T08:40:04Z</time>
      </trkpt>
      <trkpt lat="43.4589" lon="-0.6608">
        <ele>170.77</ele>
        <time>2017-01-14T08:40:05Z</time>
      </trkpt>
      <trkpt lat="43.45892" lon="-0.66093">
        <ele>170.29</ele>
        <time>2017-01-14T08:40:06Z</time>
      </trkpt>
      <trkpt lat="43.45901" lon="-0.66242">
        <ele>166.93</ele>
        <time>2017-01-14T08:40:18Z</time>
      </trkpt>
      <trkpt lat="43.45905" lon="-0.66291">
        <ele>164.52</ele>
        <time>2017-01-14T08:40:22Z</time>
      </trkpt>
      <trkpt lat="43.45908" lon="-0.66304">
        <ele>163.56</ele>
        <time>2017-01-14T08:40:23Z</time>
      </trkpt>
      <trkpt lat="43.45918" lon="-0.66341">
        <ele>162.12</ele>
        <time>2017-01-14T08:40:26Z</time>
      </trkpt>
      <trkpt lat="43.45919" lon="-0.66353">
        <ele>161.64</ele>
        <time>2017-01-14T08:40:27Z</time>
      </trkpt>
      <trkpt lat="43.45921" lon="-0.66507">
        <ele>157.79</ele>
        <time>2017-01-14T08:40:39Z</time>
      </trkpt>
      <trkpt lat="43.45917" lon="-0.66549">
        <ele>157.31</ele>
        <time>2017-01-14T08:40:45Z</time>
      </trkpt>
      <trkpt lat="43.4592" lon="-0.6655">
        <ele>157.31</ele>
        <time>2017-01-14T08:40:46Z</time>
      </trkpt>
      <trkpt lat="43.45924" lon="-0.6655">
        <ele>156.83</ele>
        <time>2017-01-14T08:40:47Z</time>
      </trkpt>
      <trkpt lat="43.45929" lon="-0.66549">
        <ele>155.87</ele>
        <time>2017-01-14T08:40:48Z</time>
      </trkpt>
      <trkpt lat="43.45935" lon="-0.66548">
        <ele>154.91</ele>
        <time>2017-01-14T08:40:49Z</time>
      </trkpt>
      <trkpt lat="43.45943" lon="-0.66546">
        <ele>153.47</ele>
        <time>2017-01-14T08:40:50Z</time>
      </trkpt>
      <trkpt lat="43.45952" lon="-0.66546">
        <ele>152.03</ele>
        <time>2017-01-14T08:40:51Z</time>
      </trkpt>
      <trkpt lat="43.46049" lon="-0.66546">
        <ele>137.13</ele>
        <time>2017-01-14T08:40:59Z</time>
      </trkpt>
      <trkpt lat="43.46106" lon="-0.66551">
        <ele>129.92</ele>
        <time>2017-01-14T08:41:04Z</time>
      </trkpt>
      <trkpt lat="43.46114" lon="-0.66554">
        <ele>128.95</ele>
        <time>2017-01-14T08:41:05Z</time>
      </trkpt>
      <trkpt lat="43.46182" lon="-0.66597">
        <ele>122.22</ele>
        <time>2017-01-14T08:41:13Z</time>
      </trkpt>
      <trkpt lat="43.46188" lon="-0.66602">
        <ele>121.74</ele>
        <time>2017-01-14T08:41:14Z</time>
      </trkpt>
      <trkpt lat="43.46193" lon="-0.66606">
        <ele>121.74</ele>
        <time>2017-01-14T08:41:15Z</time>
      </trkpt>
      <trkpt lat="43.46255" lon="-0.66668">
        <ele>117.9</ele>
        <time>2017-01-14T08:41:26Z</time>
      </trkpt>
      <trkpt lat="43.46261" lon="-0.66671">
        <ele>117.42</ele>
        <time>2017-01-14T08:41:27Z</time>
      </trkpt>
      <trkpt lat="43.46268" lon="-0.66673">
        <ele>116.46</ele>
        <time>2017-01-14T08:41:28Z</time>
      </trkpt>
      <trkpt lat="43.46275" lon="-0.66673">
        <ele>115.98</ele>
        <time>2017-01-14T08:41:29Z</time>
      </trkpt>
      <trkpt lat="43.4628" lon="-0.66673">
        <ele>115.5</ele>
        <time>2017-01-14T08:41:30Z</time>
      </trkpt>
      <trkpt lat="43.463" lon="-0.66657">
        <ele>114.05</ele>
        <time>2017-01-14T08:41:39Z</time>
      </trkpt>
      <trkpt lat="43.46303" lon="-0.66627">
        <ele>113.09</ele>
        <time>2017-01-14T08:41:47Z</time>
      </trkpt>
      <trkpt lat="43.46303" lon="-0.66624">
        <ele>113.09</ele>
        <time>2017-01-14T08:41:48Z</time>
      </trkpt>
      <trkpt lat="43.46304" lon="-0.6662">
        <ele>113.09</ele>
        <time>2017-01-14T08:41:49Z</time>
      </trkpt>
      <trkpt lat="43.46303" lon="-0.66616">
        <ele>113.09</ele>
        <time>2017-01-14T08:41:50Z</time>
      </trkpt>
      <trkpt lat="43.46303" lon="-0.66612">
        <ele>113.09</ele>
        <time>2017-01-14T08:41:51Z</time>
      </trkpt>
      <trkpt lat="43.46303" lon="-0.66608">
        <ele>113.09</ele>
        <time>2017-01-14T08:41:52Z</time>
      </trkpt>
      <trkpt lat="43.46311" lon="-0.66561">
        <ele>111.17</ele>
        <time>2017-01-14T08:42:04Z</time>
      </trkpt>
      <trkpt lat="43.46312" lon="-0.6656">
        <ele>111.17</ele>
        <time>2017-01-14T08:42:05Z</time>
      </trkpt>
      <trkpt lat="43.46313" lon="-0.66558">
        <ele>111.17</ele>
        <time>2017-01-14T08:42:06Z</time>
      </trkpt>
      <trkpt lat="43.46314" lon="-0.66557">
        <ele>110.69</ele>
        <time>2017-01-14T08:42:07Z</time>
      </trkpt>
      <trkpt lat="43.46316" lon="-0.66556">
        <ele>110.69</ele>
        <time>2017-01-14T08:42:08Z</time>
      </trkpt>
      <trkpt lat="43.46336" lon="-0.66549">
        <ele>111.65</ele>
        <time>2017-01-14T08:42:21Z</time>
      </trkpt>
      <trkpt lat="43.46342" lon="-0.66548">
        <ele>112.61</ele>
        <time>2017-01-14T08:42:37Z</time>
      </trkpt>
      <trkpt lat="43.46371" lon="-0.66545">
        <ele>109.73</ele>
        <time>2017-01-14T08:42:47Z</time>
      </trkpt>
      <trkpt lat="43.4641" lon="-0.66522">
        <ele>104.92</ele>
        <time>2017-01-14T08:43:00Z</time>
      </trkpt>
      <trkpt lat="43.4642" lon="-0.66508">
        <ele>103</ele>
        <time>2017-01-14T08:43:06Z</time>
      </trkpt>
      <trkpt lat="43.46421" lon="-0.66507">
        <ele>103</ele>
        <time>2017-01-14T08:43:07Z</time>
      </trkpt>
      <trkpt lat="43.46424" lon="-0.66507">
        <ele>103</ele>
        <time>2017-01-14T08:43:08Z</time>
      </trkpt>
      <trkpt lat="43.46426" lon="-0.66507">
        <ele>103</ele>
        <time>2017-01-14T08:43:09Z</time>
      </trkpt>
      <trkpt lat="43.46428" lon="-0.66508">
        <ele>103.48</ele>
        <time>2017-01-14T08:43:10Z</time>
      </trkpt>
      <trkpt lat="43.4643" lon="-0.6651">
        <ele>103.48</ele>
        <time>2017-01-14T08:43:11Z</time>
      </trkpt>
      <trkpt lat="43.46432" lon="-0.66512">
        <ele>103.96</ele>
        <time>2017-01-14T08:43:12Z</time>
      </trkpt>
      <trkpt lat="43.46433" lon="-0.66514">
        <ele>103.96</ele>
        <time>2017-01-14T08:43:13Z</time>
      </trkpt>
      <trkpt lat="43.46434" lon="-0.66516">
        <ele>104.44</ele>
        <time>2017-01-14T08:43:14Z</time>
      </trkpt>
      <trkpt lat="43.46439" lon="-0.66523">
        <ele>105.88</ele>
        <time>2017-01-14T08:43:18Z</time>
      </trkpt>
      <trkpt lat="43.4644" lon="-0.66525">
        <ele>106.36</ele>
        <time>2017-01-14T08:43:19Z</time>
      </trkpt>
      <trkpt lat="43.46441" lon="-0.66527">
        <ele>106.36</ele>
        <time>2017-01-14T08:43:20Z</time>
      </trkpt>
      <trkpt lat="43.46473" lon="-0.66543">
        <ele>107.32</ele>
        <time>2017-01-14T08:43:36Z</time>
      </trkpt>
      <trkpt lat="43.46482" lon="-0.6654">
        <ele>106.84</ele>
        <time>2017-01-14T08:43:40Z</time>
      </trkpt>
      <trkpt lat="43.46483" lon="-0.66538">
        <ele>106.84</ele>
        <time>2017-01-14T08:43:41Z</time>
      </trkpt>
      <trkpt lat="43.46485" lon="-0.66537">
        <ele>106.84</ele>
        <time>2017-01-14T08:43:42Z</time>
      </trkpt>
      <trkpt lat="43.46486" lon="-0.66535">
        <ele>106.84</ele>
        <time>2017-01-14T08:43:43Z</time>
      </trkpt>
      <trkpt lat="43.46486" lon="-0.66534">
        <ele>106.84</ele>
        <time>2017-01-14T08:43:44Z</time>
      </trkpt>
      <trkpt lat="43.46487" lon="-0.66532">
        <ele>106.84</ele>
        <time>2017-01-14T08:43:45Z</time>
      </trkpt>
      <trkpt lat="43.46488" lon="-0.6653">
        <ele>106.84</ele>
        <time>2017-01-14T08:43:46Z</time>
      </trkpt>
      <trkpt lat="43.46489" lon="-0.66529">
        <ele>106.84</ele>
        <time>2017-01-14T08:43:47Z</time>
      </trkpt>
      <trkpt lat="43.46501" lon="-0.66501">
        <ele>106.36</ele>
        <time>2017-01-14T08:44:03Z</time>
      </trkpt>
      <trkpt lat="43.46505" lon="-0.6648">
        <ele>104.92</ele>
        <time>2017-01-14T08:44:18Z</time>
      </trkpt>
      <trkpt lat="43.46507" lon="-0.66476">
        <ele>105.88</ele>
        <time>2017-01-14T08:44:39Z</time>
      </trkpt>
      <trkpt lat="43.46511" lon="-0.66465">
        <ele>106.36</ele>
        <time>2017-01-14T08:44:51Z</time>
      </trkpt>
      <trkpt lat="43.46509" lon="-0.66465">
        <ele>105.88</ele>
        <time>2017-01-14T08:45:03Z</time>
      </trkpt>
      <trkpt lat="43.46506" lon="-0.66474">
        <ele>103.96</ele>
        <time>2017-01-14T08:45:14Z</time>
      </trkpt>
      <trkpt lat="43.46506" lon="-0.66475">
        <ele>103.96</ele>
        <time>2017-01-14T08:45:15Z</time>
      </trkpt>
      <trkpt lat="43.46499" lon="-0.66508">
        <ele>105.88</ele>
        <time>2017-01-14T08:45:29Z</time>
      </trkpt>
      <trkpt lat="43.46491" lon="-0.66521">
        <ele>107.32</ele>
        <time>2017-01-14T08:45:37Z</time>
      </trkpt>
      <trkpt lat="43.46486" lon="-0.66538">
        <ele>107.32</ele>
        <time>2017-01-14T08:45:50Z</time>
      </trkpt>
      <trkpt lat="43.46487" lon="-0.66538">
        <ele>106.84</ele>
        <time>2017-01-14T08:45:54Z</time>
      </trkpt>
      <trkpt lat="43.4649" lon="-0.66538">
        <ele>106.36</ele>
        <time>2017-01-14T08:45:56Z</time>
      </trkpt>
      <trkpt lat="43.46492" lon="-0.66537">
        <ele>106.36</ele>
        <time>2017-01-14T08:45:57Z</time>
      </trkpt>
      <trkpt lat="43.46494" lon="-0.66535">
        <ele>105.88</ele>
        <time>2017-01-14T08:45:58Z</time>
      </trkpt>
      <trkpt lat="43.46495" lon="-0.66534">
        <ele>105.88</ele>
        <time>2017-01-14T08:45:59Z</time>
      </trkpt>
      <trkpt lat="43.46497" lon="-0.66532">
        <ele>105.88</ele>
        <time>2017-01-14T08:46:00Z</time>
      </trkpt>
      <trkpt lat="43.46497" lon="-0.6653">
        <ele>105.88</ele>
        <time>2017-01-14T08:46:01Z</time>
      </trkpt>
      <trkpt lat="43.46498" lon="-0.66529">
        <ele>105.88</ele>
        <time>2017-01-14T08:46:02Z</time>
      </trkpt>
      <trkpt lat="43.465" lon="-0.66527">
        <ele>105.88</ele>
        <time>2017-01-14T08:46:03Z</time>
      </trkpt>
      <trkpt lat="43.46501" lon="-0.66526">
        <ele>105.88</ele>
        <time>2017-01-14T08:46:04Z</time>
      </trkpt>
      <trkpt lat="43.465" lon="-0.66524">
        <ele>103.96</ele>
        <time>2017-01-14T08:46:15Z</time>
      </trkpt>
      <trkpt lat="43.46499" lon="-0.66525">
        <ele>103.96</ele>
        <time>2017-01-14T08:46:16Z</time>
      </trkpt>
      <trkpt lat="43.4648" lon="-0.66541">
        <ele>103.96</ele>
        <time>2017-01-14T08:46:31Z</time>
      </trkpt>
      <trkpt lat="43.46452" lon="-0.66534">
        <ele>104.44</ele>
        <time>2017-01-14T08:46:46Z</time>
      </trkpt>
      <trkpt lat="43.46429" lon="-0.66501">
        <ele>101.56</ele>
        <time>2017-01-14T08:47:00Z</time>
      </trkpt>
      <trkpt lat="43.46428" lon="-0.66499">
        <ele>101.56</ele>
        <time>2017-01-14T08:47:01Z</time>
      </trkpt>
      <trkpt lat="43.46428" lon="-0.66497">
        <ele>101.56</ele>
        <time>2017-01-14T08:47:02Z</time>
      </trkpt>
      <trkpt lat="43.46428" lon="-0.66495">
        <ele>101.56</ele>
        <time>2017-01-14T08:47:03Z</time>
      </trkpt>
      <trkpt lat="43.46428" lon="-0.66493">
        <ele>101.56</ele>
        <time>2017-01-14T08:47:04Z</time>
      </trkpt>
      <trkpt lat="43.46428" lon="-0.66491">
        <ele>101.56</ele>
        <time>2017-01-14T08:47:05Z</time>
      </trkpt>
      <trkpt lat="43.46429" lon="-0.66489">
        <ele>101.56</ele>
        <time>2017-01-14T08:47:06Z</time>
      </trkpt>
      <trkpt lat="43.46429" lon="-0.66487">
        <ele>101.56</ele>
        <time>2017-01-14T08:47:07Z</time>
      </trkpt>
      <trkpt lat="43.46439" lon="-0.66456">
        <ele>101.08</ele>
        <time>2017-01-14T08:47:22Z</time>
      </trkpt>
      <trkpt lat="43.46446" lon="-0.66446">
        <ele>103.48</ele>
        <time>2017-01-14T08:47:30Z</time>
      </trkpt>
      <trkpt lat="43.46446" lon="-0.66444">
        <ele>103.96</ele>
        <time>2017-01-14T08:47:31Z</time>
      </trkpt>
      <trkpt lat="43.46447" lon="-0.66443">
        <ele>103.96</ele>
        <time>2017-01-14T08:47:32Z</time>
      </trkpt>
      <trkpt lat="43.46448" lon="-0.66441">
        <ele>104.44</ele>
        <time>2017-01-14T08:47:33Z</time>
      </trkpt>
      <trkpt lat="43.46448" lon="-0.6644">
        <ele>104.44</ele>
        <time>2017-01-14T08:47:34Z</time>
      </trkpt>
      <trkpt lat="43.46449" lon="-0.66438">
        <ele>104.44</ele>
        <time>2017-01-14T08:47:35Z</time>
      </trkpt>
      <trkpt lat="43.4645" lon="-0.66436">
        <ele>104.92</ele>
        <time>2017-01-14T08:47:36Z</time>
      </trkpt>
      <trkpt lat="43.46451" lon="-0.66435">
        <ele>104.92</ele>
        <time>2017-01-14T08:47:37Z</time>
      </trkpt>
      <trkpt lat="43.46451" lon="-0.66433">
        <ele>104.92</ele>
        <time>2017-01-14T08:47:38Z</time>
      </trkpt>
      <trkpt lat="43.46452" lon="-0.66431">
        <ele>105.4</ele>
        <time>2017-01-14T08:47:39Z</time>
      </trkpt>
      <trkpt lat="43.46453" lon="-0.6643">
        <ele>105.4</ele>
        <time>2017-01-14T08:47:40Z</time>
      </trkpt>
      <trkpt lat="43.46454" lon="-0.66428">
        <ele>105.88</ele>
        <time>2017-01-14T08:47:41Z</time>
      </trkpt>
      <trkpt lat="43.46471" lon="-0.66413">
        <ele>109.73</ele>
        <time>2017-01-14T08:47:56Z</time>
      </trkpt>
      <trkpt lat="43.46488" lon="-0.66407">
        <ele>111.17</ele>
        <time>2017-01-14T08:48:09Z</time>
      </trkpt>
      <trkpt lat="43.46489" lon="-0.66406">
        <ele>111.17</ele>
        <time>2017-01-14T08:48:10Z</time>
      </trkpt>
      <trkpt lat="43.4649" lon="-0.66406">
        <ele>111.17</ele>
        <time>2017-01-14T08:48:11Z</time>
      </trkpt>
      <trkpt lat="43.46492" lon="-0.66405">
        <ele>111.65</ele>
        <time>2017-01-14T08:48:12Z</time>
      </trkpt>
      <trkpt lat="43.46493" lon="-0.66404">
        <ele>111.65</ele>
        <time>2017-01-14T08:48:13Z</time>
      </trkpt>
      <trkpt lat="43.46494" lon="-0.66404">
        <ele>111.65</ele>
        <time>2017-01-14T08:48:14Z</time>
      </trkpt>
      <trkpt lat="43.46496" lon="-0.66403">
        <ele>111.65</ele>
        <time>2017-01-14T08:48:15Z</time>
      </trkpt>
      <trkpt lat="43.46497" lon="-0.66403">
        <ele>111.65</ele>
        <time>2017-01-14T08:48:16Z</time>
      </trkpt>
      <trkpt lat="43.46498" lon="-0.66402">
        <ele>111.65</ele>
        <time>2017-01-14T08:48:17Z</time>
      </trkpt>
      <trkpt lat="43.46499" lon="-0.66401">
        <ele>112.13</ele>
        <time>2017-01-14T08:48:18Z</time>
      </trkpt>
      <trkpt lat="43.46501" lon="-0.664">
        <ele>112.13</ele>
        <time>2017-01-14T08:48:19Z</time>
      </trkpt>
      <trkpt lat="43.46502" lon="-0.664">
        <ele>112.13</ele>
        <time>2017-01-14T08:48:20Z</time>
      </trkpt>
      <trkpt lat="43.46504" lon="-0.66399">
        <ele>112.13</ele>
        <time>2017-01-14T08:48:21Z</time>
      </trkpt>
      <trkpt lat="43.46505" lon="-0.66398">
        <ele>112.13</ele>
        <time>2017-01-14T08:48:22Z</time>
      </trkpt>
      <trkpt lat="43.46507" lon="-0.66397">
        <ele>111.65</ele>
        <time>2017-01-14T08:48:23Z</time>
      </trkpt>
      <trkpt lat="43.46511" lon="-0.66394">
        <ele>111.65</ele>
        <time>2017-01-14T08:48:26Z</time>
      </trkpt>
      <trkpt lat="43.46515" lon="-0.66393">
        <ele>111.17</ele>
        <time>2017-01-14T08:48:28Z</time>
      </trkpt>
      <trkpt lat="43.46517" lon="-0.66394">
        <ele>111.17</ele>
        <time>2017-01-14T08:48:29Z</time>
      </trkpt>
      <trkpt lat="43.4652" lon="-0.66394">
        <ele>110.69</ele>
        <time>2017-01-14T08:48:30Z</time>
      </trkpt>
      <trkpt lat="43.46524" lon="-0.66394">
        <ele>110.21</ele>
        <time>2017-01-14T08:48:31Z</time>
      </trkpt>
      <trkpt lat="43.46528" lon="-0.66393">
        <ele>110.21</ele>
        <time>2017-01-14T08:48:32Z</time>
      </trkpt>
      <trkpt lat="43.46532" lon="-0.66391">
        <ele>109.73</ele>
        <time>2017-01-14T08:48:33Z</time>
      </trkpt>
      <trkpt lat="43.46557" lon="-0.66389">
        <ele>110.21</ele>
        <time>2017-01-14T08:48:44Z</time>
      </trkpt>
      <trkpt lat="43.46583" lon="-0.66383">
        <ele>110.69</ele>
        <time>2017-01-14T08:48:57Z</time>
      </trkpt>
      <trkpt lat="43.46605" lon="-0.66375">
        <ele>109.25</ele>
        <time>2017-01-14T08:49:10Z</time>
      </trkpt>
      <trkpt lat="43.46624" lon="-0.66368">
        <ele>111.17</ele>
        <time>2017-01-14T08:49:17Z</time>
      </trkpt>
      <trkpt lat="43.46646" lon="-0.66367">
        <ele>110.21</ele>
        <time>2017-01-14T08:49:28Z</time>
      </trkpt>
      <trkpt lat="43.46649" lon="-0.66364">
        <ele>110.21</ele>
        <time>2017-01-14T08:49:30Z</time>
      </trkpt>
      <trkpt lat="43.46653" lon="-0.6636">
        <ele>110.21</ele>
        <time>2017-01-14T08:49:33Z</time>
      </trkpt>
      <trkpt lat="43.46664" lon="-0.6635">
        <ele>110.21</ele>
        <time>2017-01-14T08:49:42Z</time>
      </trkpt>
      <trkpt lat="43.4667" lon="-0.66348">
        <ele>110.21</ele>
        <time>2017-01-14T08:49:45Z</time>
      </trkpt>
      <trkpt lat="43.46677" lon="-0.66349">
        <ele>111.17</ele>
        <time>2017-01-14T08:49:49Z</time>
      </trkpt>
      <trkpt lat="43.46698" lon="-0.66334">
        <ele>112.13</ele>
        <time>2017-01-14T08:50:03Z</time>
      </trkpt>
      <trkpt lat="43.4672" lon="-0.66324">
        <ele>115.01</ele>
        <time>2017-01-14T08:50:17Z</time>
      </trkpt>
      <trkpt lat="43.46729" lon="-0.66311">
        <ele>116.46</ele>
        <time>2017-01-14T08:50:26Z</time>
      </trkpt>
      <trkpt lat="43.4674" lon="-0.663">
        <ele>117.9</ele>
        <time>2017-01-14T08:50:34Z</time>
      </trkpt>
      <trkpt lat="43.46774" lon="-0.66288">
        <ele>119.82</ele>
        <time>2017-01-14T08:50:50Z</time>
      </trkpt>
      <trkpt lat="43.46797" lon="-0.66273">
        <ele>119.34</ele>
        <time>2017-01-14T08:51:02Z</time>
      </trkpt>
      <trkpt lat="43.46817" lon="-0.66254">
        <ele>121.26</ele>
        <time>2017-01-14T08:51:16Z</time>
      </trkpt>
      <trkpt lat="43.46822" lon="-0.66248">
        <ele>126.07</ele>
        <time>2017-01-14T08:51:30Z</time>
      </trkpt>
      <trkpt lat="43.46826" lon="-0.66242">
        <ele>122.71</ele>
        <time>2017-01-14T08:51:46Z</time>
      </trkpt>
      <trkpt lat="43.46833" lon="-0.66231">
        <ele>121.26</ele>
        <time>2017-01-14T08:51:54Z</time>
      </trkpt>
      <trkpt lat="43.46836" lon="-0.66229">
        <ele>121.26</ele>
        <time>2017-01-14T08:51:57Z</time>
      </trkpt>
      <trkpt lat="43.46839" lon="-0.66224">
        <ele>121.26</ele>
        <time>2017-01-14T08:52:00Z</time>
      </trkpt>
      <trkpt lat="43.46843" lon="-0.66213">
        <ele>119.82</ele>
        <time>2017-01-14T08:52:04Z</time>
      </trkpt>
      <trkpt lat="43.4685" lon="-0.66196">
        <ele>118.86</ele>
        <time>2017-01-14T08:52:10Z</time>
      </trkpt>
      <trkpt lat="43.46873" lon="-0.66177">
        <ele>117.9</ele>
        <time>2017-01-14T08:52:22Z</time>
      </trkpt>
      <trkpt lat="43.46899" lon="-0.66172">
        <ele>116.46</ele>
        <time>2017-01-14T08:52:31Z</time>
      </trkpt>
      <trkpt lat="43.46908" lon="-0.66144">
        <ele>117.42</ele>
        <time>2017-01-14T08:52:43Z</time>
      </trkpt>
      <trkpt lat="43.4691" lon="-0.66112">
        <ele>115.98</ele>
        <time>2017-01-14T08:52:54Z</time>
      </trkpt>
      <trkpt lat="43.4691" lon="-0.66094">
        <ele>115.01</ele>
        <time>2017-01-14T08:53:00Z</time>
      </trkpt>
      <trkpt lat="43.46913" lon="-0.66083">
        <ele>114.53</ele>
        <time>2017-01-14T08:53:04Z</time>
      </trkpt>
      <trkpt lat="43.46925" lon="-0.66074">
        <ele>114.05</ele>
        <time>2017-01-14T08:53:10Z</time>
      </trkpt>
      <trkpt lat="43.46927" lon="-0.66065">
        <ele>112.61</ele>
        <time>2017-01-14T08:53:14Z</time>
      </trkpt>
      <trkpt lat="43.46926" lon="-0.66057">
        <ele>112.13</ele>
        <time>2017-01-14T08:53:17Z</time>
      </trkpt>
      <trkpt lat="43.46923" lon="-0.66015">
        <ele>113.09</ele>
        <time>2017-01-14T08:53:31Z</time>
      </trkpt>
      <trkpt lat="43.46925" lon="-0.66009">
        <ele>114.05</ele>
        <time>2017-01-14T08:53:35Z</time>
      </trkpt>
      <trkpt lat="43.46929" lon="-0.66">
        <ele>114.05</ele>
        <time>2017-01-14T08:53:39Z</time>
      </trkpt>
      <trkpt lat="43.46938" lon="-0.65981">
        <ele>115.01</ele>
        <time>2017-01-14T08:53:50Z</time>
      </trkpt>
      <trkpt lat="43.46934" lon="-0.65969">
        <ele>115.01</ele>
        <time>2017-01-14T08:53:56Z</time>
      </trkpt>
      <trkpt lat="43.46931" lon="-0.6596">
        <ele>115.5</ele>
        <time>2017-01-14T08:54:00Z</time>
      </trkpt>
      <trkpt lat="43.46928" lon="-0.65943">
        <ele>115.5</ele>
        <time>2017-01-14T08:54:08Z</time>
      </trkpt>
      <trkpt lat="43.46927" lon="-0.65939">
        <ele>115.5</ele>
        <time>2017-01-14T08:54:09Z</time>
      </trkpt>
      <trkpt lat="43.46927" lon="-0.65936">
        <ele>115.5</ele>
        <time>2017-01-14T08:54:10Z</time>
      </trkpt>
      <trkpt lat="43.46927" lon="-0.65933">
        <ele>115.5</ele>
        <time>2017-01-14T08:54:11Z</time>
      </trkpt>
      <trkpt lat="43.46927" lon="-0.65931">
        <ele>115.98</ele>
        <time>2017-01-14T08:54:12Z</time>
      </trkpt>
      <trkpt lat="43.46921" lon="-0.65897">
        <ele>116.94</ele>
        <time>2017-01-14T08:54:23Z</time>
      </trkpt>
      <trkpt lat="43.46915" lon="-0.65866">
        <ele>119.34</ele>
        <time>2017-01-14T08:54:34Z</time>
      </trkpt>
      <trkpt lat="43.46915" lon="-0.65863">
        <ele>119.34</ele>
        <time>2017-01-14T08:54:35Z</time>
      </trkpt>
      <trkpt lat="43.4691" lon="-0.65832">
        <ele>124.15</ele>
        <time>2017-01-14T08:54:50Z</time>
      </trkpt>
      <trkpt lat="43.46908" lon="-0.65819">
        <ele>125.11</ele>
        <time>2017-01-14T08:54:55Z</time>
      </trkpt>
      <trkpt lat="43.46908" lon="-0.65817">
        <ele>125.11</ele>
        <time>2017-01-14T08:54:56Z</time>
      </trkpt>
      <trkpt lat="43.46905" lon="-0.65809">
        <ele>125.11</ele>
        <time>2017-01-14T08:55:01Z</time>
      </trkpt>
      <trkpt lat="43.46904" lon="-0.65807">
        <ele>125.59</ele>
        <time>2017-01-14T08:55:02Z</time>
      </trkpt>
      <trkpt lat="43.46903" lon="-0.65806">
        <ele>125.59</ele>
        <time>2017-01-14T08:55:03Z</time>
      </trkpt>
      <trkpt lat="43.46902" lon="-0.65803">
        <ele>125.59</ele>
        <time>2017-01-14T08:55:04Z</time>
      </trkpt>
      <trkpt lat="43.46901" lon="-0.65801">
        <ele>125.59</ele>
        <time>2017-01-14T08:55:05Z</time>
      </trkpt>
      <trkpt lat="43.469" lon="-0.65799">
        <ele>125.59</ele>
        <time>2017-01-14T08:55:06Z</time>
      </trkpt>
      <trkpt lat="43.469" lon="-0.65796">
        <ele>125.11</ele>
        <time>2017-01-14T08:55:07Z</time>
      </trkpt>
      <trkpt lat="43.46899" lon="-0.65794">
        <ele>125.11</ele>
        <time>2017-01-14T08:55:08Z</time>
      </trkpt>
      <trkpt lat="43.46899" lon="-0.65791">
        <ele>125.11</ele>
        <time>2017-01-14T08:55:09Z</time>
      </trkpt>
      <trkpt lat="43.46899" lon="-0.65789">
        <ele>125.11</ele>
        <time>2017-01-14T08:55:10Z</time>
      </trkpt>
      <trkpt lat="43.46892" lon="-0.65757">
        <ele>124.63</ele>
        <time>2017-01-14T08:55:22Z</time>
      </trkpt>
      <trkpt lat="43.46896" lon="-0.65737">
        <ele>125.11</ele>
        <time>2017-01-14T08:55:31Z</time>
      </trkpt>
      <trkpt lat="43.46896" lon="-0.65734">
        <ele>125.11</ele>
        <time>2017-01-14T08:55:32Z</time>
      </trkpt>
      <trkpt lat="43.46893" lon="-0.65711">
        <ele>126.07</ele>
        <time>2017-01-14T08:55:40Z</time>
      </trkpt>
      <trkpt lat="43.46893" lon="-0.65708">
        <ele>126.07</ele>
        <time>2017-01-14T08:55:41Z</time>
      </trkpt>
      <trkpt lat="43.46892" lon="-0.65705">
        <ele>126.07</ele>
        <time>2017-01-14T08:55:42Z</time>
      </trkpt>
      <trkpt lat="43.46892" lon="-0.65703">
        <ele>126.07</ele>
        <time>2017-01-14T08:55:43Z</time>
      </trkpt>
      <trkpt lat="43.46892" lon="-0.657">
        <ele>126.07</ele>
        <time>2017-01-14T08:55:44Z</time>
      </trkpt>
      <trkpt lat="43.46891" lon="-0.65696">
        <ele>126.07</ele>
        <time>2017-01-14T08:55:45Z</time>
      </trkpt>
      <trkpt lat="43.46891" lon="-0.65693">
        <ele>126.07</ele>
        <time>2017-01-14T08:55:46Z</time>
      </trkpt>
      <trkpt lat="43.46891" lon="-0.6569">
        <ele>126.07</ele>
        <time>2017-01-14T08:55:47Z</time>
      </trkpt>
      <trkpt lat="43.4689" lon="-0.65687">
        <ele>126.07</ele>
        <time>2017-01-14T08:55:48Z</time>
      </trkpt>
      <trkpt lat="43.46885" lon="-0.65638">
        <ele>126.55</ele>
        <time>2017-01-14T08:56:03Z</time>
      </trkpt>
      <trkpt lat="43.46888" lon="-0.65595">
        <ele>126.55</ele>
        <time>2017-01-14T08:56:17Z</time>
      </trkpt>
      <trkpt lat="43.46887" lon="-0.65542">
        <ele>124.63</ele>
        <time>2017-01-14T08:56:34Z</time>
      </trkpt>
      <trkpt lat="43.46887" lon="-0.6551">
        <ele>125.59</ele>
        <time>2017-01-14T08:56:43Z</time>
      </trkpt>
      <trkpt lat="43.46887" lon="-0.65506">
        <ele>125.59</ele>
        <time>2017-01-14T08:56:44Z</time>
      </trkpt>
      <trkpt lat="43.46887" lon="-0.65503">
        <ele>125.59</ele>
        <time>2017-01-14T08:56:45Z</time>
      </trkpt>
      <trkpt lat="43.46886" lon="-0.65469">
        <ele>126.07</ele>
        <time>2017-01-14T08:56:57Z</time>
      </trkpt>
      <trkpt lat="43.46884" lon="-0.65459">
        <ele>127.03</ele>
        <time>2017-01-14T08:57:02Z</time>
      </trkpt>
      <trkpt lat="43.46884" lon="-0.65457">
        <ele>127.51</ele>
        <time>2017-01-14T08:57:03Z</time>
      </trkpt>
      <trkpt lat="43.46884" lon="-0.65454">
        <ele>127.99</ele>
        <time>2017-01-14T08:57:04Z</time>
      </trkpt>
      <trkpt lat="43.46884" lon="-0.65452">
        <ele>127.99</ele>
        <time>2017-01-14T08:57:05Z</time>
      </trkpt>
      <trkpt lat="43.46884" lon="-0.6545">
        <ele>127.99</ele>
        <time>2017-01-14T08:57:06Z</time>
      </trkpt>
      <trkpt lat="43.46884" lon="-0.65448">
        <ele>128.47</ele>
        <time>2017-01-14T08:57:07Z</time>
      </trkpt>
      <trkpt lat="43.46884" lon="-0.65445">
        <ele>128.95</ele>
        <time>2017-01-14T08:57:08Z</time>
      </trkpt>
      <trkpt lat="43.46883" lon="-0.65442">
        <ele>128.95</ele>
        <time>2017-01-14T08:57:09Z</time>
      </trkpt>
      <trkpt lat="43.46881" lon="-0.65431">
        <ele>129.92</ele>
        <time>2017-01-14T08:57:14Z</time>
      </trkpt>
      <trkpt lat="43.4688" lon="-0.65429">
        <ele>130.4</ele>
        <time>2017-01-14T08:57:15Z</time>
      </trkpt>
      <trkpt lat="43.4688" lon="-0.65426">
        <ele>130.4</ele>
        <time>2017-01-14T08:57:16Z</time>
      </trkpt>
      <trkpt lat="43.46875" lon="-0.65393">
        <ele>138.09</ele>
        <time>2017-01-14T08:57:30Z</time>
      </trkpt>
      <trkpt lat="43.46873" lon="-0.65369">
        <ele>140.01</ele>
        <time>2017-01-14T08:57:44Z</time>
      </trkpt>
      <trkpt lat="43.4687" lon="-0.65346">
        <ele>146.26</ele>
        <time>2017-01-14T08:58:03Z</time>
      </trkpt>
      <trkpt lat="43.46872" lon="-0.65343">
        <ele>143.85</ele>
        <time>2017-01-14T08:58:30Z</time>
      </trkpt>
      <trkpt lat="43.46868" lon="-0.65325">
        <ele>146.26</ele>
        <time>2017-01-14T08:58:43Z</time>
      </trkpt>
      <trkpt lat="43.46867" lon="-0.65296">
        <ele>151.06</ele>
        <time>2017-01-14T08:59:00Z</time>
      </trkpt>
      <trkpt lat="43.46866" lon="-0.65288">
        <ele>152.99</ele>
        <time>2017-01-14T08:59:05Z</time>
      </trkpt>
      <trkpt lat="43.46865" lon="-0.65287">
        <ele>153.47</ele>
        <time>2017-01-14T08:59:06Z</time>
      </trkpt>
      <trkpt lat="43.46852" lon="-0.65259">
        <ele>157.31</ele>
        <time>2017-01-14T08:59:22Z</time>
      </trkpt>
      <trkpt lat="43.46851" lon="-0.65257">
        <ele>157.79</ele>
        <time>2017-01-14T08:59:23Z</time>
      </trkpt>
      <trkpt lat="43.46839" lon="-0.65234">
        <ele>160.2</ele>
        <time>2017-01-14T08:59:38Z</time>
      </trkpt>
      <trkpt lat="43.46829" lon="-0.65214">
        <ele>162.12</ele>
        <time>2017-01-14T08:59:52Z</time>
      </trkpt>
      <trkpt lat="43.46825" lon="-0.65201">
        <ele>163.56</ele>
        <time>2017-01-14T09:00:04Z</time>
      </trkpt>
      <trkpt lat="43.46821" lon="-0.65187">
        <ele>166.45</ele>
        <time>2017-01-14T09:00:16Z</time>
      </trkpt>
      <trkpt lat="43.4681" lon="-0.65181">
        <ele>169.33</ele>
        <time>2017-01-14T09:00:30Z</time>
      </trkpt>
      <trkpt lat="43.46806" lon="-0.65176">
        <ele>165.96</ele>
        <time>2017-01-14T09:00:46Z</time>
      </trkpt>
      <trkpt lat="43.46802" lon="-0.65169">
        <ele>167.89</ele>
        <time>2017-01-14T09:01:03Z</time>
      </trkpt>
      <trkpt lat="43.46793" lon="-0.6515">
        <ele>171.73</ele>
        <time>2017-01-14T09:01:18Z</time>
      </trkpt>
      <trkpt lat="43.46789" lon="-0.65133">
        <ele>172.69</ele>
        <time>2017-01-14T09:01:31Z</time>
      </trkpt>
      <trkpt lat="43.46785" lon="-0.65126">
        <ele>174.14</ele>
        <time>2017-01-14T09:01:44Z</time>
      </trkpt>
      <trkpt lat="43.46783" lon="-0.65122">
        <ele>174.62</ele>
        <time>2017-01-14T09:01:48Z</time>
      </trkpt>
      <trkpt lat="43.46778" lon="-0.6511">
        <ele>176.06</ele>
        <time>2017-01-14T09:01:55Z</time>
      </trkpt>
      <trkpt lat="43.46777" lon="-0.65108">
        <ele>176.54</ele>
        <time>2017-01-14T09:01:56Z</time>
      </trkpt>
      <trkpt lat="43.46761" lon="-0.65083">
        <ele>178.46</ele>
        <time>2017-01-14T09:02:11Z</time>
      </trkpt>
      <trkpt lat="43.46757" lon="-0.65076">
        <ele>178.46</ele>
        <time>2017-01-14T09:02:16Z</time>
      </trkpt>
      <trkpt lat="43.46757" lon="-0.65075">
        <ele>178.46</ele>
        <time>2017-01-14T09:02:17Z</time>
      </trkpt>
      <trkpt lat="43.46756" lon="-0.65074">
        <ele>178.94</ele>
        <time>2017-01-14T09:02:18Z</time>
      </trkpt>
      <trkpt lat="43.46755" lon="-0.65072">
        <ele>178.94</ele>
        <time>2017-01-14T09:02:19Z</time>
      </trkpt>
      <trkpt lat="43.46755" lon="-0.65071">
        <ele>178.94</ele>
        <time>2017-01-14T09:02:20Z</time>
      </trkpt>
      <trkpt lat="43.46754" lon="-0.6507">
        <ele>178.94</ele>
        <time>2017-01-14T09:02:21Z</time>
      </trkpt>
      <trkpt lat="43.46753" lon="-0.65068">
        <ele>178.46</ele>
        <time>2017-01-14T09:02:22Z</time>
      </trkpt>
      <trkpt lat="43.46747" lon="-0.65053">
        <ele>178.46</ele>
        <time>2017-01-14T09:02:32Z</time>
      </trkpt>
      <trkpt lat="43.46743" lon="-0.6505">
        <ele>178.94</ele>
        <time>2017-01-14T09:02:36Z</time>
      </trkpt>
      <trkpt lat="43.46742" lon="-0.65048">
        <ele>179.42</ele>
        <time>2017-01-14T09:02:37Z</time>
      </trkpt>
      <trkpt lat="43.46723" lon="-0.65037">
        <ele>182.31</ele>
        <time>2017-01-14T09:02:53Z</time>
      </trkpt>
      <trkpt lat="43.46717" lon="-0.65033">
        <ele>183.27</ele>
        <time>2017-01-14T09:02:59Z</time>
      </trkpt>
      <trkpt lat="43.46715" lon="-0.65033">
        <ele>183.27</ele>
        <time>2017-01-14T09:03:00Z</time>
      </trkpt>
      <trkpt lat="43.46714" lon="-0.65033">
        <ele>183.75</ele>
        <time>2017-01-14T09:03:01Z</time>
      </trkpt>
      <trkpt lat="43.467" lon="-0.65025">
        <ele>185.67</ele>
        <time>2017-01-14T09:03:14Z</time>
      </trkpt>
      <trkpt lat="43.4669" lon="-0.65022">
        <ele>188.08</ele>
        <time>2017-01-14T09:03:27Z</time>
      </trkpt>
      <trkpt lat="43.46685" lon="-0.6502">
        <ele>187.59</ele>
        <time>2017-01-14T09:03:37Z</time>
      </trkpt>
      <trkpt lat="43.46672" lon="-0.65017">
        <ele>188.08</ele>
        <time>2017-01-14T09:03:50Z</time>
      </trkpt>
      <trkpt lat="43.46661" lon="-0.65014">
        <ele>188.56</ele>
        <time>2017-01-14T09:03:59Z</time>
      </trkpt>
      <trkpt lat="43.4666" lon="-0.65015">
        <ele>189.04</ele>
        <time>2017-01-14T09:04:00Z</time>
      </trkpt>
      <trkpt lat="43.46642" lon="-0.65015">
        <ele>188.56</ele>
        <time>2017-01-14T09:04:12Z</time>
      </trkpt>
      <trkpt lat="43.46628" lon="-0.64986">
        <ele>190.48</ele>
        <time>2017-01-14T09:04:25Z</time>
      </trkpt>
      <trkpt lat="43.46609" lon="-0.64922">
        <ele>190.96</ele>
        <time>2017-01-14T09:04:41Z</time>
      </trkpt>
      <trkpt lat="43.46591" lon="-0.64856">
        <ele>189.52</ele>
        <time>2017-01-14T09:04:56Z</time>
      </trkpt>
      <trkpt lat="43.46585" lon="-0.64788">
        <ele>192.88</ele>
        <time>2017-01-14T09:05:12Z</time>
      </trkpt>
      <trkpt lat="43.46586" lon="-0.64732">
        <ele>193.84</ele>
        <time>2017-01-14T09:05:27Z</time>
      </trkpt>
      <trkpt lat="43.4659" lon="-0.64693">
        <ele>195.77</ele>
        <time>2017-01-14T09:05:42Z</time>
      </trkpt>
      <trkpt lat="43.46592" lon="-0.64667">
        <ele>197.69</ele>
        <time>2017-01-14T09:05:55Z</time>
      </trkpt>
      <trkpt lat="43.46598" lon="-0.64635">
        <ele>200.57</ele>
        <time>2017-01-14T09:06:11Z</time>
      </trkpt>
      <trkpt lat="43.46605" lon="-0.64594">
        <ele>204.42</ele>
        <time>2017-01-14T09:06:26Z</time>
      </trkpt>
      <trkpt lat="43.46611" lon="-0.64538">
        <ele>205.86</ele>
        <time>2017-01-14T09:06:41Z</time>
      </trkpt>
      <trkpt lat="43.46621" lon="-0.64481">
        <ele>205.86</ele>
        <time>2017-01-14T09:06:55Z</time>
      </trkpt>
      <trkpt lat="43.46643" lon="-0.64412">
        <ele>204.9</ele>
        <time>2017-01-14T09:07:11Z</time>
      </trkpt>
      <trkpt lat="43.46663" lon="-0.64353">
        <ele>204.42</ele>
        <time>2017-01-14T09:07:22Z</time>
      </trkpt>
      <trkpt lat="43.4667" lon="-0.64283">
        <ele>204.9</ele>
        <time>2017-01-14T09:07:36Z</time>
      </trkpt>
      <trkpt lat="43.46665" lon="-0.64221">
        <ele>208.26</ele>
        <time>2017-01-14T09:07:50Z</time>
      </trkpt>
      <trkpt lat="43.4666" lon="-0.64185">
        <ele>210.19</ele>
        <time>2017-01-14T09:08:04Z</time>
      </trkpt>
      <trkpt lat="43.46659" lon="-0.64175">
        <ele>211.15</ele>
        <time>2017-01-14T09:08:09Z</time>
      </trkpt>
      <trkpt lat="43.46658" lon="-0.64173">
        <ele>211.15</ele>
        <time>2017-01-14T09:08:10Z</time>
      </trkpt>
      <trkpt lat="43.46658" lon="-0.64171">
        <ele>211.15</ele>
        <time>2017-01-14T09:08:11Z</time>
      </trkpt>
      <trkpt lat="43.46658" lon="-0.64169">
        <ele>211.63</ele>
        <time>2017-01-14T09:08:12Z</time>
      </trkpt>
      <trkpt lat="43.46657" lon="-0.64167">
        <ele>211.63</ele>
        <time>2017-01-14T09:08:13Z</time>
      </trkpt>
      <trkpt lat="43.46648" lon="-0.64131">
        <ele>214.99</ele>
        <time>2017-01-14T09:08:28Z</time>
      </trkpt>
      <trkpt lat="43.46637" lon="-0.64086">
        <ele>217.4</ele>
        <time>2017-01-14T09:08:44Z</time>
      </trkpt>
      <trkpt lat="43.46648" lon="-0.64016">
        <ele>212.11</ele>
        <time>2017-01-14T09:08:53Z</time>
      </trkpt>
      <trkpt lat="43.46672" lon="-0.6394">
        <ele>213.55</ele>
        <time>2017-01-14T09:09:04Z</time>
      </trkpt>
      <trkpt lat="43.46678" lon="-0.63872">
        <ele>215.47</ele>
        <time>2017-01-14T09:09:20Z</time>
      </trkpt>
      <trkpt lat="43.46664" lon="-0.63811">
        <ele>217.4</ele>
        <time>2017-01-14T09:09:35Z</time>
      </trkpt>
      <trkpt lat="43.46651" lon="-0.63762">
        <ele>220.28</ele>
        <time>2017-01-14T09:09:48Z</time>
      </trkpt>
      <trkpt lat="43.46646" lon="-0.63689">
        <ele>221.72</ele>
        <time>2017-01-14T09:10:05Z</time>
      </trkpt>
      <trkpt lat="43.46645" lon="-0.636">
        <ele>222.2</ele>
        <time>2017-01-14T09:10:22Z</time>
      </trkpt>
      <trkpt lat="43.46638" lon="-0.63507">
        <ele>223.64</ele>
        <time>2017-01-14T09:10:38Z</time>
      </trkpt>
      <trkpt lat="43.46645" lon="-0.63399">
        <ele>224.12</ele>
        <time>2017-01-14T09:10:56Z</time>
      </trkpt>
      <trkpt lat="43.46656" lon="-0.6333">
        <ele>225.09</ele>
        <time>2017-01-14T09:11:10Z</time>
      </trkpt>
      <trkpt lat="43.46673" lon="-0.63264">
        <ele>226.53</ele>
        <time>2017-01-14T09:11:23Z</time>
      </trkpt>
      <trkpt lat="43.46686" lon="-0.63205">
        <ele>229.89</ele>
        <time>2017-01-14T09:11:36Z</time>
      </trkpt>
      <trkpt lat="43.46662" lon="-0.63167">
        <ele>230.37</ele>
        <time>2017-01-14T09:11:47Z</time>
      </trkpt>
      <trkpt lat="43.46619" lon="-0.63116">
        <ele>227.97</ele>
        <time>2017-01-14T09:12:00Z</time>
      </trkpt>
      <trkpt lat="43.46565" lon="-0.6303">
        <ele>225.57</ele>
        <time>2017-01-14T09:12:17Z</time>
      </trkpt>
      <trkpt lat="43.46526" lon="-0.6296">
        <ele>223.64</ele>
        <time>2017-01-14T09:12:31Z</time>
      </trkpt>
      <trkpt lat="43.46519" lon="-0.62928">
        <ele>223.64</ele>
        <time>2017-01-14T09:12:39Z</time>
      </trkpt>
      <trkpt lat="43.46518" lon="-0.62922">
        <ele>223.64</ele>
        <time>2017-01-14T09:12:40Z</time>
      </trkpt>
      <trkpt lat="43.46503" lon="-0.62834">
        <ele>224.61</ele>
        <time>2017-01-14T09:12:56Z</time>
      </trkpt>
      <trkpt lat="43.465" lon="-0.6281">
        <ele>224.61</ele>
        <time>2017-01-14T09:13:00Z</time>
      </trkpt>
      <trkpt lat="43.465" lon="-0.62775">
        <ele>225.57</ele>
        <time>2017-01-14T09:13:06Z</time>
      </trkpt>
      <trkpt lat="43.465" lon="-0.62769">
        <ele>226.05</ele>
        <time>2017-01-14T09:13:07Z</time>
      </trkpt>
      <trkpt lat="43.4651" lon="-0.62674">
        <ele>226.53</ele>
        <time>2017-01-14T09:13:22Z</time>
      </trkpt>
      <trkpt lat="43.46525" lon="-0.62563">
        <ele>224.61</ele>
        <time>2017-01-14T09:13:37Z</time>
      </trkpt>
      <trkpt lat="43.46526" lon="-0.62546">
        <ele>224.12</ele>
        <time>2017-01-14T09:13:39Z</time>
      </trkpt>
      <trkpt lat="43.46526" lon="-0.62537">
        <ele>224.12</ele>
        <time>2017-01-14T09:13:40Z</time>
      </trkpt>
      <trkpt lat="43.46525" lon="-0.62529">
        <ele>223.64</ele>
        <time>2017-01-14T09:13:41Z</time>
      </trkpt>
      <trkpt lat="43.46523" lon="-0.62519">
        <ele>223.64</ele>
        <time>2017-01-14T09:13:42Z</time>
      </trkpt>
      <trkpt lat="43.46522" lon="-0.62511">
        <ele>223.64</ele>
        <time>2017-01-14T09:13:43Z</time>
      </trkpt>
      <trkpt lat="43.4652" lon="-0.62503">
        <ele>223.16</ele>
        <time>2017-01-14T09:13:44Z</time>
      </trkpt>
      <trkpt lat="43.4649" lon="-0.62353">
        <ele>218.84</ele>
        <time>2017-01-14T09:14:01Z</time>
      </trkpt>
      <trkpt lat="43.46484" lon="-0.62305">
        <ele>217.88</ele>
        <time>2017-01-14T09:14:06Z</time>
      </trkpt>
      <trkpt lat="43.46473" lon="-0.6217">
        <ele>211.63</ele>
        <time>2017-01-14T09:14:18Z</time>
      </trkpt>
      <trkpt lat="43.46476" lon="-0.62051">
        <ele>207.3</ele>
        <time>2017-01-14T09:14:27Z</time>
      </trkpt>
      <trkpt lat="43.46484" lon="-0.6194">
        <ele>206.82</ele>
        <time>2017-01-14T09:14:38Z</time>
      </trkpt>
      <trkpt lat="43.46483" lon="-0.61856">
        <ele>207.78</ele>
        <time>2017-01-14T09:14:50Z</time>
      </trkpt>
      <trkpt lat="43.4648" lon="-0.61831">
        <ele>207.78</ele>
        <time>2017-01-14T09:14:54Z</time>
      </trkpt>
      <trkpt lat="43.4648" lon="-0.61818">
        <ele>207.78</ele>
        <time>2017-01-14T09:14:56Z</time>
      </trkpt>
      <trkpt lat="43.46469" lon="-0.61698">
        <ele>207.78</ele>
        <time>2017-01-14T09:15:11Z</time>
      </trkpt>
      <trkpt lat="43.46471" lon="-0.61619">
        <ele>207.78</ele>
        <time>2017-01-14T09:15:21Z</time>
      </trkpt>
      <trkpt lat="43.46472" lon="-0.61612">
        <ele>207.78</ele>
        <time>2017-01-14T09:15:22Z</time>
      </trkpt>
      <trkpt lat="43.46479" lon="-0.61572">
        <ele>207.78</ele>
        <time>2017-01-14T09:15:30Z</time>
      </trkpt>
      <trkpt lat="43.46481" lon="-0.61561">
        <ele>207.78</ele>
        <time>2017-01-14T09:15:33Z</time>
      </trkpt>
      <trkpt lat="43.46479" lon="-0.61558">
        <ele>207.78</ele>
        <time>2017-01-14T09:15:34Z</time>
      </trkpt>
      <trkpt lat="43.46477" lon="-0.61555">
        <ele>207.78</ele>
        <time>2017-01-14T09:15:35Z</time>
      </trkpt>
      <trkpt lat="43.46475" lon="-0.61553">
        <ele>207.78</ele>
        <time>2017-01-14T09:15:36Z</time>
      </trkpt>
      <trkpt lat="43.46472" lon="-0.6155">
        <ele>207.78</ele>
        <time>2017-01-14T09:15:37Z</time>
      </trkpt>
      <trkpt lat="43.4647" lon="-0.61547">
        <ele>207.3</ele>
        <time>2017-01-14T09:15:38Z</time>
      </trkpt>
      <trkpt lat="43.46468" lon="-0.61544">
        <ele>207.3</ele>
        <time>2017-01-14T09:15:39Z</time>
      </trkpt>
      <trkpt lat="43.46467" lon="-0.61541">
        <ele>207.3</ele>
        <time>2017-01-14T09:15:40Z</time>
      </trkpt>
      <trkpt lat="43.46465" lon="-0.61539">
        <ele>206.82</ele>
        <time>2017-01-14T09:15:41Z</time>
      </trkpt>
      <trkpt lat="43.46463" lon="-0.61537">
        <ele>207.3</ele>
        <time>2017-01-14T09:15:42Z</time>
      </trkpt>
      <trkpt lat="43.46462" lon="-0.61534">
        <ele>207.3</ele>
        <time>2017-01-14T09:15:43Z</time>
      </trkpt>
      <trkpt lat="43.4646" lon="-0.61524">
        <ele>208.26</ele>
        <time>2017-01-14T09:15:48Z</time>
      </trkpt>
      <trkpt lat="43.46462" lon="-0.6152">
        <ele>208.26</ele>
        <time>2017-01-14T09:15:49Z</time>
      </trkpt>
      <trkpt lat="43.46463" lon="-0.61518">
        <ele>208.74</ele>
        <time>2017-01-14T09:15:50Z</time>
      </trkpt>
      <trkpt lat="43.46465" lon="-0.61515">
        <ele>208.74</ele>
        <time>2017-01-14T09:15:51Z</time>
      </trkpt>
      <trkpt lat="43.46468" lon="-0.61513">
        <ele>208.74</ele>
        <time>2017-01-14T09:15:52Z</time>
      </trkpt>
      <trkpt lat="43.46471" lon="-0.6151">
        <ele>209.22</ele>
        <time>2017-01-14T09:15:53Z</time>
      </trkpt>
      <trkpt lat="43.46473" lon="-0.61508">
        <ele>209.22</ele>
        <time>2017-01-14T09:15:54Z</time>
      </trkpt>
      <trkpt lat="43.46488" lon="-0.61494">
        <ele>212.11</ele>
        <time>2017-01-14T09:16:00Z</time>
      </trkpt>
      <trkpt lat="43.46489" lon="-0.61489">
        <ele>212.59</ele>
        <time>2017-01-14T09:16:01Z</time>
      </trkpt>
      <trkpt lat="43.46489" lon="-0.61484">
        <ele>213.07</ele>
        <time>2017-01-14T09:16:02Z</time>
      </trkpt>
      <trkpt lat="43.46488" lon="-0.61479">
        <ele>213.55</ele>
        <time>2017-01-14T09:16:03Z</time>
      </trkpt>
      <trkpt lat="43.46486" lon="-0.61475">
        <ele>214.03</ele>
        <time>2017-01-14T09:16:04Z</time>
      </trkpt>
      <trkpt lat="43.46484" lon="-0.61471">
        <ele>214.03</ele>
        <time>2017-01-14T09:16:05Z</time>
      </trkpt>
      <trkpt lat="43.46482" lon="-0.61468">
        <ele>214.51</ele>
        <time>2017-01-14T09:16:06Z</time>
      </trkpt>
      <trkpt lat="43.4648" lon="-0.61464">
        <ele>214.99</ele>
        <time>2017-01-14T09:16:07Z</time>
      </trkpt>
      <trkpt lat="43.46477" lon="-0.6146">
        <ele>215.47</ele>
        <time>2017-01-14T09:16:08Z</time>
      </trkpt>
      <trkpt lat="43.46474" lon="-0.61456">
        <ele>215.47</ele>
        <time>2017-01-14T09:16:09Z</time>
      </trkpt>
      <trkpt lat="43.46472" lon="-0.61452">
        <ele>215.47</ele>
        <time>2017-01-14T09:16:10Z</time>
      </trkpt>
      <trkpt lat="43.46469" lon="-0.61447">
        <ele>214.99</ele>
        <time>2017-01-14T09:16:11Z</time>
      </trkpt>
      <trkpt lat="43.46467" lon="-0.61443">
        <ele>214.99</ele>
        <time>2017-01-14T09:16:12Z</time>
      </trkpt>
      <trkpt lat="43.46465" lon="-0.61439">
        <ele>214.99</ele>
        <time>2017-01-14T09:16:13Z</time>
      </trkpt>
      <trkpt lat="43.46449" lon="-0.61402">
        <ele>213.07</ele>
        <time>2017-01-14T09:16:20Z</time>
      </trkpt>
      <trkpt lat="43.46447" lon="-0.61394">
        <ele>212.59</ele>
        <time>2017-01-14T09:16:21Z</time>
      </trkpt>
      <trkpt lat="43.46446" lon="-0.61387">
        <ele>212.59</ele>
        <time>2017-01-14T09:16:22Z</time>
      </trkpt>
      <trkpt lat="43.46443" lon="-0.61342">
        <ele>210.19</ele>
        <time>2017-01-14T09:16:27Z</time>
      </trkpt>
      <trkpt lat="43.46442" lon="-0.61333">
        <ele>210.19</ele>
        <time>2017-01-14T09:16:28Z</time>
      </trkpt>
      <trkpt lat="43.4644" lon="-0.61324">
        <ele>210.19</ele>
        <time>2017-01-14T09:16:29Z</time>
      </trkpt>
      <trkpt lat="43.46437" lon="-0.61306">
        <ele>209.7</ele>
        <time>2017-01-14T09:16:31Z</time>
      </trkpt>
      <trkpt lat="43.46437" lon="-0.61297">
        <ele>210.19</ele>
        <time>2017-01-14T09:16:32Z</time>
      </trkpt>
      <trkpt lat="43.46436" lon="-0.6129">
        <ele>210.19</ele>
        <time>2017-01-14T09:16:33Z</time>
      </trkpt>
      <trkpt lat="43.4642" lon="-0.61171">
        <ele>210.67</ele>
        <time>2017-01-14T09:16:48Z</time>
      </trkpt>
      <trkpt lat="43.46424" lon="-0.6107">
        <ele>212.11</ele>
        <time>2017-01-14T09:17:02Z</time>
      </trkpt>
      <trkpt lat="43.46433" lon="-0.60962">
        <ele>214.03</ele>
        <time>2017-01-14T09:17:18Z</time>
      </trkpt>
      <trkpt lat="43.46466" lon="-0.60877">
        <ele>215.95</ele>
        <time>2017-01-14T09:17:31Z</time>
      </trkpt>
      <trkpt lat="43.46482" lon="-0.60836">
        <ele>216.43</ele>
        <time>2017-01-14T09:17:37Z</time>
      </trkpt>
      <trkpt lat="43.4649" lon="-0.60796">
        <ele>216.91</ele>
        <time>2017-01-14T09:17:43Z</time>
      </trkpt>
      <trkpt lat="43.46492" lon="-0.60783">
        <ele>216.43</ele>
        <time>2017-01-14T09:17:45Z</time>
      </trkpt>
      <trkpt lat="43.46492" lon="-0.60776">
        <ele>216.43</ele>
        <time>2017-01-14T09:17:46Z</time>
      </trkpt>
      <trkpt lat="43.46485" lon="-0.60656">
        <ele>215.47</ele>
        <time>2017-01-14T09:18:02Z</time>
      </trkpt>
      <trkpt lat="43.46459" lon="-0.60553">
        <ele>215.95</ele>
        <time>2017-01-14T09:18:17Z</time>
      </trkpt>
      <trkpt lat="43.46427" lon="-0.60451">
        <ele>213.55</ele>
        <time>2017-01-14T09:18:32Z</time>
      </trkpt>
      <trkpt lat="43.4641" lon="-0.60417">
        <ele>213.07</ele>
        <time>2017-01-14T09:18:40Z</time>
      </trkpt>
      <trkpt lat="43.46412" lon="-0.60414">
        <ele>213.07</ele>
        <time>2017-01-14T09:18:41Z</time>
      </trkpt>
      <trkpt lat="43.46414" lon="-0.60415">
        <ele>212.59</ele>
        <time>2017-01-14T09:18:42Z</time>
      </trkpt>
      <trkpt lat="43.46416" lon="-0.60418">
        <ele>212.59</ele>
        <time>2017-01-14T09:18:43Z</time>
      </trkpt>
      <trkpt lat="43.46418" lon="-0.60423">
        <ele>212.59</ele>
        <time>2017-01-14T09:18:44Z</time>
      </trkpt>
      <trkpt lat="43.4642" lon="-0.60427">
        <ele>212.59</ele>
        <time>2017-01-14T09:18:45Z</time>
      </trkpt>
      <trkpt lat="43.46439" lon="-0.6047">
        <ele>214.03</ele>
        <time>2017-01-14T09:18:53Z</time>
      </trkpt>
      <trkpt lat="43.46443" lon="-0.60474">
        <ele>214.03</ele>
        <time>2017-01-14T09:18:54Z</time>
      </trkpt>
      <trkpt lat="43.46446" lon="-0.60476">
        <ele>214.03</ele>
        <time>2017-01-14T09:18:55Z</time>
      </trkpt>
      <trkpt lat="43.46451" lon="-0.60476">
        <ele>214.03</ele>
        <time>2017-01-14T09:18:56Z</time>
      </trkpt>
      <trkpt lat="43.46454" lon="-0.60474">
        <ele>214.99</ele>
        <time>2017-01-14T09:18:57Z</time>
      </trkpt>
      <trkpt lat="43.46458" lon="-0.60472">
        <ele>214.99</ele>
        <time>2017-01-14T09:18:58Z</time>
      </trkpt>
      <trkpt lat="43.46462" lon="-0.60469">
        <ele>215.47</ele>
        <time>2017-01-14T09:18:59Z</time>
      </trkpt>
      <trkpt lat="43.46466" lon="-0.60467">
        <ele>215.95</ele>
        <time>2017-01-14T09:19:00Z</time>
      </trkpt>
      <trkpt lat="43.4647" lon="-0.60465">
        <ele>216.43</ele>
        <time>2017-01-14T09:19:01Z</time>
      </trkpt>
      <trkpt lat="43.46473" lon="-0.60465">
        <ele>216.43</ele>
        <time>2017-01-14T09:19:02Z</time>
      </trkpt>
      <trkpt lat="43.46476" lon="-0.60465">
        <ele>216.91</ele>
        <time>2017-01-14T09:19:03Z</time>
      </trkpt>
      <trkpt lat="43.46478" lon="-0.60465">
        <ele>216.91</ele>
        <time>2017-01-14T09:19:04Z</time>
      </trkpt>
      <trkpt lat="43.4648" lon="-0.60467">
        <ele>216.91</ele>
        <time>2017-01-14T09:19:05Z</time>
      </trkpt>
      <trkpt lat="43.46479" lon="-0.60469">
        <ele>216.43</ele>
        <time>2017-01-14T09:19:06Z</time>
      </trkpt>
      <trkpt lat="43.46478" lon="-0.6047">
        <ele>216.43</ele>
        <time>2017-01-14T09:19:07Z</time>
      </trkpt>
      <trkpt lat="43.46476" lon="-0.6047">
        <ele>216.43</ele>
        <time>2017-01-14T09:19:08Z</time>
      </trkpt>
      <trkpt lat="43.46473" lon="-0.60469">
        <ele>215.95</ele>
        <time>2017-01-14T09:19:09Z</time>
      </trkpt>
      <trkpt lat="43.4647" lon="-0.60468">
        <ele>215.95</ele>
        <time>2017-01-14T09:19:10Z</time>
      </trkpt>
      <trkpt lat="43.46467" lon="-0.60468">
        <ele>215.47</ele>
        <time>2017-01-14T09:19:11Z</time>
      </trkpt>
      <trkpt lat="43.46464" lon="-0.60469">
        <ele>215.47</ele>
        <time>2017-01-14T09:19:12Z</time>
      </trkpt>
      <trkpt lat="43.46461" lon="-0.60472">
        <ele>214.99</ele>
        <time>2017-01-14T09:19:13Z</time>
      </trkpt>
      <trkpt lat="43.46458" lon="-0.60474">
        <ele>214.51</ele>
        <time>2017-01-14T09:19:14Z</time>
      </trkpt>
      <trkpt lat="43.46447" lon="-0.60488">
        <ele>214.03</ele>
        <time>2017-01-14T09:19:19Z</time>
      </trkpt>
      <trkpt lat="43.46448" lon="-0.60493">
        <ele>214.03</ele>
        <time>2017-01-14T09:19:20Z</time>
      </trkpt>
      <trkpt lat="43.46449" lon="-0.60497">
        <ele>214.03</ele>
        <time>2017-01-14T09:19:21Z</time>
      </trkpt>
      <trkpt lat="43.46469" lon="-0.60569">
        <ele>214.03</ele>
        <time>2017-01-14T09:19:33Z</time>
      </trkpt>
      <trkpt lat="43.46477" lon="-0.60598">
        <ele>214.03</ele>
        <time>2017-01-14T09:19:38Z</time>
      </trkpt>
      <trkpt lat="43.46481" lon="-0.60603">
        <ele>213.55</ele>
        <time>2017-01-14T09:19:39Z</time>
      </trkpt>
      <trkpt lat="43.46485" lon="-0.60605">
        <ele>213.55</ele>
        <time>2017-01-14T09:19:40Z</time>
      </trkpt>
      <trkpt lat="43.46491" lon="-0.60604">
        <ele>213.07</ele>
        <time>2017-01-14T09:19:41Z</time>
      </trkpt>
      <trkpt lat="43.46495" lon="-0.60602">
        <ele>213.07</ele>
        <time>2017-01-14T09:19:42Z</time>
      </trkpt>
      <trkpt lat="43.46499" lon="-0.60597">
        <ele>212.59</ele>
        <time>2017-01-14T09:19:43Z</time>
      </trkpt>
      <trkpt lat="43.46503" lon="-0.60592">
        <ele>212.59</ele>
        <time>2017-01-14T09:19:44Z</time>
      </trkpt>
      <trkpt lat="43.46507" lon="-0.60586">
        <ele>212.11</ele>
        <time>2017-01-14T09:19:45Z</time>
      </trkpt>
      <trkpt lat="43.46552" lon="-0.60484">
        <ele>210.19</ele>
        <time>2017-01-14T09:19:59Z</time>
      </trkpt>
      <trkpt lat="43.46596" lon="-0.6037">
        <ele>209.7</ele>
        <time>2017-01-14T09:20:15Z</time>
      </trkpt>
      <trkpt lat="43.46597" lon="-0.60363">
        <ele>209.7</ele>
        <time>2017-01-14T09:20:16Z</time>
      </trkpt>
      <trkpt lat="43.46597" lon="-0.60356">
        <ele>209.22</ele>
        <time>2017-01-14T09:20:17Z</time>
      </trkpt>
      <trkpt lat="43.46597" lon="-0.60349">
        <ele>209.22</ele>
        <time>2017-01-14T09:20:18Z</time>
      </trkpt>
      <trkpt lat="43.46596" lon="-0.60342">
        <ele>209.22</ele>
        <time>2017-01-14T09:20:19Z</time>
      </trkpt>
      <trkpt lat="43.46593" lon="-0.60335">
        <ele>209.22</ele>
        <time>2017-01-14T09:20:20Z</time>
      </trkpt>
      <trkpt lat="43.4659" lon="-0.60329">
        <ele>208.74</ele>
        <time>2017-01-14T09:20:21Z</time>
      </trkpt>
      <trkpt lat="43.46587" lon="-0.60324">
        <ele>208.74</ele>
        <time>2017-01-14T09:20:22Z</time>
      </trkpt>
      <trkpt lat="43.46584" lon="-0.60319">
        <ele>208.74</ele>
        <time>2017-01-14T09:20:23Z</time>
      </trkpt>
      <trkpt lat="43.4658" lon="-0.60315">
        <ele>208.26</ele>
        <time>2017-01-14T09:20:24Z</time>
      </trkpt>
      <trkpt lat="43.46576" lon="-0.60311">
        <ele>208.26</ele>
        <time>2017-01-14T09:20:25Z</time>
      </trkpt>
      <trkpt lat="43.46571" lon="-0.60307">
        <ele>207.78</ele>
        <time>2017-01-14T09:20:26Z</time>
      </trkpt>
      <trkpt lat="43.46537" lon="-0.60283">
        <ele>203.94</ele>
        <time>2017-01-14T09:20:32Z</time>
      </trkpt>
      <trkpt lat="43.46443" lon="-0.60249">
        <ele>196.73</ele>
        <time>2017-01-14T09:20:44Z</time>
      </trkpt>
      <trkpt lat="43.46434" lon="-0.60244">
        <ele>195.77</ele>
        <time>2017-01-14T09:20:45Z</time>
      </trkpt>
      <trkpt lat="43.46427" lon="-0.60238">
        <ele>195.28</ele>
        <time>2017-01-14T09:20:46Z</time>
      </trkpt>
      <trkpt lat="43.46419" lon="-0.6023">
        <ele>194.32</ele>
        <time>2017-01-14T09:20:47Z</time>
      </trkpt>
      <trkpt lat="43.46413" lon="-0.60222">
        <ele>193.84</ele>
        <time>2017-01-14T09:20:48Z</time>
      </trkpt>
      <trkpt lat="43.46407" lon="-0.60212">
        <ele>193.36</ele>
        <time>2017-01-14T09:20:49Z</time>
      </trkpt>
      <trkpt lat="43.46372" lon="-0.60148">
        <ele>188.56</ele>
        <time>2017-01-14T09:20:55Z</time>
      </trkpt>
      <trkpt lat="43.46369" lon="-0.60136">
        <ele>188.08</ele>
        <time>2017-01-14T09:20:56Z</time>
      </trkpt>
      <trkpt lat="43.46365" lon="-0.60122">
        <ele>187.59</ele>
        <time>2017-01-14T09:20:57Z</time>
      </trkpt>
      <trkpt lat="43.46364" lon="-0.60109">
        <ele>187.11</ele>
        <time>2017-01-14T09:20:58Z</time>
      </trkpt>
      <trkpt lat="43.46363" lon="-0.60096">
        <ele>186.15</ele>
        <time>2017-01-14T09:20:59Z</time>
      </trkpt>
      <trkpt lat="43.46363" lon="-0.60082">
        <ele>185.67</ele>
        <time>2017-01-14T09:21:00Z</time>
      </trkpt>
      <trkpt lat="43.46364" lon="-0.60068">
        <ele>185.19</ele>
        <time>2017-01-14T09:21:01Z</time>
      </trkpt>
      <trkpt lat="43.46374" lon="-0.59916">
        <ele>178.46</ele>
        <time>2017-01-14T09:21:12Z</time>
      </trkpt>
      <trkpt lat="43.46373" lon="-0.59902">
        <ele>177.98</ele>
        <time>2017-01-14T09:21:13Z</time>
      </trkpt>
      <trkpt lat="43.46371" lon="-0.59888">
        <ele>177.02</ele>
        <time>2017-01-14T09:21:14Z</time>
      </trkpt>
      <trkpt lat="43.46368" lon="-0.59875">
        <ele>176.54</ele>
        <time>2017-01-14T09:21:15Z</time>
      </trkpt>
      <trkpt lat="43.46365" lon="-0.59862">
        <ele>176.06</ele>
        <time>2017-01-14T09:21:16Z</time>
      </trkpt>
      <trkpt lat="43.46339" lon="-0.59795">
        <ele>172.21</ele>
        <time>2017-01-14T09:21:22Z</time>
      </trkpt>
      <trkpt lat="43.46333" lon="-0.59787">
        <ele>171.73</ele>
        <time>2017-01-14T09:21:23Z</time>
      </trkpt>
      <trkpt lat="43.46327" lon="-0.5978">
        <ele>170.77</ele>
        <time>2017-01-14T09:21:24Z</time>
      </trkpt>
      <trkpt lat="43.46319" lon="-0.59774">
        <ele>170.29</ele>
        <time>2017-01-14T09:21:25Z</time>
      </trkpt>
      <trkpt lat="43.46312" lon="-0.5977">
        <ele>169.33</ele>
        <time>2017-01-14T09:21:26Z</time>
      </trkpt>
      <trkpt lat="43.46295" lon="-0.59761">
        <ele>168.37</ele>
        <time>2017-01-14T09:21:28Z</time>
      </trkpt>
      <trkpt lat="43.4626" lon="-0.59746">
        <ele>165.48</ele>
        <time>2017-01-14T09:21:32Z</time>
      </trkpt>
      <trkpt lat="43.46252" lon="-0.59739">
        <ele>165</ele>
        <time>2017-01-14T09:21:33Z</time>
      </trkpt>
      <trkpt lat="43.46156" lon="-0.59659">
        <ele>157.31</ele>
        <time>2017-01-14T09:21:45Z</time>
      </trkpt>
      <trkpt lat="43.46146" lon="-0.59652">
        <ele>156.35</ele>
        <time>2017-01-14T09:21:47Z</time>
      </trkpt>
      <trkpt lat="43.46137" lon="-0.59643">
        <ele>155.87</ele>
        <time>2017-01-14T09:21:49Z</time>
      </trkpt>
      <trkpt lat="43.46133" lon="-0.59637">
        <ele>155.39</ele>
        <time>2017-01-14T09:21:50Z</time>
      </trkpt>
      <trkpt lat="43.4613" lon="-0.59629">
        <ele>154.91</ele>
        <time>2017-01-14T09:21:51Z</time>
      </trkpt>
      <trkpt lat="43.46128" lon="-0.5962">
        <ele>154.91</ele>
        <time>2017-01-14T09:21:52Z</time>
      </trkpt>
      <trkpt lat="43.46127" lon="-0.59611">
        <ele>154.43</ele>
        <time>2017-01-14T09:21:53Z</time>
      </trkpt>
      <trkpt lat="43.46126" lon="-0.596">
        <ele>153.95</ele>
        <time>2017-01-14T09:21:54Z</time>
      </trkpt>
      <trkpt lat="43.46127" lon="-0.5959">
        <ele>153.47</ele>
        <time>2017-01-14T09:21:55Z</time>
      </trkpt>
      <trkpt lat="43.46128" lon="-0.59578">
        <ele>152.99</ele>
        <time>2017-01-14T09:21:56Z</time>
      </trkpt>
      <trkpt lat="43.46152" lon="-0.59392">
        <ele>145.3</ele>
        <time>2017-01-14T09:22:10Z</time>
      </trkpt>
      <trkpt lat="43.46157" lon="-0.59226">
        <ele>141.45</ele>
        <time>2017-01-14T09:22:22Z</time>
      </trkpt>
      <trkpt lat="43.46155" lon="-0.59119">
        <ele>140.01</ele>
        <time>2017-01-14T09:22:31Z</time>
      </trkpt>
      <trkpt lat="43.46157" lon="-0.59109">
        <ele>140.01</ele>
        <time>2017-01-14T09:22:32Z</time>
      </trkpt>
      <trkpt lat="43.4616" lon="-0.59098">
        <ele>140.01</ele>
        <time>2017-01-14T09:22:33Z</time>
      </trkpt>
      <trkpt lat="43.46164" lon="-0.59089">
        <ele>139.53</ele>
        <time>2017-01-14T09:22:34Z</time>
      </trkpt>
      <trkpt lat="43.46168" lon="-0.5908">
        <ele>139.05</ele>
        <time>2017-01-14T09:22:35Z</time>
      </trkpt>
      <trkpt lat="43.46173" lon="-0.59071">
        <ele>139.05</ele>
        <time>2017-01-14T09:22:36Z</time>
      </trkpt>
      <trkpt lat="43.4624" lon="-0.58958">
        <ele>136.64</ele>
        <time>2017-01-14T09:22:50Z</time>
      </trkpt>
      <trkpt lat="43.46244" lon="-0.5895">
        <ele>136.64</ele>
        <time>2017-01-14T09:22:51Z</time>
      </trkpt>
      <trkpt lat="43.46246" lon="-0.58941">
        <ele>136.16</ele>
        <time>2017-01-14T09:22:52Z</time>
      </trkpt>
      <trkpt lat="43.46248" lon="-0.58933">
        <ele>136.16</ele>
        <time>2017-01-14T09:22:53Z</time>
      </trkpt>
      <trkpt lat="43.46248" lon="-0.58924">
        <ele>136.16</ele>
        <time>2017-01-14T09:22:54Z</time>
      </trkpt>
      <trkpt lat="43.46245" lon="-0.58821">
        <ele>136.16</ele>
        <time>2017-01-14T09:23:07Z</time>
      </trkpt>
      <trkpt lat="43.46238" lon="-0.58687">
        <ele>138.57</ele>
        <time>2017-01-14T09:23:24Z</time>
      </trkpt>
      <trkpt lat="43.46234" lon="-0.58566">
        <ele>139.05</ele>
        <time>2017-01-14T09:23:40Z</time>
      </trkpt>
      <trkpt lat="43.46234" lon="-0.58558">
        <ele>139.53</ele>
        <time>2017-01-14T09:23:41Z</time>
      </trkpt>
      <trkpt lat="43.46235" lon="-0.5855">
        <ele>139.53</ele>
        <time>2017-01-14T09:23:42Z</time>
      </trkpt>
      <trkpt lat="43.46238" lon="-0.58535">
        <ele>139.53</ele>
        <time>2017-01-14T09:23:44Z</time>
      </trkpt>
      <trkpt lat="43.4624" lon="-0.58528">
        <ele>139.53</ele>
        <time>2017-01-14T09:23:45Z</time>
      </trkpt>
      <trkpt lat="43.46245" lon="-0.58513">
        <ele>140.01</ele>
        <time>2017-01-14T09:23:47Z</time>
      </trkpt>
      <trkpt lat="43.46276" lon="-0.58436">
        <ele>140.49</ele>
        <time>2017-01-14T09:24:00Z</time>
      </trkpt>
      <trkpt lat="43.46302" lon="-0.58406">
        <ele>141.93</ele>
        <time>2017-01-14T09:24:14Z</time>
      </trkpt>
      <trkpt lat="43.46327" lon="-0.58392">
        <ele>142.89</ele>
        <time>2017-01-14T09:24:27Z</time>
      </trkpt>
      <trkpt lat="43.46348" lon="-0.58386">
        <ele>145.3</ele>
        <time>2017-01-14T09:24:39Z</time>
      </trkpt>
      <trkpt lat="43.46349" lon="-0.58386">
        <ele>145.78</ele>
        <time>2017-01-14T09:24:40Z</time>
      </trkpt>
      <trkpt lat="43.46351" lon="-0.58385">
        <ele>145.78</ele>
        <time>2017-01-14T09:24:41Z</time>
      </trkpt>
      <trkpt lat="43.46353" lon="-0.58384">
        <ele>146.26</ele>
        <time>2017-01-14T09:24:42Z</time>
      </trkpt>
      <trkpt lat="43.46355" lon="-0.58384">
        <ele>146.74</ele>
        <time>2017-01-14T09:24:43Z</time>
      </trkpt>
      <trkpt lat="43.46357" lon="-0.58384">
        <ele>146.74</ele>
        <time>2017-01-14T09:24:44Z</time>
      </trkpt>
      <trkpt lat="43.46388" lon="-0.58377">
        <ele>152.51</ele>
        <time>2017-01-14T09:24:58Z</time>
      </trkpt>
      <trkpt lat="43.46424" lon="-0.58366">
        <ele>160.68</ele>
        <time>2017-01-14T09:25:13Z</time>
      </trkpt>
      <trkpt lat="43.46427" lon="-0.58365">
        <ele>160.68</ele>
        <time>2017-01-14T09:25:14Z</time>
      </trkpt>
      <trkpt lat="43.46467" lon="-0.58349">
        <ele>165.96</ele>
        <time>2017-01-14T09:25:30Z</time>
      </trkpt>
      <trkpt lat="43.46501" lon="-0.58342">
        <ele>172.21</ele>
        <time>2017-01-14T09:25:45Z</time>
      </trkpt>
      <trkpt lat="43.46538" lon="-0.58344">
        <ele>174.14</ele>
        <time>2017-01-14T09:26:01Z</time>
      </trkpt>
      <trkpt lat="43.46578" lon="-0.58349">
        <ele>174.62</ele>
        <time>2017-01-14T09:26:17Z</time>
      </trkpt>
      <trkpt lat="43.46618" lon="-0.58369">
        <ele>174.14</ele>
        <time>2017-01-14T09:26:33Z</time>
      </trkpt>
      <trkpt lat="43.46653" lon="-0.58366">
        <ele>175.58</ele>
        <time>2017-01-14T09:26:47Z</time>
      </trkpt>
      <trkpt lat="43.4667" lon="-0.58336">
        <ele>177.98</ele>
        <time>2017-01-14T09:26:58Z</time>
      </trkpt>
      <trkpt lat="43.4667" lon="-0.58333">
        <ele>177.98</ele>
        <time>2017-01-14T09:26:59Z</time>
      </trkpt>
      <trkpt lat="43.46671" lon="-0.58279">
        <ele>179.42</ele>
        <time>2017-01-14T09:27:15Z</time>
      </trkpt>
      <trkpt lat="43.46654" lon="-0.58244">
        <ele>180.38</ele>
        <time>2017-01-14T09:27:28Z</time>
      </trkpt>
      <trkpt lat="43.46636" lon="-0.58199">
        <ele>182.31</ele>
        <time>2017-01-14T09:27:42Z</time>
      </trkpt>
      <trkpt lat="43.46621" lon="-0.58144">
        <ele>181.83</ele>
        <time>2017-01-14T09:27:58Z</time>
      </trkpt>
      <trkpt lat="43.46612" lon="-0.581">
        <ele>182.79</ele>
        <time>2017-01-14T09:28:11Z</time>
      </trkpt>
      <trkpt lat="43.46613" lon="-0.58052">
        <ele>185.19</ele>
        <time>2017-01-14T09:28:26Z</time>
      </trkpt>
      <trkpt lat="43.46611" lon="-0.58011">
        <ele>186.63</ele>
        <time>2017-01-14T09:28:39Z</time>
      </trkpt>
      <trkpt lat="43.4659" lon="-0.57958">
        <ele>186.15</ele>
        <time>2017-01-14T09:28:57Z</time>
      </trkpt>
      <trkpt lat="43.46566" lon="-0.5791">
        <ele>187.59</ele>
        <time>2017-01-14T09:29:14Z</time>
      </trkpt>
      <trkpt lat="43.4656" lon="-0.57872">
        <ele>190</ele>
        <time>2017-01-14T09:29:27Z</time>
      </trkpt>
      <trkpt lat="43.46564" lon="-0.57837">
        <ele>190.48</ele>
        <time>2017-01-14T09:29:39Z</time>
      </trkpt>
      <trkpt lat="43.46563" lon="-0.57789">
        <ele>191.44</ele>
        <time>2017-01-14T09:29:53Z</time>
      </trkpt>
      <trkpt lat="43.4655" lon="-0.57748">
        <ele>193.84</ele>
        <time>2017-01-14T09:30:06Z</time>
      </trkpt>
      <trkpt lat="43.46548" lon="-0.57702">
        <ele>198.17</ele>
        <time>2017-01-14T09:30:20Z</time>
      </trkpt>
      <trkpt lat="43.46554" lon="-0.57653">
        <ele>202.01</ele>
        <time>2017-01-14T09:30:36Z</time>
      </trkpt>
      <trkpt lat="43.46535" lon="-0.57619">
        <ele>202.98</ele>
        <time>2017-01-14T09:30:50Z</time>
      </trkpt>
      <trkpt lat="43.46514" lon="-0.57613">
        <ele>201.53</ele>
        <time>2017-01-14T09:31:03Z</time>
      </trkpt>
      <trkpt lat="43.4647" lon="-0.57599">
        <ele>202.01</ele>
        <time>2017-01-14T09:31:20Z</time>
      </trkpt>
      <trkpt lat="43.46417" lon="-0.57581">
        <ele>201.05</ele>
        <time>2017-01-14T09:31:35Z</time>
      </trkpt>
      <trkpt lat="43.46378" lon="-0.57563">
        <ele>201.05</ele>
        <time>2017-01-14T09:31:47Z</time>
      </trkpt>
      <trkpt lat="43.46358" lon="-0.57534">
        <ele>201.53</ele>
        <time>2017-01-14T09:31:54Z</time>
      </trkpt>
      <trkpt lat="43.46355" lon="-0.57533">
        <ele>201.53</ele>
        <time>2017-01-14T09:31:55Z</time>
      </trkpt>
      <trkpt lat="43.4635" lon="-0.57533">
        <ele>201.53</ele>
        <time>2017-01-14T09:31:56Z</time>
      </trkpt>
      <trkpt lat="43.463" lon="-0.57559">
        <ele>199.61</ele>
        <time>2017-01-14T09:32:09Z</time>
      </trkpt>
      <trkpt lat="43.46273" lon="-0.5757">
        <ele>195.77</ele>
        <time>2017-01-14T09:32:14Z</time>
      </trkpt>
      <trkpt lat="43.46269" lon="-0.57571">
        <ele>195.28</ele>
        <time>2017-01-14T09:32:15Z</time>
      </trkpt>
      <trkpt lat="43.46264" lon="-0.57571">
        <ele>194.32</ele>
        <time>2017-01-14T09:32:16Z</time>
      </trkpt>
      <trkpt lat="43.4626" lon="-0.57569">
        <ele>193.84</ele>
        <time>2017-01-14T09:32:17Z</time>
      </trkpt>
      <trkpt lat="43.46257" lon="-0.57567">
        <ele>193.36</ele>
        <time>2017-01-14T09:32:18Z</time>
      </trkpt>
      <trkpt lat="43.46253" lon="-0.57563">
        <ele>192.88</ele>
        <time>2017-01-14T09:32:19Z</time>
      </trkpt>
      <trkpt lat="43.46249" lon="-0.57558">
        <ele>192.4</ele>
        <time>2017-01-14T09:32:20Z</time>
      </trkpt>
      <trkpt lat="43.46245" lon="-0.57552">
        <ele>191.92</ele>
        <time>2017-01-14T09:32:21Z</time>
      </trkpt>
      <trkpt lat="43.4622" lon="-0.5751">
        <ele>187.59</ele>
        <time>2017-01-14T09:32:26Z</time>
      </trkpt>
      <trkpt lat="43.46206" lon="-0.57492">
        <ele>185.19</ele>
        <time>2017-01-14T09:32:28Z</time>
      </trkpt>
      <trkpt lat="43.46197" lon="-0.57485">
        <ele>183.75</ele>
        <time>2017-01-14T09:32:29Z</time>
      </trkpt>
      <trkpt lat="43.46149" lon="-0.57426">
        <ele>173.17</ele>
        <time>2017-01-14T09:32:37Z</time>
      </trkpt>
      <trkpt lat="43.46145" lon="-0.57421">
        <ele>172.69</ele>
        <time>2017-01-14T09:32:38Z</time>
      </trkpt>
      <trkpt lat="43.46141" lon="-0.5742">
        <ele>171.73</ele>
        <time>2017-01-14T09:32:39Z</time>
      </trkpt>
      <trkpt lat="43.46136" lon="-0.57419">
        <ele>171.25</ele>
        <time>2017-01-14T09:32:40Z</time>
      </trkpt>
      <trkpt lat="43.46094" lon="-0.57421">
        <ele>165.48</ele>
        <time>2017-01-14T09:32:46Z</time>
      </trkpt>
      <trkpt lat="43.46088" lon="-0.5742">
        <ele>164.52</ele>
        <time>2017-01-14T09:32:47Z</time>
      </trkpt>
      <trkpt lat="43.46081" lon="-0.57417">
        <ele>163.56</ele>
        <time>2017-01-14T09:32:48Z</time>
      </trkpt>
      <trkpt lat="43.4607" lon="-0.5741">
        <ele>162.12</ele>
        <time>2017-01-14T09:32:50Z</time>
      </trkpt>
      <trkpt lat="43.46061" lon="-0.57403">
        <ele>160.68</ele>
        <time>2017-01-14T09:32:52Z</time>
      </trkpt>
      <trkpt lat="43.46039" lon="-0.57377">
        <ele>156.83</ele>
        <time>2017-01-14T09:33:01Z</time>
      </trkpt>
      <trkpt lat="43.46037" lon="-0.57373">
        <ele>156.35</ele>
        <time>2017-01-14T09:33:02Z</time>
      </trkpt>
      <trkpt lat="43.46034" lon="-0.57368">
        <ele>155.87</ele>
        <time>2017-01-14T09:33:03Z</time>
      </trkpt>
      <trkpt lat="43.4601" lon="-0.57338">
        <ele>150.58</ele>
        <time>2017-01-14T09:33:10Z</time>
      </trkpt>
      <trkpt lat="43.46006" lon="-0.57337">
        <ele>150.1</ele>
        <time>2017-01-14T09:33:11Z</time>
      </trkpt>
      <trkpt lat="43.46002" lon="-0.57338">
        <ele>149.14</ele>
        <time>2017-01-14T09:33:12Z</time>
      </trkpt>
      <trkpt lat="43.45998" lon="-0.57341">
        <ele>148.18</ele>
        <time>2017-01-14T09:33:13Z</time>
      </trkpt>
      <trkpt lat="43.45993" lon="-0.57345">
        <ele>147.22</ele>
        <time>2017-01-14T09:33:14Z</time>
      </trkpt>
      <trkpt lat="43.45989" lon="-0.5735">
        <ele>146.26</ele>
        <time>2017-01-14T09:33:15Z</time>
      </trkpt>
      <trkpt lat="43.45952" lon="-0.57389">
        <ele>142.41</ele>
        <time>2017-01-14T09:33:22Z</time>
      </trkpt>
      <trkpt lat="43.45946" lon="-0.57394">
        <ele>141.93</ele>
        <time>2017-01-14T09:33:23Z</time>
      </trkpt>
      <trkpt lat="43.45939" lon="-0.57398">
        <ele>141.45</ele>
        <time>2017-01-14T09:33:24Z</time>
      </trkpt>
      <trkpt lat="43.45933" lon="-0.574">
        <ele>140.97</ele>
        <time>2017-01-14T09:33:25Z</time>
      </trkpt>
      <trkpt lat="43.45927" lon="-0.57402">
        <ele>140.97</ele>
        <time>2017-01-14T09:33:26Z</time>
      </trkpt>
      <trkpt lat="43.45879" lon="-0.57419">
        <ele>139.53</ele>
        <time>2017-01-14T09:33:34Z</time>
      </trkpt>
      <trkpt lat="43.45874" lon="-0.57423">
        <ele>139.53</ele>
        <time>2017-01-14T09:33:35Z</time>
      </trkpt>
      <trkpt lat="43.4587" lon="-0.57427">
        <ele>139.53</ele>
        <time>2017-01-14T09:33:36Z</time>
      </trkpt>
      <trkpt lat="43.45866" lon="-0.57432">
        <ele>139.53</ele>
        <time>2017-01-14T09:33:37Z</time>
      </trkpt>
      <trkpt lat="43.45862" lon="-0.57436">
        <ele>139.53</ele>
        <time>2017-01-14T09:33:38Z</time>
      </trkpt>
      <trkpt lat="43.45859" lon="-0.57441">
        <ele>139.53</ele>
        <time>2017-01-14T09:33:39Z</time>
      </trkpt>
      <trkpt lat="43.45834" lon="-0.5749">
        <ele>139.05</ele>
        <time>2017-01-14T09:33:49Z</time>
      </trkpt>
      <trkpt lat="43.4582" lon="-0.57511">
        <ele>139.53</ele>
        <time>2017-01-14T09:33:54Z</time>
      </trkpt>
      <trkpt lat="43.4581" lon="-0.57521">
        <ele>139.53</ele>
        <time>2017-01-14T09:33:57Z</time>
      </trkpt>
      <trkpt lat="43.45771" lon="-0.57556">
        <ele>139.05</ele>
        <time>2017-01-14T09:34:08Z</time>
      </trkpt>
      <trkpt lat="43.45768" lon="-0.5756">
        <ele>139.05</ele>
        <time>2017-01-14T09:34:09Z</time>
      </trkpt>
      <trkpt lat="43.45765" lon="-0.57562">
        <ele>139.53</ele>
        <time>2017-01-14T09:34:10Z</time>
      </trkpt>
      <trkpt lat="43.45713" lon="-0.57606">
        <ele>141.45</ele>
        <time>2017-01-14T09:34:28Z</time>
      </trkpt>
      <trkpt lat="43.45695" lon="-0.57636">
        <ele>142.41</ele>
        <time>2017-01-14T09:34:42Z</time>
      </trkpt>
      <trkpt lat="43.45678" lon="-0.57671">
        <ele>142.89</ele>
        <time>2017-01-14T09:34:59Z</time>
      </trkpt>
      <trkpt lat="43.45676" lon="-0.57673">
        <ele>143.37</ele>
        <time>2017-01-14T09:35:00Z</time>
      </trkpt>
      <trkpt lat="43.45675" lon="-0.57675">
        <ele>143.37</ele>
        <time>2017-01-14T09:35:01Z</time>
      </trkpt>
      <trkpt lat="43.45674" lon="-0.57677">
        <ele>143.37</ele>
        <time>2017-01-14T09:35:02Z</time>
      </trkpt>
      <trkpt lat="43.45648" lon="-0.57704">
        <ele>144.82</ele>
        <time>2017-01-14T09:35:16Z</time>
      </trkpt>
      <trkpt lat="43.45613" lon="-0.57727">
        <ele>150.58</ele>
        <time>2017-01-14T09:35:33Z</time>
      </trkpt>
      <trkpt lat="43.45585" lon="-0.57744">
        <ele>152.51</ele>
        <time>2017-01-14T09:35:49Z</time>
      </trkpt>
      <trkpt lat="43.45558" lon="-0.57763">
        <ele>152.51</ele>
        <time>2017-01-14T09:36:04Z</time>
      </trkpt>
      <trkpt lat="43.45532" lon="-0.57779">
        <ele>155.87</ele>
        <time>2017-01-14T09:36:19Z</time>
      </trkpt>
      <trkpt lat="43.4551" lon="-0.5779">
        <ele>158.75</ele>
        <time>2017-01-14T09:36:34Z</time>
      </trkpt>
      <trkpt lat="43.45489" lon="-0.578">
        <ele>161.16</ele>
        <time>2017-01-14T09:36:49Z</time>
      </trkpt>
      <trkpt lat="43.45462" lon="-0.57807">
        <ele>165</ele>
        <time>2017-01-14T09:37:07Z</time>
      </trkpt>
      <trkpt lat="43.45436" lon="-0.57807">
        <ele>168.37</ele>
        <time>2017-01-14T09:37:24Z</time>
      </trkpt>
      <trkpt lat="43.4543" lon="-0.57806">
        <ele>169.33</ele>
        <time>2017-01-14T09:37:28Z</time>
      </trkpt>
      <trkpt lat="43.45429" lon="-0.57805">
        <ele>169.33</ele>
        <time>2017-01-14T09:37:29Z</time>
      </trkpt>
      <trkpt lat="43.45427" lon="-0.57803">
        <ele>169.33</ele>
        <time>2017-01-14T09:37:30Z</time>
      </trkpt>
      <trkpt lat="43.45426" lon="-0.57802">
        <ele>169.33</ele>
        <time>2017-01-14T09:37:31Z</time>
      </trkpt>
      <trkpt lat="43.45426" lon="-0.578">
        <ele>169.81</ele>
        <time>2017-01-14T09:37:32Z</time>
      </trkpt>
      <trkpt lat="43.45425" lon="-0.57797">
        <ele>169.81</ele>
        <time>2017-01-14T09:37:33Z</time>
      </trkpt>
      <trkpt lat="43.45425" lon="-0.57794">
        <ele>169.81</ele>
        <time>2017-01-14T09:37:34Z</time>
      </trkpt>
      <trkpt lat="43.45424" lon="-0.57779">
        <ele>169.33</ele>
        <time>2017-01-14T09:37:37Z</time>
      </trkpt>
      <trkpt lat="43.45412" lon="-0.577">
        <ele>165</ele>
        <time>2017-01-14T09:37:46Z</time>
      </trkpt>
      <trkpt lat="43.45409" lon="-0.57664">
        <ele>165</ele>
        <time>2017-01-14T09:37:55Z</time>
      </trkpt>
      <trkpt lat="43.45399" lon="-0.57624">
        <ele>165.48</ele>
        <time>2017-01-14T09:38:12Z</time>
      </trkpt>
      <trkpt lat="43.45378" lon="-0.57589">
        <ele>166.93</ele>
        <time>2017-01-14T09:38:29Z</time>
      </trkpt>
      <trkpt lat="43.45355" lon="-0.57558">
        <ele>169.81</ele>
        <time>2017-01-14T09:38:48Z</time>
      </trkpt>
      <trkpt lat="43.4534" lon="-0.57535">
        <ele>172.21</ele>
        <time>2017-01-14T09:39:01Z</time>
      </trkpt>
      <trkpt lat="43.45323" lon="-0.57501">
        <ele>173.66</ele>
        <time>2017-01-14T09:39:18Z</time>
      </trkpt>
      <trkpt lat="43.45324" lon="-0.57493">
        <ele>173.17</ele>
        <time>2017-01-14T09:39:20Z</time>
      </trkpt>
      <trkpt lat="43.45327" lon="-0.5749">
        <ele>173.17</ele>
        <time>2017-01-14T09:39:21Z</time>
      </trkpt>
      <trkpt lat="43.45331" lon="-0.57488">
        <ele>173.17</ele>
        <time>2017-01-14T09:39:22Z</time>
      </trkpt>
      <trkpt lat="43.45336" lon="-0.57485">
        <ele>172.69</ele>
        <time>2017-01-14T09:39:23Z</time>
      </trkpt>
      <trkpt lat="43.4534" lon="-0.57482">
        <ele>172.69</ele>
        <time>2017-01-14T09:39:24Z</time>
      </trkpt>
      <trkpt lat="43.45345" lon="-0.57478">
        <ele>172.21</ele>
        <time>2017-01-14T09:39:25Z</time>
      </trkpt>
      <trkpt lat="43.45347" lon="-0.57472">
        <ele>172.21</ele>
        <time>2017-01-14T09:39:26Z</time>
      </trkpt>
      <trkpt lat="43.45349" lon="-0.57465">
        <ele>172.21</ele>
        <time>2017-01-14T09:39:27Z</time>
      </trkpt>
      <trkpt lat="43.45349" lon="-0.57457">
        <ele>172.21</ele>
        <time>2017-01-14T09:39:28Z</time>
      </trkpt>
      <trkpt lat="43.45348" lon="-0.57449">
        <ele>171.73</ele>
        <time>2017-01-14T09:39:29Z</time>
      </trkpt>
      <trkpt lat="43.45348" lon="-0.5744">
        <ele>171.25</ele>
        <time>2017-01-14T09:39:30Z</time>
      </trkpt>
      <trkpt lat="43.45348" lon="-0.5741">
        <ele>169.33</ele>
        <time>2017-01-14T09:39:33Z</time>
      </trkpt>
      <trkpt lat="43.4535" lon="-0.57388">
        <ele>167.89</ele>
        <time>2017-01-14T09:39:35Z</time>
      </trkpt>
      <trkpt lat="43.4535" lon="-0.57376">
        <ele>167.41</ele>
        <time>2017-01-14T09:39:36Z</time>
      </trkpt>
      <trkpt lat="43.45349" lon="-0.57365">
        <ele>166.93</ele>
        <time>2017-01-14T09:39:37Z</time>
      </trkpt>
      <trkpt lat="43.45346" lon="-0.57354">
        <ele>166.45</ele>
        <time>2017-01-14T09:39:38Z</time>
      </trkpt>
      <trkpt lat="43.45343" lon="-0.57343">
        <ele>165.96</ele>
        <time>2017-01-14T09:39:39Z</time>
      </trkpt>
      <trkpt lat="43.45341" lon="-0.57331">
        <ele>165.48</ele>
        <time>2017-01-14T09:39:40Z</time>
      </trkpt>
      <trkpt lat="43.4534" lon="-0.57319">
        <ele>165.48</ele>
        <time>2017-01-14T09:39:41Z</time>
      </trkpt>
      <trkpt lat="43.45339" lon="-0.57309">
        <ele>165</ele>
        <time>2017-01-14T09:39:42Z</time>
      </trkpt>
      <trkpt lat="43.4534" lon="-0.57298">
        <ele>165</ele>
        <time>2017-01-14T09:39:43Z</time>
      </trkpt>
      <trkpt lat="43.45341" lon="-0.57288">
        <ele>165</ele>
        <time>2017-01-14T09:39:44Z</time>
      </trkpt>
      <trkpt lat="43.45343" lon="-0.57278">
        <ele>165</ele>
        <time>2017-01-14T09:39:45Z</time>
      </trkpt>
      <trkpt lat="43.45348" lon="-0.57242">
        <ele>165</ele>
        <time>2017-01-14T09:39:49Z</time>
      </trkpt>
      <trkpt lat="43.45351" lon="-0.57169">
        <ele>165.96</ele>
        <time>2017-01-14T09:40:01Z</time>
      </trkpt>
      <trkpt lat="43.45349" lon="-0.57123">
        <ele>168.37</ele>
        <time>2017-01-14T09:40:15Z</time>
      </trkpt>
      <trkpt lat="43.45337" lon="-0.57073">
        <ele>169.33</ele>
        <time>2017-01-14T09:40:30Z</time>
      </trkpt>
      <trkpt lat="43.45312" lon="-0.57009">
        <ele>166.93</ele>
        <time>2017-01-14T09:40:46Z</time>
      </trkpt>
      <trkpt lat="43.4528" lon="-0.56946">
        <ele>164.52</ele>
        <time>2017-01-14T09:40:59Z</time>
      </trkpt>
      <trkpt lat="43.45251" lon="-0.56894">
        <ele>164.04</ele>
        <time>2017-01-14T09:41:16Z</time>
      </trkpt>
      <trkpt lat="43.4523" lon="-0.5688">
        <ele>165.48</ele>
        <time>2017-01-14T09:41:29Z</time>
      </trkpt>
      <trkpt lat="43.4523" lon="-0.56876">
        <ele>165.48</ele>
        <time>2017-01-14T09:41:46Z</time>
      </trkpt>
      <trkpt lat="43.45232" lon="-0.56873">
        <ele>166.93</ele>
        <time>2017-01-14T09:42:25Z</time>
      </trkpt>
      <trkpt lat="43.45228" lon="-0.56869">
        <ele>169.81</ele>
        <time>2017-01-14T09:42:59Z</time>
      </trkpt>
      <trkpt lat="43.45224" lon="-0.5687">
        <ele>170.77</ele>
        <time>2017-01-14T09:43:31Z</time>
      </trkpt>
      <trkpt lat="43.45225" lon="-0.56871">
        <ele>171.25</ele>
        <time>2017-01-14T09:43:55Z</time>
      </trkpt>
      <trkpt lat="43.45222" lon="-0.56871">
        <ele>167.41</ele>
        <time>2017-01-14T09:44:25Z</time>
      </trkpt>
      <trkpt lat="43.45225" lon="-0.56874">
        <ele>165.96</ele>
        <time>2017-01-14T09:44:58Z</time>
      </trkpt>
      <trkpt lat="43.45227" lon="-0.56871">
        <ele>165</ele>
        <time>2017-01-14T09:45:13Z</time>
      </trkpt>
      <trkpt lat="43.45228" lon="-0.56869">
        <ele>165</ele>
        <time>2017-01-14T09:45:14Z</time>
      </trkpt>
      <trkpt lat="43.45228" lon="-0.56867">
        <ele>164.52</ele>
        <time>2017-01-14T09:45:15Z</time>
      </trkpt>
      <trkpt lat="43.45234" lon="-0.56821">
        <ele>162.12</ele>
        <time>2017-01-14T09:45:25Z</time>
      </trkpt>
      <trkpt lat="43.45234" lon="-0.56816">
        <ele>162.12</ele>
        <time>2017-01-14T09:45:27Z</time>
      </trkpt>
      <trkpt lat="43.45233" lon="-0.56814">
        <ele>162.12</ele>
        <time>2017-01-14T09:45:31Z</time>
      </trkpt>
      <trkpt lat="43.45234" lon="-0.56818">
        <ele>163.08</ele>
        <time>2017-01-14T09:45:35Z</time>
      </trkpt>
      <trkpt lat="43.45232" lon="-0.5683">
        <ele>163.56</ele>
        <time>2017-01-14T09:45:40Z</time>
      </trkpt>
      <trkpt lat="43.45224" lon="-0.5687">
        <ele>165.96</ele>
        <time>2017-01-14T09:45:56Z</time>
      </trkpt>
      <trkpt lat="43.45222" lon="-0.56872">
        <ele>166.45</ele>
        <time>2017-01-14T09:45:58Z</time>
      </trkpt>
      <trkpt lat="43.45221" lon="-0.56873">
        <ele>166.45</ele>
        <time>2017-01-14T09:45:59Z</time>
      </trkpt>
      <trkpt lat="43.4522" lon="-0.56873">
        <ele>166.45</ele>
        <time>2017-01-14T09:46:00Z</time>
      </trkpt>
      <trkpt lat="43.45218" lon="-0.56873">
        <ele>166.93</ele>
        <time>2017-01-14T09:46:01Z</time>
      </trkpt>
      <trkpt lat="43.45217" lon="-0.56874">
        <ele>166.93</ele>
        <time>2017-01-14T09:46:02Z</time>
      </trkpt>
      <trkpt lat="43.45216" lon="-0.56874">
        <ele>166.93</ele>
        <time>2017-01-14T09:46:03Z</time>
      </trkpt>
      <trkpt lat="43.45214" lon="-0.56875">
        <ele>166.93</ele>
        <time>2017-01-14T09:46:04Z</time>
      </trkpt>
      <trkpt lat="43.45213" lon="-0.56875">
        <ele>166.93</ele>
        <time>2017-01-14T09:46:05Z</time>
      </trkpt>
      <trkpt lat="43.45212" lon="-0.56877">
        <ele>167.41</ele>
        <time>2017-01-14T09:46:06Z</time>
      </trkpt>
      <trkpt lat="43.45211" lon="-0.56878">
        <ele>167.41</ele>
        <time>2017-01-14T09:46:07Z</time>
      </trkpt>
      <trkpt lat="43.4521" lon="-0.5688">
        <ele>167.41</ele>
        <time>2017-01-14T09:46:08Z</time>
      </trkpt>
      <trkpt lat="43.45196" lon="-0.56893">
        <ele>167.89</ele>
        <time>2017-01-14T09:46:20Z</time>
      </trkpt>
      <trkpt lat="43.45174" lon="-0.56899">
        <ele>168.85</ele>
        <time>2017-01-14T09:46:35Z</time>
      </trkpt>
      <trkpt lat="43.45169" lon="-0.56897">
        <ele>168.85</ele>
        <time>2017-01-14T09:46:41Z</time>
      </trkpt>
      <trkpt lat="43.45166" lon="-0.56896">
        <ele>168.37</ele>
        <time>2017-01-14T09:46:47Z</time>
      </trkpt>
      <trkpt lat="43.45165" lon="-0.56897">
        <ele>168.37</ele>
        <time>2017-01-14T09:46:48Z</time>
      </trkpt>
      <trkpt lat="43.45163" lon="-0.56897">
        <ele>168.37</ele>
        <time>2017-01-14T09:46:50Z</time>
      </trkpt>
      <trkpt lat="43.45161" lon="-0.56897">
        <ele>168.85</ele>
        <time>2017-01-14T09:46:51Z</time>
      </trkpt>
      <trkpt lat="43.4516" lon="-0.56895">
        <ele>168.37</ele>
        <time>2017-01-14T09:46:52Z</time>
      </trkpt>
      <trkpt lat="43.45159" lon="-0.56894">
        <ele>168.85</ele>
        <time>2017-01-14T09:46:53Z</time>
      </trkpt>
      <trkpt lat="43.45158" lon="-0.56893">
        <ele>168.85</ele>
        <time>2017-01-14T09:46:54Z</time>
      </trkpt>
      <trkpt lat="43.45157" lon="-0.56892">
        <ele>169.33</ele>
        <time>2017-01-14T09:46:55Z</time>
      </trkpt>
      <trkpt lat="43.45138" lon="-0.56866">
        <ele>172.21</ele>
        <time>2017-01-14T09:47:12Z</time>
      </trkpt>
      <trkpt lat="43.45115" lon="-0.56839">
        <ele>174.62</ele>
        <time>2017-01-14T09:47:29Z</time>
      </trkpt>
      <trkpt lat="43.45096" lon="-0.56853">
        <ele>175.1</ele>
        <time>2017-01-14T09:47:44Z</time>
      </trkpt>
      <trkpt lat="43.45078" lon="-0.56871">
        <ele>178.46</ele>
        <time>2017-01-14T09:48:00Z</time>
      </trkpt>
      <trkpt lat="43.45061" lon="-0.56897">
        <ele>180.87</ele>
        <time>2017-01-14T09:48:19Z</time>
      </trkpt>
      <trkpt lat="43.45046" lon="-0.56911">
        <ele>182.79</ele>
        <time>2017-01-14T09:48:34Z</time>
      </trkpt>
      <trkpt lat="43.45041" lon="-0.56916">
        <ele>184.23</ele>
        <time>2017-01-14T09:48:41Z</time>
      </trkpt>
      <trkpt lat="43.45041" lon="-0.56917">
        <ele>184.71</ele>
        <time>2017-01-14T09:48:42Z</time>
      </trkpt>
      <trkpt lat="43.45033" lon="-0.56921">
        <ele>186.63</ele>
        <time>2017-01-14T09:48:52Z</time>
      </trkpt>
      <trkpt lat="43.45031" lon="-0.56927">
        <ele>190.96</ele>
        <time>2017-01-14T09:49:05Z</time>
      </trkpt>
      <trkpt lat="43.45023" lon="-0.56935">
        <ele>191.92</ele>
        <time>2017-01-14T09:49:18Z</time>
      </trkpt>
      <trkpt lat="43.45009" lon="-0.56955">
        <ele>193.84</ele>
        <time>2017-01-14T09:49:35Z</time>
      </trkpt>
      <trkpt lat="43.44996" lon="-0.56968">
        <ele>194.32</ele>
        <time>2017-01-14T09:49:47Z</time>
      </trkpt>
      <trkpt lat="43.44984" lon="-0.56979">
        <ele>196.25</ele>
        <time>2017-01-14T09:49:57Z</time>
      </trkpt>
      <trkpt lat="43.44978" lon="-0.56999">
        <ele>196.25</ele>
        <time>2017-01-14T09:50:08Z</time>
      </trkpt>
      <trkpt lat="43.44967" lon="-0.57022">
        <ele>198.17</ele>
        <time>2017-01-14T09:50:22Z</time>
      </trkpt>
      <trkpt lat="43.44962" lon="-0.57023">
        <ele>200.57</ele>
        <time>2017-01-14T09:50:27Z</time>
      </trkpt>
      <trkpt lat="43.44952" lon="-0.57011">
        <ele>204.42</ele>
        <time>2017-01-14T09:50:41Z</time>
      </trkpt>
      <trkpt lat="43.44941" lon="-0.56998">
        <ele>208.74</ele>
        <time>2017-01-14T09:50:54Z</time>
      </trkpt>
      <trkpt lat="43.44935" lon="-0.5699">
        <ele>209.22</ele>
        <time>2017-01-14T09:51:00Z</time>
      </trkpt>
      <trkpt lat="43.44914" lon="-0.56974">
        <ele>214.03</ele>
        <time>2017-01-14T09:51:17Z</time>
      </trkpt>
      <trkpt lat="43.44898" lon="-0.56961">
        <ele>214.51</ele>
        <time>2017-01-14T09:51:31Z</time>
      </trkpt>
      <trkpt lat="43.44896" lon="-0.56959">
        <ele>214.51</ele>
        <time>2017-01-14T09:51:32Z</time>
      </trkpt>
      <trkpt lat="43.4488" lon="-0.56947">
        <ele>213.07</ele>
        <time>2017-01-14T09:51:44Z</time>
      </trkpt>
      <trkpt lat="43.44855" lon="-0.56934">
        <ele>215.47</ele>
        <time>2017-01-14T09:52:02Z</time>
      </trkpt>
      <trkpt lat="43.44836" lon="-0.56926">
        <ele>216.91</ele>
        <time>2017-01-14T09:52:15Z</time>
      </trkpt>
      <trkpt lat="43.44814" lon="-0.5693">
        <ele>219.32</ele>
        <time>2017-01-14T09:52:30Z</time>
      </trkpt>
      <trkpt lat="43.44798" lon="-0.56943">
        <ele>221.72</ele>
        <time>2017-01-14T09:52:42Z</time>
      </trkpt>
      <trkpt lat="43.44792" lon="-0.56948">
        <ele>222.68</ele>
        <time>2017-01-14T09:52:58Z</time>
      </trkpt>
      <trkpt lat="43.44791" lon="-0.5695">
        <ele>220.76</ele>
        <time>2017-01-14T09:53:19Z</time>
      </trkpt>
      <trkpt lat="43.44787" lon="-0.56948">
        <ele>221.24</ele>
        <time>2017-01-14T09:53:22Z</time>
      </trkpt>
      <trkpt lat="43.44765" lon="-0.56901">
        <ele>221.72</ele>
        <time>2017-01-14T09:53:36Z</time>
      </trkpt>
      <trkpt lat="43.44741" lon="-0.56851">
        <ele>220.76</ele>
        <time>2017-01-14T09:53:51Z</time>
      </trkpt>
      <trkpt lat="43.44703" lon="-0.56791">
        <ele>222.68</ele>
        <time>2017-01-14T09:54:09Z</time>
      </trkpt>
      <trkpt lat="43.44668" lon="-0.56742">
        <ele>226.05</ele>
        <time>2017-01-14T09:54:25Z</time>
      </trkpt>
      <trkpt lat="43.4463" lon="-0.56689">
        <ele>228.93</ele>
        <time>2017-01-14T09:54:42Z</time>
      </trkpt>
      <trkpt lat="43.44597" lon="-0.56643">
        <ele>230.85</ele>
        <time>2017-01-14T09:54:57Z</time>
      </trkpt>
      <trkpt lat="43.44552" lon="-0.56577">
        <ele>229.89</ele>
        <time>2017-01-14T09:55:16Z</time>
      </trkpt>
      <trkpt lat="43.44503" lon="-0.56505">
        <ele>227.01</ele>
        <time>2017-01-14T09:55:30Z</time>
      </trkpt>
      <trkpt lat="43.44439" lon="-0.56413">
        <ele>226.05</ele>
        <time>2017-01-14T09:55:49Z</time>
      </trkpt>
      <trkpt lat="43.44382" lon="-0.56336">
        <ele>224.12</ele>
        <time>2017-01-14T09:56:07Z</time>
      </trkpt>
      <trkpt lat="43.44378" lon="-0.56332">
        <ele>224.12</ele>
        <time>2017-01-14T09:56:08Z</time>
      </trkpt>
      <trkpt lat="43.44324" lon="-0.56258">
        <ele>221.24</ele>
        <time>2017-01-14T09:56:23Z</time>
      </trkpt>
      <trkpt lat="43.44264" lon="-0.56131">
        <ele>220.28</ele>
        <time>2017-01-14T09:56:41Z</time>
      </trkpt>
      <trkpt lat="43.44225" lon="-0.56017">
        <ele>220.76</ele>
        <time>2017-01-14T09:56:59Z</time>
      </trkpt>
      <trkpt lat="43.44214" lon="-0.55977">
        <ele>220.28</ele>
        <time>2017-01-14T09:57:05Z</time>
      </trkpt>
      <trkpt lat="43.44211" lon="-0.55964">
        <ele>220.28</ele>
        <time>2017-01-14T09:57:07Z</time>
      </trkpt>
      <trkpt lat="43.44181" lon="-0.5586">
        <ele>220.28</ele>
        <time>2017-01-14T09:57:25Z</time>
      </trkpt>
      <trkpt lat="43.44152" lon="-0.55774">
        <ele>221.24</ele>
        <time>2017-01-14T09:57:40Z</time>
      </trkpt>
      <trkpt lat="43.44125" lon="-0.55679">
        <ele>220.76</ele>
        <time>2017-01-14T09:57:56Z</time>
      </trkpt>
      <trkpt lat="43.4407" lon="-0.55558">
        <ele>218.36</ele>
        <time>2017-01-14T09:58:17Z</time>
      </trkpt>
      <trkpt lat="43.44028" lon="-0.55474">
        <ele>219.32</ele>
        <time>2017-01-14T09:58:32Z</time>
      </trkpt>
      <trkpt lat="43.44025" lon="-0.55469">
        <ele>219.32</ele>
        <time>2017-01-14T09:58:33Z</time>
      </trkpt>
      <trkpt lat="43.44021" lon="-0.55464">
        <ele>219.32</ele>
        <time>2017-01-14T09:58:34Z</time>
      </trkpt>
      <trkpt lat="43.44017" lon="-0.5546">
        <ele>219.32</ele>
        <time>2017-01-14T09:58:35Z</time>
      </trkpt>
      <trkpt lat="43.44012" lon="-0.55457">
        <ele>219.32</ele>
        <time>2017-01-14T09:58:36Z</time>
      </trkpt>
      <trkpt lat="43.44008" lon="-0.55454">
        <ele>219.8</ele>
        <time>2017-01-14T09:58:37Z</time>
      </trkpt>
      <trkpt lat="43.44003" lon="-0.55451">
        <ele>219.8</ele>
        <time>2017-01-14T09:58:38Z</time>
      </trkpt>
      <trkpt lat="43.43958" lon="-0.55431">
        <ele>221.24</ele>
        <time>2017-01-14T09:58:51Z</time>
      </trkpt>
      <trkpt lat="43.43909" lon="-0.55406">
        <ele>223.16</ele>
        <time>2017-01-14T09:59:08Z</time>
      </trkpt>
      <trkpt lat="43.43879" lon="-0.55384">
        <ele>225.57</ele>
        <time>2017-01-14T09:59:21Z</time>
      </trkpt>
      <trkpt lat="43.43868" lon="-0.55377">
        <ele>226.53</ele>
        <time>2017-01-14T09:59:27Z</time>
      </trkpt>
      <trkpt lat="43.43867" lon="-0.55378">
        <ele>226.53</ele>
        <time>2017-01-14T09:59:28Z</time>
      </trkpt>
      <trkpt lat="43.43865" lon="-0.55381">
        <ele>227.01</ele>
        <time>2017-01-14T09:59:29Z</time>
      </trkpt>
      <trkpt lat="43.43865" lon="-0.55384">
        <ele>227.01</ele>
        <time>2017-01-14T09:59:30Z</time>
      </trkpt>
      <trkpt lat="43.43864" lon="-0.55388">
        <ele>227.01</ele>
        <time>2017-01-14T09:59:31Z</time>
      </trkpt>
      <trkpt lat="43.43863" lon="-0.55393">
        <ele>227.01</ele>
        <time>2017-01-14T09:59:32Z</time>
      </trkpt>
      <trkpt lat="43.43865" lon="-0.55433">
        <ele>227.01</ele>
        <time>2017-01-14T09:59:42Z</time>
      </trkpt>
      <trkpt lat="43.43867" lon="-0.55464">
        <ele>228.45</ele>
        <time>2017-01-14T09:59:55Z</time>
      </trkpt>
      <trkpt lat="43.43861" lon="-0.55502">
        <ele>230.85</ele>
        <time>2017-01-14T10:00:10Z</time>
      </trkpt>
      <trkpt lat="43.43844" lon="-0.55538">
        <ele>231.33</ele>
        <time>2017-01-14T10:00:27Z</time>
      </trkpt>
      <trkpt lat="43.43827" lon="-0.55579">
        <ele>231.81</ele>
        <time>2017-01-14T10:00:41Z</time>
      </trkpt>
      <trkpt lat="43.43815" lon="-0.55639">
        <ele>233.26</ele>
        <time>2017-01-14T10:00:58Z</time>
      </trkpt>
      <trkpt lat="43.43806" lon="-0.5572">
        <ele>233.74</ele>
        <time>2017-01-14T10:01:18Z</time>
      </trkpt>
      <trkpt lat="43.43797" lon="-0.55771">
        <ele>231.81</ele>
        <time>2017-01-14T10:01:28Z</time>
      </trkpt>
      <trkpt lat="43.43794" lon="-0.55776">
        <ele>231.33</ele>
        <time>2017-01-14T10:01:29Z</time>
      </trkpt>
      <trkpt lat="43.43791" lon="-0.55781">
        <ele>231.33</ele>
        <time>2017-01-14T10:01:30Z</time>
      </trkpt>
      <trkpt lat="43.43784" lon="-0.55791">
        <ele>230.37</ele>
        <time>2017-01-14T10:01:32Z</time>
      </trkpt>
      <trkpt lat="43.43732" lon="-0.55848">
        <ele>224.12</ele>
        <time>2017-01-14T10:01:43Z</time>
      </trkpt>
      <trkpt lat="43.43713" lon="-0.55866">
        <ele>221.72</ele>
        <time>2017-01-14T10:01:47Z</time>
      </trkpt>
      <trkpt lat="43.43708" lon="-0.55868">
        <ele>221.24</ele>
        <time>2017-01-14T10:01:48Z</time>
      </trkpt>
      <trkpt lat="43.43704" lon="-0.55869">
        <ele>220.76</ele>
        <time>2017-01-14T10:01:49Z</time>
      </trkpt>
      <trkpt lat="43.43699" lon="-0.55868">
        <ele>220.28</ele>
        <time>2017-01-14T10:01:50Z</time>
      </trkpt>
      <trkpt lat="43.43694" lon="-0.55866">
        <ele>219.8</ele>
        <time>2017-01-14T10:01:51Z</time>
      </trkpt>
      <trkpt lat="43.43689" lon="-0.55863">
        <ele>219.32</ele>
        <time>2017-01-14T10:01:52Z</time>
      </trkpt>
      <trkpt lat="43.43684" lon="-0.55859">
        <ele>218.36</ele>
        <time>2017-01-14T10:01:53Z</time>
      </trkpt>
      <trkpt lat="43.4368" lon="-0.55854">
        <ele>217.88</ele>
        <time>2017-01-14T10:01:54Z</time>
      </trkpt>
      <trkpt lat="43.43654" lon="-0.55831">
        <ele>215.47</ele>
        <time>2017-01-14T10:01:59Z</time>
      </trkpt>
      <trkpt lat="43.43609" lon="-0.55784">
        <ele>208.26</ele>
        <time>2017-01-14T10:02:08Z</time>
      </trkpt>
      <trkpt lat="43.43585" lon="-0.55762">
        <ele>206.34</ele>
        <time>2017-01-14T10:02:14Z</time>
      </trkpt>
      <trkpt lat="43.43582" lon="-0.55757">
        <ele>205.86</ele>
        <time>2017-01-14T10:02:15Z</time>
      </trkpt>
      <trkpt lat="43.43579" lon="-0.55753">
        <ele>205.86</ele>
        <time>2017-01-14T10:02:16Z</time>
      </trkpt>
      <trkpt lat="43.43577" lon="-0.55749">
        <ele>205.38</ele>
        <time>2017-01-14T10:02:17Z</time>
      </trkpt>
      <trkpt lat="43.43574" lon="-0.55747">
        <ele>205.38</ele>
        <time>2017-01-14T10:02:18Z</time>
      </trkpt>
      <trkpt lat="43.43572" lon="-0.55747">
        <ele>204.9</ele>
        <time>2017-01-14T10:02:19Z</time>
      </trkpt>
      <trkpt lat="43.43571" lon="-0.55748">
        <ele>204.9</ele>
        <time>2017-01-14T10:02:20Z</time>
      </trkpt>
      <trkpt lat="43.43569" lon="-0.5575">
        <ele>204.42</ele>
        <time>2017-01-14T10:02:21Z</time>
      </trkpt>
      <trkpt lat="43.43569" lon="-0.55753">
        <ele>204.42</ele>
        <time>2017-01-14T10:02:22Z</time>
      </trkpt>
      <trkpt lat="43.4357" lon="-0.55777">
        <ele>203.94</ele>
        <time>2017-01-14T10:02:33Z</time>
      </trkpt>
      <trkpt lat="43.4357" lon="-0.55791">
        <ele>207.3</ele>
        <time>2017-01-14T10:02:39Z</time>
      </trkpt>
      <trkpt lat="43.43569" lon="-0.55807">
        <ele>210.19</ele>
        <time>2017-01-14T10:02:47Z</time>
      </trkpt>
      <trkpt lat="43.43567" lon="-0.55828">
        <ele>215.95</ele>
        <time>2017-01-14T10:02:57Z</time>
      </trkpt>
      <trkpt lat="43.43562" lon="-0.55855">
        <ele>220.28</ele>
        <time>2017-01-14T10:03:09Z</time>
      </trkpt>
      <trkpt lat="43.43559" lon="-0.55863">
        <ele>221.24</ele>
        <time>2017-01-14T10:03:13Z</time>
      </trkpt>
      <trkpt lat="43.43548" lon="-0.55902">
        <ele>222.2</ele>
        <time>2017-01-14T10:03:28Z</time>
      </trkpt>
      <trkpt lat="43.43563" lon="-0.55965">
        <ele>217.88</ele>
        <time>2017-01-14T10:03:39Z</time>
      </trkpt>
      <trkpt lat="43.43569" lon="-0.55978">
        <ele>216.91</ele>
        <time>2017-01-14T10:03:41Z</time>
      </trkpt>
      <trkpt lat="43.43594" lon="-0.56034">
        <ele>210.19</ele>
        <time>2017-01-14T10:03:49Z</time>
      </trkpt>
      <trkpt lat="43.436" lon="-0.56054">
        <ele>208.26</ele>
        <time>2017-01-14T10:03:52Z</time>
      </trkpt>
      <trkpt lat="43.43602" lon="-0.5606">
        <ele>207.3</ele>
        <time>2017-01-14T10:03:53Z</time>
      </trkpt>
      <trkpt lat="43.43605" lon="-0.56068">
        <ele>206.82</ele>
        <time>2017-01-14T10:03:54Z</time>
      </trkpt>
      <trkpt lat="43.43608" lon="-0.56076">
        <ele>205.86</ele>
        <time>2017-01-14T10:03:55Z</time>
      </trkpt>
      <trkpt lat="43.43611" lon="-0.56085">
        <ele>204.9</ele>
        <time>2017-01-14T10:03:56Z</time>
      </trkpt>
      <trkpt lat="43.4363" lon="-0.56139">
        <ele>199.13</ele>
        <time>2017-01-14T10:04:02Z</time>
      </trkpt>
      <trkpt lat="43.43633" lon="-0.56153">
        <ele>197.69</ele>
        <time>2017-01-14T10:04:04Z</time>
      </trkpt>
      <trkpt lat="43.43633" lon="-0.5616">
        <ele>196.73</ele>
        <time>2017-01-14T10:04:05Z</time>
      </trkpt>
      <trkpt lat="43.43633" lon="-0.56168">
        <ele>196.25</ele>
        <time>2017-01-14T10:04:06Z</time>
      </trkpt>
      <trkpt lat="43.43632" lon="-0.56176">
        <ele>195.28</ele>
        <time>2017-01-14T10:04:07Z</time>
      </trkpt>
      <trkpt lat="43.43631" lon="-0.56185">
        <ele>194.32</ele>
        <time>2017-01-14T10:04:08Z</time>
      </trkpt>
      <trkpt lat="43.43626" lon="-0.56215">
        <ele>191.44</ele>
        <time>2017-01-14T10:04:11Z</time>
      </trkpt>
      <trkpt lat="43.43626" lon="-0.56227">
        <ele>190.48</ele>
        <time>2017-01-14T10:04:12Z</time>
      </trkpt>
      <trkpt lat="43.43628" lon="-0.56265">
        <ele>187.59</ele>
        <time>2017-01-14T10:04:15Z</time>
      </trkpt>
      <trkpt lat="43.43631" lon="-0.56312">
        <ele>185.67</ele>
        <time>2017-01-14T10:04:19Z</time>
      </trkpt>
      <trkpt lat="43.43628" lon="-0.56351">
        <ele>183.27</ele>
        <time>2017-01-14T10:04:24Z</time>
      </trkpt>
      <trkpt lat="43.43613" lon="-0.56404">
        <ele>178.46</ele>
        <time>2017-01-14T10:04:33Z</time>
      </trkpt>
      <trkpt lat="43.43609" lon="-0.56419">
        <ele>177.5</ele>
        <time>2017-01-14T10:04:35Z</time>
      </trkpt>
      <trkpt lat="43.43604" lon="-0.56469">
        <ele>174.62</ele>
        <time>2017-01-14T10:04:40Z</time>
      </trkpt>
      <trkpt lat="43.43605" lon="-0.5648">
        <ele>173.66</ele>
        <time>2017-01-14T10:04:41Z</time>
      </trkpt>
      <trkpt lat="43.43607" lon="-0.56491">
        <ele>173.17</ele>
        <time>2017-01-14T10:04:42Z</time>
      </trkpt>
      <trkpt lat="43.4361" lon="-0.56501">
        <ele>172.21</ele>
        <time>2017-01-14T10:04:43Z</time>
      </trkpt>
      <trkpt lat="43.43614" lon="-0.56512">
        <ele>171.73</ele>
        <time>2017-01-14T10:04:44Z</time>
      </trkpt>
      <trkpt lat="43.43618" lon="-0.56523">
        <ele>171.25</ele>
        <time>2017-01-14T10:04:45Z</time>
      </trkpt>
      <trkpt lat="43.43639" lon="-0.56576">
        <ele>168.37</ele>
        <time>2017-01-14T10:04:50Z</time>
      </trkpt>
      <trkpt lat="43.43642" lon="-0.56588">
        <ele>167.41</ele>
        <time>2017-01-14T10:04:51Z</time>
      </trkpt>
      <trkpt lat="43.43645" lon="-0.56601">
        <ele>167.41</ele>
        <time>2017-01-14T10:04:52Z</time>
      </trkpt>
      <trkpt lat="43.43647" lon="-0.56613">
        <ele>166.93</ele>
        <time>2017-01-14T10:04:53Z</time>
      </trkpt>
      <trkpt lat="43.43649" lon="-0.56625">
        <ele>166.45</ele>
        <time>2017-01-14T10:04:54Z</time>
      </trkpt>
      <trkpt lat="43.43655" lon="-0.56669">
        <ele>165.48</ele>
        <time>2017-01-14T10:04:58Z</time>
      </trkpt>
      <trkpt lat="43.43655" lon="-0.5668">
        <ele>165.48</ele>
        <time>2017-01-14T10:04:59Z</time>
      </trkpt>
      <trkpt lat="43.43654" lon="-0.5669">
        <ele>165</ele>
        <time>2017-01-14T10:05:00Z</time>
      </trkpt>
      <trkpt lat="43.43653" lon="-0.567">
        <ele>164.52</ele>
        <time>2017-01-14T10:05:01Z</time>
      </trkpt>
      <trkpt lat="43.43651" lon="-0.56709">
        <ele>164.04</ele>
        <time>2017-01-14T10:05:02Z</time>
      </trkpt>
      <trkpt lat="43.43646" lon="-0.56739">
        <ele>161.64</ele>
        <time>2017-01-14T10:05:06Z</time>
      </trkpt>
      <trkpt lat="43.43646" lon="-0.56745">
        <ele>161.16</ele>
        <time>2017-01-14T10:05:07Z</time>
      </trkpt>
      <trkpt lat="43.43646" lon="-0.56749">
        <ele>160.68</ele>
        <time>2017-01-14T10:05:08Z</time>
      </trkpt>
      <trkpt lat="43.43646" lon="-0.56752">
        <ele>160.2</ele>
        <time>2017-01-14T10:05:09Z</time>
      </trkpt>
      <trkpt lat="43.43645" lon="-0.56755">
        <ele>159.72</ele>
        <time>2017-01-14T10:05:10Z</time>
      </trkpt>
      <trkpt lat="43.43643" lon="-0.56758">
        <ele>159.72</ele>
        <time>2017-01-14T10:05:11Z</time>
      </trkpt>
      <trkpt lat="43.4364" lon="-0.5676">
        <ele>159.24</ele>
        <time>2017-01-14T10:05:12Z</time>
      </trkpt>
      <trkpt lat="43.43614" lon="-0.56789">
        <ele>155.87</ele>
        <time>2017-01-14T10:05:18Z</time>
      </trkpt>
      <trkpt lat="43.43601" lon="-0.56802">
        <ele>154.91</ele>
        <time>2017-01-14T10:05:21Z</time>
      </trkpt>
      <trkpt lat="43.43587" lon="-0.56811">
        <ele>152.99</ele>
        <time>2017-01-14T10:05:25Z</time>
      </trkpt>
      <trkpt lat="43.43576" lon="-0.56834">
        <ele>148.18</ele>
        <time>2017-01-14T10:05:33Z</time>
      </trkpt>
      <trkpt lat="43.43572" lon="-0.56827">
        <ele>146.74</ele>
        <time>2017-01-14T10:05:37Z</time>
      </trkpt>
      <trkpt lat="43.43571" lon="-0.56824">
        <ele>146.74</ele>
        <time>2017-01-14T10:05:38Z</time>
      </trkpt>
      <trkpt lat="43.43542" lon="-0.56767">
        <ele>143.85</ele>
        <time>2017-01-14T10:05:50Z</time>
      </trkpt>
      <trkpt lat="43.43539" lon="-0.56762">
        <ele>143.37</ele>
        <time>2017-01-14T10:05:51Z</time>
      </trkpt>
      <trkpt lat="43.43537" lon="-0.56756">
        <ele>143.37</ele>
        <time>2017-01-14T10:05:52Z</time>
      </trkpt>
      <trkpt lat="43.43535" lon="-0.56751">
        <ele>143.37</ele>
        <time>2017-01-14T10:05:53Z</time>
      </trkpt>
      <trkpt lat="43.43534" lon="-0.56746">
        <ele>143.85</ele>
        <time>2017-01-14T10:05:54Z</time>
      </trkpt>
      <trkpt lat="43.43533" lon="-0.56741">
        <ele>143.85</ele>
        <time>2017-01-14T10:05:55Z</time>
      </trkpt>
      <trkpt lat="43.43522" lon="-0.56669">
        <ele>147.7</ele>
        <time>2017-01-14T10:06:11Z</time>
      </trkpt>
      <trkpt lat="43.43501" lon="-0.5662">
        <ele>148.66</ele>
        <time>2017-01-14T10:06:24Z</time>
      </trkpt>
      <trkpt lat="43.43498" lon="-0.56617">
        <ele>148.66</ele>
        <time>2017-01-14T10:06:27Z</time>
      </trkpt>
      <trkpt lat="43.43493" lon="-0.56621">
        <ele>147.7</ele>
        <time>2017-01-14T10:06:35Z</time>
      </trkpt>
      <trkpt lat="43.43492" lon="-0.56623">
        <ele>148.18</ele>
        <time>2017-01-14T10:07:13Z</time>
      </trkpt>
      <trkpt lat="43.43494" lon="-0.56619">
        <ele>147.7</ele>
        <time>2017-01-14T10:07:36Z</time>
      </trkpt>
      <trkpt lat="43.43496" lon="-0.56617">
        <ele>148.18</ele>
        <time>2017-01-14T10:07:40Z</time>
      </trkpt>
      <trkpt lat="43.43479" lon="-0.56575">
        <ele>147.7</ele>
        <time>2017-01-14T10:07:54Z</time>
      </trkpt>
      <trkpt lat="43.43451" lon="-0.56556">
        <ele>146.26</ele>
        <time>2017-01-14T10:08:04Z</time>
      </trkpt>
      <trkpt lat="43.43441" lon="-0.56566">
        <ele>145.3</ele>
        <time>2017-01-14T10:08:07Z</time>
      </trkpt>
      <trkpt lat="43.4338" lon="-0.56626">
        <ele>140.49</ele>
        <time>2017-01-14T10:08:20Z</time>
      </trkpt>
      <trkpt lat="43.43293" lon="-0.567">
        <ele>135.68</ele>
        <time>2017-01-14T10:08:37Z</time>
      </trkpt>
      <trkpt lat="43.43278" lon="-0.56715">
        <ele>135.68</ele>
        <time>2017-01-14T10:08:41Z</time>
      </trkpt>
      <trkpt lat="43.43274" lon="-0.56718">
        <ele>135.2</ele>
        <time>2017-01-14T10:08:42Z</time>
      </trkpt>
      <trkpt lat="43.43246" lon="-0.56743">
        <ele>134.72</ele>
        <time>2017-01-14T10:08:50Z</time>
      </trkpt>
      <trkpt lat="43.43242" lon="-0.56745">
        <ele>134.72</ele>
        <time>2017-01-14T10:08:51Z</time>
      </trkpt>
      <trkpt lat="43.43228" lon="-0.56757">
        <ele>134.24</ele>
        <time>2017-01-14T10:08:55Z</time>
      </trkpt>
      <trkpt lat="43.43212" lon="-0.56775">
        <ele>133.76</ele>
        <time>2017-01-14T10:09:05Z</time>
      </trkpt>
      <trkpt lat="43.43202" lon="-0.56795">
        <ele>133.76</ele>
        <time>2017-01-14T10:09:19Z</time>
      </trkpt>
      <trkpt lat="43.43211" lon="-0.56847">
        <ele>133.76</ele>
        <time>2017-01-14T10:09:31Z</time>
      </trkpt>
      <trkpt lat="43.43232" lon="-0.56918">
        <ele>133.76</ele>
        <time>2017-01-14T10:09:45Z</time>
      </trkpt>
      <trkpt lat="43.43253" lon="-0.56993">
        <ele>131.84</ele>
        <time>2017-01-14T10:09:58Z</time>
      </trkpt>
      <trkpt lat="43.4326" lon="-0.57023">
        <ele>131.84</ele>
        <time>2017-01-14T10:10:03Z</time>
      </trkpt>
      <trkpt lat="43.43264" lon="-0.57047">
        <ele>131.36</ele>
        <time>2017-01-14T10:10:07Z</time>
      </trkpt>
      <trkpt lat="43.43265" lon="-0.57054">
        <ele>131.36</ele>
        <time>2017-01-14T10:10:08Z</time>
      </trkpt>
      <trkpt lat="43.43264" lon="-0.5706">
        <ele>131.36</ele>
        <time>2017-01-14T10:10:09Z</time>
      </trkpt>
      <trkpt lat="43.43263" lon="-0.57065">
        <ele>131.36</ele>
        <time>2017-01-14T10:10:10Z</time>
      </trkpt>
      <trkpt lat="43.4326" lon="-0.5707">
        <ele>131.36</ele>
        <time>2017-01-14T10:10:11Z</time>
      </trkpt>
      <trkpt lat="43.43257" lon="-0.57074">
        <ele>131.36</ele>
        <time>2017-01-14T10:10:12Z</time>
      </trkpt>
      <trkpt lat="43.43253" lon="-0.57077">
        <ele>131.36</ele>
        <time>2017-01-14T10:10:13Z</time>
      </trkpt>
      <trkpt lat="43.43249" lon="-0.57079">
        <ele>131.36</ele>
        <time>2017-01-14T10:10:14Z</time>
      </trkpt>
      <trkpt lat="43.43244" lon="-0.57082">
        <ele>131.36</ele>
        <time>2017-01-14T10:10:15Z</time>
      </trkpt>
      <trkpt lat="43.43218" lon="-0.57095">
        <ele>131.84</ele>
        <time>2017-01-14T10:10:21Z</time>
      </trkpt>
      <trkpt lat="43.43214" lon="-0.57099">
        <ele>131.36</ele>
        <time>2017-01-14T10:10:22Z</time>
      </trkpt>
      <trkpt lat="43.4321" lon="-0.57103">
        <ele>131.36</ele>
        <time>2017-01-14T10:10:23Z</time>
      </trkpt>
      <trkpt lat="43.43207" lon="-0.57108">
        <ele>131.36</ele>
        <time>2017-01-14T10:10:24Z</time>
      </trkpt>
      <trkpt lat="43.43205" lon="-0.57115">
        <ele>130.88</ele>
        <time>2017-01-14T10:10:25Z</time>
      </trkpt>
      <trkpt lat="43.43205" lon="-0.57121">
        <ele>130.88</ele>
        <time>2017-01-14T10:10:26Z</time>
      </trkpt>
      <trkpt lat="43.43205" lon="-0.57127">
        <ele>130.88</ele>
        <time>2017-01-14T10:10:27Z</time>
      </trkpt>
      <trkpt lat="43.43207" lon="-0.57133">
        <ele>130.88</ele>
        <time>2017-01-14T10:10:28Z</time>
      </trkpt>
      <trkpt lat="43.43209" lon="-0.57139">
        <ele>130.88</ele>
        <time>2017-01-14T10:10:29Z</time>
      </trkpt>
      <trkpt lat="43.43233" lon="-0.57216">
        <ele>129.92</ele>
        <time>2017-01-14T10:10:41Z</time>
      </trkpt>
      <trkpt lat="43.43234" lon="-0.57223">
        <ele>129.92</ele>
        <time>2017-01-14T10:10:42Z</time>
      </trkpt>
      <trkpt lat="43.43245" lon="-0.5727">
        <ele>129.43</ele>
        <time>2017-01-14T10:10:50Z</time>
      </trkpt>
      <trkpt lat="43.43256" lon="-0.57298">
        <ele>129.43</ele>
        <time>2017-01-14T10:10:55Z</time>
      </trkpt>
      <trkpt lat="43.43258" lon="-0.57304">
        <ele>129.43</ele>
        <time>2017-01-14T10:10:56Z</time>
      </trkpt>
      <trkpt lat="43.43281" lon="-0.57363">
        <ele>132.32</ele>
        <time>2017-01-14T10:11:09Z</time>
      </trkpt>
      <trkpt lat="43.4329" lon="-0.57385">
        <ele>132.8</ele>
        <time>2017-01-14T10:11:17Z</time>
      </trkpt>
      <trkpt lat="43.43294" lon="-0.57452">
        <ele>132.32</ele>
        <time>2017-01-14T10:11:29Z</time>
      </trkpt>
      <trkpt lat="43.43307" lon="-0.57538">
        <ele>132.32</ele>
        <time>2017-01-14T10:11:44Z</time>
      </trkpt>
      <trkpt lat="43.4331" lon="-0.57549">
        <ele>132.32</ele>
        <time>2017-01-14T10:11:46Z</time>
      </trkpt>
      <trkpt lat="43.43311" lon="-0.57554">
        <ele>132.32</ele>
        <time>2017-01-14T10:11:47Z</time>
      </trkpt>
      <trkpt lat="43.43313" lon="-0.57559">
        <ele>132.32</ele>
        <time>2017-01-14T10:11:48Z</time>
      </trkpt>
      <trkpt lat="43.4333" lon="-0.57616">
        <ele>131.84</ele>
        <time>2017-01-14T10:12:02Z</time>
      </trkpt>
      <trkpt lat="43.43356" lon="-0.57689">
        <ele>129.43</ele>
        <time>2017-01-14T10:12:16Z</time>
      </trkpt>
      <trkpt lat="43.43397" lon="-0.57754">
        <ele>128.95</ele>
        <time>2017-01-14T10:12:30Z</time>
      </trkpt>
      <trkpt lat="43.43416" lon="-0.57785">
        <ele>128.47</ele>
        <time>2017-01-14T10:12:37Z</time>
      </trkpt>
      <trkpt lat="43.43465" lon="-0.57827">
        <ele>128.95</ele>
        <time>2017-01-14T10:12:51Z</time>
      </trkpt>
      <trkpt lat="43.43524" lon="-0.57878">
        <ele>128.47</ele>
        <time>2017-01-14T10:13:07Z</time>
      </trkpt>
      <trkpt lat="43.43567" lon="-0.57914">
        <ele>128.47</ele>
        <time>2017-01-14T10:13:19Z</time>
      </trkpt>
      <trkpt lat="43.43573" lon="-0.57922">
        <ele>128.95</ele>
        <time>2017-01-14T10:13:21Z</time>
      </trkpt>
      <trkpt lat="43.43614" lon="-0.57987">
        <ele>127.99</ele>
        <time>2017-01-14T10:13:36Z</time>
      </trkpt>
      <trkpt lat="43.43639" lon="-0.58031">
        <ele>127.99</ele>
        <time>2017-01-14T10:13:45Z</time>
      </trkpt>
      <trkpt lat="43.43641" lon="-0.58036">
        <ele>127.99</ele>
        <time>2017-01-14T10:13:46Z</time>
      </trkpt>
      <trkpt lat="43.43675" lon="-0.58105">
        <ele>129.43</ele>
        <time>2017-01-14T10:14:01Z</time>
      </trkpt>
      <trkpt lat="43.4368" lon="-0.58114">
        <ele>129.43</ele>
        <time>2017-01-14T10:14:03Z</time>
      </trkpt>
      <trkpt lat="43.43732" lon="-0.58201">
        <ele>130.4</ele>
        <time>2017-01-14T10:14:22Z</time>
      </trkpt>
      <trkpt lat="43.43748" lon="-0.58227">
        <ele>130.4</ele>
        <time>2017-01-14T10:14:28Z</time>
      </trkpt>
      <trkpt lat="43.43752" lon="-0.58237">
        <ele>130.4</ele>
        <time>2017-01-14T10:14:30Z</time>
      </trkpt>
      <trkpt lat="43.43787" lon="-0.58295">
        <ele>129.92</ele>
        <time>2017-01-14T10:14:42Z</time>
      </trkpt>
      <trkpt lat="43.43789" lon="-0.583">
        <ele>129.92</ele>
        <time>2017-01-14T10:14:43Z</time>
      </trkpt>
      <trkpt lat="43.43842" lon="-0.58386">
        <ele>129.92</ele>
        <time>2017-01-14T10:15:02Z</time>
      </trkpt>
      <trkpt lat="43.43869" lon="-0.58431">
        <ele>129.92</ele>
        <time>2017-01-14T10:15:15Z</time>
      </trkpt>
      <trkpt lat="43.43868" lon="-0.58435">
        <ele>129.92</ele>
        <time>2017-01-14T10:15:16Z</time>
      </trkpt>
      <trkpt lat="43.43866" lon="-0.58438">
        <ele>129.92</ele>
        <time>2017-01-14T10:15:17Z</time>
      </trkpt>
      <trkpt lat="43.43863" lon="-0.58442">
        <ele>129.92</ele>
        <time>2017-01-14T10:15:18Z</time>
      </trkpt>
      <trkpt lat="43.43861" lon="-0.58444">
        <ele>129.92</ele>
        <time>2017-01-14T10:15:19Z</time>
      </trkpt>
      <trkpt lat="43.43857" lon="-0.58447">
        <ele>129.92</ele>
        <time>2017-01-14T10:15:20Z</time>
      </trkpt>
      <trkpt lat="43.43814" lon="-0.58497">
        <ele>129.92</ele>
        <time>2017-01-14T10:15:33Z</time>
      </trkpt>
      <trkpt lat="43.43811" lon="-0.58502">
        <ele>129.92</ele>
        <time>2017-01-14T10:15:34Z</time>
      </trkpt>
      <trkpt lat="43.43809" lon="-0.58507">
        <ele>129.92</ele>
        <time>2017-01-14T10:15:35Z</time>
      </trkpt>
      <trkpt lat="43.43807" lon="-0.58513">
        <ele>129.92</ele>
        <time>2017-01-14T10:15:36Z</time>
      </trkpt>
      <trkpt lat="43.43807" lon="-0.58518">
        <ele>129.92</ele>
        <time>2017-01-14T10:15:37Z</time>
      </trkpt>
      <trkpt lat="43.43806" lon="-0.58522">
        <ele>129.92</ele>
        <time>2017-01-14T10:15:38Z</time>
      </trkpt>
      <trkpt lat="43.43806" lon="-0.58525">
        <ele>129.92</ele>
        <time>2017-01-14T10:15:39Z</time>
      </trkpt>
      <trkpt lat="43.43806" lon="-0.58527">
        <ele>129.92</ele>
        <time>2017-01-14T10:15:40Z</time>
      </trkpt>
      <trkpt lat="43.43805" lon="-0.5853">
        <ele>129.92</ele>
        <time>2017-01-14T10:15:41Z</time>
      </trkpt>
      <trkpt lat="43.43803" lon="-0.58534">
        <ele>129.92</ele>
        <time>2017-01-14T10:15:42Z</time>
      </trkpt>
      <trkpt lat="43.43801" lon="-0.58539">
        <ele>129.43</ele>
        <time>2017-01-14T10:15:43Z</time>
      </trkpt>
      <trkpt lat="43.43797" lon="-0.58543">
        <ele>128.95</ele>
        <time>2017-01-14T10:15:44Z</time>
      </trkpt>
      <trkpt lat="43.43793" lon="-0.58546">
        <ele>128.95</ele>
        <time>2017-01-14T10:15:45Z</time>
      </trkpt>
      <trkpt lat="43.43724" lon="-0.58609">
        <ele>126.55</ele>
        <time>2017-01-14T10:16:00Z</time>
      </trkpt>
      <trkpt lat="43.43642" lon="-0.58697">
        <ele>124.15</ele>
        <time>2017-01-14T10:16:18Z</time>
      </trkpt>
      <trkpt lat="43.43593" lon="-0.58746">
        <ele>124.63</ele>
        <time>2017-01-14T10:16:32Z</time>
      </trkpt>
      <trkpt lat="43.43554" lon="-0.58773">
        <ele>125.11</ele>
        <time>2017-01-14T10:16:42Z</time>
      </trkpt>
      <trkpt lat="43.43542" lon="-0.58777">
        <ele>124.63</ele>
        <time>2017-01-14T10:16:45Z</time>
      </trkpt>
      <trkpt lat="43.43515" lon="-0.58776">
        <ele>124.63</ele>
        <time>2017-01-14T10:16:51Z</time>
      </trkpt>
      <trkpt lat="43.4346" lon="-0.58739">
        <ele>125.59</ele>
        <time>2017-01-14T10:17:06Z</time>
      </trkpt>
      <trkpt lat="43.43414" lon="-0.58692">
        <ele>130.4</ele>
        <time>2017-01-14T10:17:23Z</time>
      </trkpt>
      <trkpt lat="43.43381" lon="-0.58652">
        <ele>134.24</ele>
        <time>2017-01-14T10:17:41Z</time>
      </trkpt>
      <trkpt lat="43.43364" lon="-0.5862">
        <ele>135.68</ele>
        <time>2017-01-14T10:17:55Z</time>
      </trkpt>
      <trkpt lat="43.43344" lon="-0.58577">
        <ele>136.64</ele>
        <time>2017-01-14T10:18:11Z</time>
      </trkpt>
      <trkpt lat="43.43321" lon="-0.58534">
        <ele>136.64</ele>
        <time>2017-01-14T10:18:27Z</time>
      </trkpt>
      <trkpt lat="43.43305" lon="-0.58489">
        <ele>141.45</ele>
        <time>2017-01-14T10:18:42Z</time>
      </trkpt>
      <trkpt lat="43.43275" lon="-0.58453">
        <ele>145.3</ele>
        <time>2017-01-14T10:18:59Z</time>
      </trkpt>
      <trkpt lat="43.43273" lon="-0.58413">
        <ele>149.62</ele>
        <time>2017-01-14T10:19:13Z</time>
      </trkpt>
      <trkpt lat="43.43277" lon="-0.58401">
        <ele>150.58</ele>
        <time>2017-01-14T10:19:17Z</time>
      </trkpt>
      <trkpt lat="43.43278" lon="-0.58398">
        <ele>151.54</ele>
        <time>2017-01-14T10:19:18Z</time>
      </trkpt>
      <trkpt lat="43.43279" lon="-0.58394">
        <ele>151.54</ele>
        <time>2017-01-14T10:19:19Z</time>
      </trkpt>
      <trkpt lat="43.43279" lon="-0.58391">
        <ele>152.03</ele>
        <time>2017-01-14T10:19:20Z</time>
      </trkpt>
      <trkpt lat="43.4328" lon="-0.58388">
        <ele>152.03</ele>
        <time>2017-01-14T10:19:21Z</time>
      </trkpt>
      <trkpt lat="43.4328" lon="-0.58385">
        <ele>152.03</ele>
        <time>2017-01-14T10:19:22Z</time>
      </trkpt>
      <trkpt lat="43.43277" lon="-0.58353">
        <ele>153.47</ele>
        <time>2017-01-14T10:19:33Z</time>
      </trkpt>
      <trkpt lat="43.43248" lon="-0.58341">
        <ele>153.95</ele>
        <time>2017-01-14T10:19:46Z</time>
      </trkpt>
      <trkpt lat="43.43246" lon="-0.58342">
        <ele>153.95</ele>
        <time>2017-01-14T10:19:47Z</time>
      </trkpt>
      <trkpt lat="43.43243" lon="-0.58344">
        <ele>154.43</ele>
        <time>2017-01-14T10:19:48Z</time>
      </trkpt>
      <trkpt lat="43.43207" lon="-0.58359">
        <ele>156.83</ele>
        <time>2017-01-14T10:20:04Z</time>
      </trkpt>
      <trkpt lat="43.43168" lon="-0.58362">
        <ele>157.79</ele>
        <time>2017-01-14T10:20:19Z</time>
      </trkpt>
      <trkpt lat="43.43129" lon="-0.58337">
        <ele>158.75</ele>
        <time>2017-01-14T10:20:38Z</time>
      </trkpt>
      <trkpt lat="43.4312" lon="-0.58296">
        <ele>160.68</ele>
        <time>2017-01-14T10:20:52Z</time>
      </trkpt>
      <trkpt lat="43.43112" lon="-0.5826">
        <ele>162.6</ele>
        <time>2017-01-14T10:21:04Z</time>
      </trkpt>
      <trkpt lat="43.43079" lon="-0.58239">
        <ele>164.04</ele>
        <time>2017-01-14T10:21:18Z</time>
      </trkpt>
      <trkpt lat="43.43023" lon="-0.5822">
        <ele>160.2</ele>
        <time>2017-01-14T10:21:30Z</time>
      </trkpt>
      <trkpt lat="43.42918" lon="-0.58186">
        <ele>153.47</ele>
        <time>2017-01-14T10:21:44Z</time>
      </trkpt>
      <trkpt lat="43.42806" lon="-0.5819">
        <ele>145.3</ele>
        <time>2017-01-14T10:21:56Z</time>
      </trkpt>
      <trkpt lat="43.4275" lon="-0.58192">
        <ele>141.93</ele>
        <time>2017-01-14T10:22:02Z</time>
      </trkpt>
      <trkpt lat="43.42742" lon="-0.58188">
        <ele>141.45</ele>
        <time>2017-01-14T10:22:03Z</time>
      </trkpt>
      <trkpt lat="43.42734" lon="-0.58183">
        <ele>140.49</ele>
        <time>2017-01-14T10:22:04Z</time>
      </trkpt>
      <trkpt lat="43.42727" lon="-0.58176">
        <ele>140.01</ele>
        <time>2017-01-14T10:22:05Z</time>
      </trkpt>
      <trkpt lat="43.42721" lon="-0.58169">
        <ele>140.01</ele>
        <time>2017-01-14T10:22:06Z</time>
      </trkpt>
      <trkpt lat="43.42699" lon="-0.58146">
        <ele>139.53</ele>
        <time>2017-01-14T10:22:11Z</time>
      </trkpt>
      <trkpt lat="43.42696" lon="-0.58147">
        <ele>139.53</ele>
        <time>2017-01-14T10:22:12Z</time>
      </trkpt>
      <trkpt lat="43.42694" lon="-0.58149">
        <ele>139.53</ele>
        <time>2017-01-14T10:22:13Z</time>
      </trkpt>
      <trkpt lat="43.42693" lon="-0.58152">
        <ele>139.53</ele>
        <time>2017-01-14T10:22:14Z</time>
      </trkpt>
      <trkpt lat="43.42692" lon="-0.58155">
        <ele>139.53</ele>
        <time>2017-01-14T10:22:15Z</time>
      </trkpt>
      <trkpt lat="43.42679" lon="-0.58211">
        <ele>139.53</ele>
        <time>2017-01-14T10:22:27Z</time>
      </trkpt>
      <trkpt lat="43.42693" lon="-0.58268">
        <ele>139.53</ele>
        <time>2017-01-14T10:22:39Z</time>
      </trkpt>
      <trkpt lat="43.42699" lon="-0.58294">
        <ele>140.01</ele>
        <time>2017-01-14T10:22:44Z</time>
      </trkpt>
      <trkpt lat="43.42723" lon="-0.58397">
        <ele>140.01</ele>
        <time>2017-01-14T10:23:02Z</time>
      </trkpt>
      <trkpt lat="43.42729" lon="-0.58438">
        <ele>138.57</ele>
        <time>2017-01-14T10:23:10Z</time>
      </trkpt>
      <trkpt lat="43.42726" lon="-0.58443">
        <ele>138.57</ele>
        <time>2017-01-14T10:23:11Z</time>
      </trkpt>
      <trkpt lat="43.42722" lon="-0.58446">
        <ele>138.09</ele>
        <time>2017-01-14T10:23:12Z</time>
      </trkpt>
      <trkpt lat="43.42718" lon="-0.58447">
        <ele>137.61</ele>
        <time>2017-01-14T10:23:13Z</time>
      </trkpt>
      <trkpt lat="43.42715" lon="-0.58445">
        <ele>137.61</ele>
        <time>2017-01-14T10:23:14Z</time>
      </trkpt>
      <trkpt lat="43.42712" lon="-0.58443">
        <ele>137.13</ele>
        <time>2017-01-14T10:23:15Z</time>
      </trkpt>
      <trkpt lat="43.42709" lon="-0.58441">
        <ele>136.64</ele>
        <time>2017-01-14T10:23:16Z</time>
      </trkpt>
      <trkpt lat="43.42706" lon="-0.58439">
        <ele>136.64</ele>
        <time>2017-01-14T10:23:17Z</time>
      </trkpt>
      <trkpt lat="43.42702" lon="-0.58437">
        <ele>136.64</ele>
        <time>2017-01-14T10:23:18Z</time>
      </trkpt>
      <trkpt lat="43.42699" lon="-0.58436">
        <ele>136.64</ele>
        <time>2017-01-14T10:23:19Z</time>
      </trkpt>
      <trkpt lat="43.42691" lon="-0.58433">
        <ele>136.16</ele>
        <time>2017-01-14T10:23:21Z</time>
      </trkpt>
      <trkpt lat="43.42687" lon="-0.58432">
        <ele>136.16</ele>
        <time>2017-01-14T10:23:22Z</time>
      </trkpt>
      <trkpt lat="43.42682" lon="-0.58432">
        <ele>136.16</ele>
        <time>2017-01-14T10:23:23Z</time>
      </trkpt>
      <trkpt lat="43.42678" lon="-0.58432">
        <ele>136.16</ele>
        <time>2017-01-14T10:23:24Z</time>
      </trkpt>
      <trkpt lat="43.42673" lon="-0.58433">
        <ele>135.68</ele>
        <time>2017-01-14T10:23:25Z</time>
      </trkpt>
      <trkpt lat="43.42605" lon="-0.58459">
        <ele>133.76</ele>
        <time>2017-01-14T10:23:40Z</time>
      </trkpt>
      <trkpt lat="43.426" lon="-0.58461">
        <ele>133.76</ele>
        <time>2017-01-14T10:23:41Z</time>
      </trkpt>
      <trkpt lat="43.42596" lon="-0.58462">
        <ele>133.76</ele>
        <time>2017-01-14T10:23:42Z</time>
      </trkpt>
      <trkpt lat="43.42591" lon="-0.58464">
        <ele>133.76</ele>
        <time>2017-01-14T10:23:43Z</time>
      </trkpt>
      <trkpt lat="43.42585" lon="-0.58466">
        <ele>133.28</ele>
        <time>2017-01-14T10:23:44Z</time>
      </trkpt>
      <trkpt lat="43.4257" lon="-0.58472">
        <ele>133.28</ele>
        <time>2017-01-14T10:23:47Z</time>
      </trkpt>
      <trkpt lat="43.42565" lon="-0.58475">
        <ele>133.28</ele>
        <time>2017-01-14T10:23:48Z</time>
      </trkpt>
      <trkpt lat="43.425" lon="-0.58514">
        <ele>132.32</ele>
        <time>2017-01-14T10:24:02Z</time>
      </trkpt>
      <trkpt lat="43.42446" lon="-0.58541">
        <ele>131.36</ele>
        <time>2017-01-14T10:24:14Z</time>
      </trkpt>
      <trkpt lat="43.42442" lon="-0.58542">
        <ele>130.88</ele>
        <time>2017-01-14T10:24:15Z</time>
      </trkpt>
      <trkpt lat="43.42437" lon="-0.58544">
        <ele>130.88</ele>
        <time>2017-01-14T10:24:16Z</time>
      </trkpt>
      <trkpt lat="43.42432" lon="-0.58545">
        <ele>130.88</ele>
        <time>2017-01-14T10:24:17Z</time>
      </trkpt>
      <trkpt lat="43.42427" lon="-0.58546">
        <ele>130.88</ele>
        <time>2017-01-14T10:24:18Z</time>
      </trkpt>
      <trkpt lat="43.42408" lon="-0.58549">
        <ele>130.88</ele>
        <time>2017-01-14T10:24:22Z</time>
      </trkpt>
      <trkpt lat="43.42367" lon="-0.58553">
        <ele>130.88</ele>
        <time>2017-01-14T10:24:31Z</time>
      </trkpt>
      <trkpt lat="43.42353" lon="-0.58555">
        <ele>130.88</ele>
        <time>2017-01-14T10:24:34Z</time>
      </trkpt>
      <trkpt lat="43.42348" lon="-0.58557">
        <ele>130.88</ele>
        <time>2017-01-14T10:24:35Z</time>
      </trkpt>
      <trkpt lat="43.42344" lon="-0.5856">
        <ele>130.88</ele>
        <time>2017-01-14T10:24:36Z</time>
      </trkpt>
      <trkpt lat="43.42328" lon="-0.58572">
        <ele>129.92</ele>
        <time>2017-01-14T10:24:40Z</time>
      </trkpt>
      <trkpt lat="43.42319" lon="-0.58575">
        <ele>129.92</ele>
        <time>2017-01-14T10:24:42Z</time>
      </trkpt>
      <trkpt lat="43.42312" lon="-0.58581">
        <ele>129.43</ele>
        <time>2017-01-14T10:24:44Z</time>
      </trkpt>
      <trkpt lat="43.42309" lon="-0.58585">
        <ele>129.43</ele>
        <time>2017-01-14T10:24:45Z</time>
      </trkpt>
      <trkpt lat="43.42307" lon="-0.5859">
        <ele>129.43</ele>
        <time>2017-01-14T10:24:46Z</time>
      </trkpt>
      <trkpt lat="43.42307" lon="-0.58596">
        <ele>129.43</ele>
        <time>2017-01-14T10:24:47Z</time>
      </trkpt>
      <trkpt lat="43.42309" lon="-0.58601">
        <ele>129.43</ele>
        <time>2017-01-14T10:24:48Z</time>
      </trkpt>
      <trkpt lat="43.42312" lon="-0.58606">
        <ele>129.43</ele>
        <time>2017-01-14T10:24:49Z</time>
      </trkpt>
      <trkpt lat="43.42315" lon="-0.5861">
        <ele>129.43</ele>
        <time>2017-01-14T10:24:50Z</time>
      </trkpt>
      <trkpt lat="43.42318" lon="-0.58615">
        <ele>129.43</ele>
        <time>2017-01-14T10:24:51Z</time>
      </trkpt>
      <trkpt lat="43.4234" lon="-0.58647">
        <ele>129.43</ele>
        <time>2017-01-14T10:24:58Z</time>
      </trkpt>
      <trkpt lat="43.42347" lon="-0.58656">
        <ele>129.43</ele>
        <time>2017-01-14T10:25:00Z</time>
      </trkpt>
      <trkpt lat="43.4235" lon="-0.5866">
        <ele>129.43</ele>
        <time>2017-01-14T10:25:01Z</time>
      </trkpt>
      <trkpt lat="43.42362" lon="-0.5868">
        <ele>128.95</ele>
        <time>2017-01-14T10:25:05Z</time>
      </trkpt>
      <trkpt lat="43.42391" lon="-0.5872">
        <ele>129.43</ele>
        <time>2017-01-14T10:25:14Z</time>
      </trkpt>
      <trkpt lat="43.42393" lon="-0.58725">
        <ele>129.43</ele>
        <time>2017-01-14T10:25:15Z</time>
      </trkpt>
      <trkpt lat="43.42395" lon="-0.5873">
        <ele>129.43</ele>
        <time>2017-01-14T10:25:16Z</time>
      </trkpt>
      <trkpt lat="43.42396" lon="-0.58735">
        <ele>128.95</ele>
        <time>2017-01-14T10:25:17Z</time>
      </trkpt>
      <trkpt lat="43.42397" lon="-0.58741">
        <ele>128.95</ele>
        <time>2017-01-14T10:25:18Z</time>
      </trkpt>
      <trkpt lat="43.42399" lon="-0.58758">
        <ele>128.95</ele>
        <time>2017-01-14T10:25:21Z</time>
      </trkpt>
      <trkpt lat="43.424" lon="-0.58777">
        <ele>128.95</ele>
        <time>2017-01-14T10:25:24Z</time>
      </trkpt>
      <trkpt lat="43.42398" lon="-0.58805">
        <ele>128.95</ele>
        <time>2017-01-14T10:25:29Z</time>
      </trkpt>
      <trkpt lat="43.42397" lon="-0.58811">
        <ele>128.95</ele>
        <time>2017-01-14T10:25:30Z</time>
      </trkpt>
      <trkpt lat="43.42395" lon="-0.58817">
        <ele>128.95</ele>
        <time>2017-01-14T10:25:31Z</time>
      </trkpt>
      <trkpt lat="43.42394" lon="-0.58822">
        <ele>128.95</ele>
        <time>2017-01-14T10:25:32Z</time>
      </trkpt>
      <trkpt lat="43.42392" lon="-0.58828">
        <ele>128.95</ele>
        <time>2017-01-14T10:25:33Z</time>
      </trkpt>
      <trkpt lat="43.42387" lon="-0.58845">
        <ele>128.47</ele>
        <time>2017-01-14T10:25:36Z</time>
      </trkpt>
      <trkpt lat="43.42385" lon="-0.58851">
        <ele>127.99</ele>
        <time>2017-01-14T10:25:37Z</time>
      </trkpt>
      <trkpt lat="43.42383" lon="-0.58856">
        <ele>127.99</ele>
        <time>2017-01-14T10:25:38Z</time>
      </trkpt>
      <trkpt lat="43.42381" lon="-0.58861">
        <ele>127.51</ele>
        <time>2017-01-14T10:25:39Z</time>
      </trkpt>
      <trkpt lat="43.42378" lon="-0.58867">
        <ele>127.51</ele>
        <time>2017-01-14T10:25:40Z</time>
      </trkpt>
      <trkpt lat="43.42376" lon="-0.58873">
        <ele>127.51</ele>
        <time>2017-01-14T10:25:41Z</time>
      </trkpt>
      <trkpt lat="43.42373" lon="-0.58877">
        <ele>127.03</ele>
        <time>2017-01-14T10:25:42Z</time>
      </trkpt>
      <trkpt lat="43.42371" lon="-0.58881">
        <ele>127.51</ele>
        <time>2017-01-14T10:25:43Z</time>
      </trkpt>
      <trkpt lat="43.42369" lon="-0.58882">
        <ele>127.51</ele>
        <time>2017-01-14T10:25:44Z</time>
      </trkpt>
      <trkpt lat="43.42367" lon="-0.58883">
        <ele>127.51</ele>
        <time>2017-01-14T10:25:45Z</time>
      </trkpt>
      <trkpt lat="43.42365" lon="-0.58884">
        <ele>127.51</ele>
        <time>2017-01-14T10:25:46Z</time>
      </trkpt>
      <trkpt lat="43.42363" lon="-0.58884">
        <ele>127.51</ele>
        <time>2017-01-14T10:25:47Z</time>
      </trkpt>
      <trkpt lat="43.42361" lon="-0.58885">
        <ele>127.51</ele>
        <time>2017-01-14T10:25:48Z</time>
      </trkpt>
      <trkpt lat="43.42359" lon="-0.58886">
        <ele>127.51</ele>
        <time>2017-01-14T10:25:49Z</time>
      </trkpt>
      <trkpt lat="43.42357" lon="-0.58887">
        <ele>127.51</ele>
        <time>2017-01-14T10:25:50Z</time>
      </trkpt>
      <trkpt lat="43.42355" lon="-0.58889">
        <ele>127.99</ele>
        <time>2017-01-14T10:25:51Z</time>
      </trkpt>
      <trkpt lat="43.42341" lon="-0.58912">
        <ele>129.92</ele>
        <time>2017-01-14T10:26:03Z</time>
      </trkpt>
      <trkpt lat="43.42313" lon="-0.58979">
        <ele>126.55</ele>
        <time>2017-01-14T10:26:16Z</time>
      </trkpt>
      <trkpt lat="43.42308" lon="-0.58991">
        <ele>126.55</ele>
        <time>2017-01-14T10:26:18Z</time>
      </trkpt>
      <trkpt lat="43.42294" lon="-0.59014">
        <ele>127.03</ele>
        <time>2017-01-14T10:26:22Z</time>
      </trkpt>
      <trkpt lat="43.42282" lon="-0.5903">
        <ele>127.03</ele>
        <time>2017-01-14T10:26:25Z</time>
      </trkpt>
      <trkpt lat="43.42215" lon="-0.59108">
        <ele>128.95</ele>
        <time>2017-01-14T10:26:39Z</time>
      </trkpt>
      <trkpt lat="43.4221" lon="-0.59114">
        <ele>128.95</ele>
        <time>2017-01-14T10:26:40Z</time>
      </trkpt>
      <trkpt lat="43.42151" lon="-0.59178">
        <ele>132.32</ele>
        <time>2017-01-14T10:26:53Z</time>
      </trkpt>
      <trkpt lat="43.42147" lon="-0.59181">
        <ele>132.8</ele>
        <time>2017-01-14T10:26:54Z</time>
      </trkpt>
      <trkpt lat="43.42142" lon="-0.59184">
        <ele>133.28</ele>
        <time>2017-01-14T10:26:55Z</time>
      </trkpt>
      <trkpt lat="43.42126" lon="-0.59194">
        <ele>134.24</ele>
        <time>2017-01-14T10:26:59Z</time>
      </trkpt>
      <trkpt lat="43.42122" lon="-0.59197">
        <ele>134.72</ele>
        <time>2017-01-14T10:27:00Z</time>
      </trkpt>
      <trkpt lat="43.42118" lon="-0.59199">
        <ele>135.2</ele>
        <time>2017-01-14T10:27:01Z</time>
      </trkpt>
      <trkpt lat="43.42114" lon="-0.59201">
        <ele>135.68</ele>
        <time>2017-01-14T10:27:02Z</time>
      </trkpt>
      <trkpt lat="43.4211" lon="-0.59204">
        <ele>135.68</ele>
        <time>2017-01-14T10:27:03Z</time>
      </trkpt>
      <trkpt lat="43.42035" lon="-0.59244">
        <ele>135.2</ele>
        <time>2017-01-14T10:27:21Z</time>
      </trkpt>
      <trkpt lat="43.41955" lon="-0.59288">
        <ele>130.88</ele>
        <time>2017-01-14T10:27:35Z</time>
      </trkpt>
      <trkpt lat="43.41867" lon="-0.59334">
        <ele>127.99</ele>
        <time>2017-01-14T10:27:49Z</time>
      </trkpt>
      <trkpt lat="43.41862" lon="-0.59335">
        <ele>127.99</ele>
        <time>2017-01-14T10:27:50Z</time>
      </trkpt>
      <trkpt lat="43.41857" lon="-0.59334">
        <ele>127.99</ele>
        <time>2017-01-14T10:27:51Z</time>
      </trkpt>
      <trkpt lat="43.41852" lon="-0.59331">
        <ele>127.99</ele>
        <time>2017-01-14T10:27:52Z</time>
      </trkpt>
      <trkpt lat="43.41849" lon="-0.59327">
        <ele>127.99</ele>
        <time>2017-01-14T10:27:53Z</time>
      </trkpt>
      <trkpt lat="43.41847" lon="-0.59321">
        <ele>127.99</ele>
        <time>2017-01-14T10:27:54Z</time>
      </trkpt>
      <trkpt lat="43.41845" lon="-0.59314">
        <ele>127.99</ele>
        <time>2017-01-14T10:27:55Z</time>
      </trkpt>
      <trkpt lat="43.41814" lon="-0.59201">
        <ele>128.47</ele>
        <time>2017-01-14T10:28:10Z</time>
      </trkpt>
      <trkpt lat="43.41763" lon="-0.59061">
        <ele>128.95</ele>
        <time>2017-01-14T10:28:29Z</time>
      </trkpt>
      <trkpt lat="43.41718" lon="-0.58925">
        <ele>129.43</ele>
        <time>2017-01-14T10:28:47Z</time>
      </trkpt>
      <trkpt lat="43.41711" lon="-0.58878">
        <ele>128.95</ele>
        <time>2017-01-14T10:28:53Z</time>
      </trkpt>
      <trkpt lat="43.4171" lon="-0.58871">
        <ele>128.95</ele>
        <time>2017-01-14T10:28:54Z</time>
      </trkpt>
      <trkpt lat="43.41711" lon="-0.58863">
        <ele>128.95</ele>
        <time>2017-01-14T10:28:55Z</time>
      </trkpt>
      <trkpt lat="43.41712" lon="-0.58856">
        <ele>128.95</ele>
        <time>2017-01-14T10:28:56Z</time>
      </trkpt>
      <trkpt lat="43.41713" lon="-0.58849">
        <ele>128.95</ele>
        <time>2017-01-14T10:28:57Z</time>
      </trkpt>
      <trkpt lat="43.41715" lon="-0.58836">
        <ele>128.47</ele>
        <time>2017-01-14T10:28:59Z</time>
      </trkpt>
      <trkpt lat="43.41716" lon="-0.58829">
        <ele>128.47</ele>
        <time>2017-01-14T10:29:00Z</time>
      </trkpt>
      <trkpt lat="43.41715" lon="-0.58822">
        <ele>128.47</ele>
        <time>2017-01-14T10:29:01Z</time>
      </trkpt>
      <trkpt lat="43.41714" lon="-0.58816">
        <ele>128.47</ele>
        <time>2017-01-14T10:29:02Z</time>
      </trkpt>
      <trkpt lat="43.41712" lon="-0.58809">
        <ele>128.47</ele>
        <time>2017-01-14T10:29:03Z</time>
      </trkpt>
      <trkpt lat="43.41709" lon="-0.58803">
        <ele>128.47</ele>
        <time>2017-01-14T10:29:04Z</time>
      </trkpt>
      <trkpt lat="43.41706" lon="-0.58797">
        <ele>128.47</ele>
        <time>2017-01-14T10:29:05Z</time>
      </trkpt>
      <trkpt lat="43.41676" lon="-0.58735">
        <ele>128.47</ele>
        <time>2017-01-14T10:29:15Z</time>
      </trkpt>
      <trkpt lat="43.41674" lon="-0.58728">
        <ele>128.95</ele>
        <time>2017-01-14T10:29:16Z</time>
      </trkpt>
      <trkpt lat="43.41672" lon="-0.58721">
        <ele>128.95</ele>
        <time>2017-01-14T10:29:17Z</time>
      </trkpt>
      <trkpt lat="43.41671" lon="-0.58713">
        <ele>128.95</ele>
        <time>2017-01-14T10:29:18Z</time>
      </trkpt>
      <trkpt lat="43.4167" lon="-0.58705">
        <ele>128.95</ele>
        <time>2017-01-14T10:29:19Z</time>
      </trkpt>
      <trkpt lat="43.41656" lon="-0.58577">
        <ele>128.95</ele>
        <time>2017-01-14T10:29:35Z</time>
      </trkpt>
      <trkpt lat="43.41619" lon="-0.58471">
        <ele>129.92</ele>
        <time>2017-01-14T10:29:49Z</time>
      </trkpt>
      <trkpt lat="43.41609" lon="-0.58441">
        <ele>129.43</ele>
        <time>2017-01-14T10:29:53Z</time>
      </trkpt>
      <trkpt lat="43.41579" lon="-0.58351">
        <ele>130.4</ele>
        <time>2017-01-14T10:30:06Z</time>
      </trkpt>
      <trkpt lat="43.41577" lon="-0.58344">
        <ele>130.4</ele>
        <time>2017-01-14T10:30:07Z</time>
      </trkpt>
      <trkpt lat="43.41553" lon="-0.58275">
        <ele>130.4</ele>
        <time>2017-01-14T10:30:17Z</time>
      </trkpt>
      <trkpt lat="43.41544" lon="-0.58238">
        <ele>129.92</ele>
        <time>2017-01-14T10:30:22Z</time>
      </trkpt>
      <trkpt lat="43.41541" lon="-0.58207">
        <ele>129.92</ele>
        <time>2017-01-14T10:30:26Z</time>
      </trkpt>
      <trkpt lat="43.41535" lon="-0.58186">
        <ele>130.4</ele>
        <time>2017-01-14T10:30:29Z</time>
      </trkpt>
      <trkpt lat="43.4151" lon="-0.58122">
        <ele>130.88</ele>
        <time>2017-01-14T10:30:38Z</time>
      </trkpt>
      <trkpt lat="43.41479" lon="-0.58035">
        <ele>130.88</ele>
        <time>2017-01-14T10:30:51Z</time>
      </trkpt>
      <trkpt lat="43.41466" lon="-0.5799">
        <ele>130.88</ele>
        <time>2017-01-14T10:30:58Z</time>
      </trkpt>
      <trkpt lat="43.41461" lon="-0.57977">
        <ele>130.88</ele>
        <time>2017-01-14T10:31:00Z</time>
      </trkpt>
      <trkpt lat="43.41439" lon="-0.57906">
        <ele>131.36</ele>
        <time>2017-01-14T10:31:10Z</time>
      </trkpt>
      <trkpt lat="43.41436" lon="-0.57899">
        <ele>131.36</ele>
        <time>2017-01-14T10:31:11Z</time>
      </trkpt>
      <trkpt lat="43.41429" lon="-0.57877">
        <ele>131.36</ele>
        <time>2017-01-14T10:31:14Z</time>
      </trkpt>
      <trkpt lat="43.41427" lon="-0.5787">
        <ele>131.36</ele>
        <time>2017-01-14T10:31:15Z</time>
      </trkpt>
      <trkpt lat="43.41408" lon="-0.57815">
        <ele>131.84</ele>
        <time>2017-01-14T10:31:23Z</time>
      </trkpt>
      <trkpt lat="43.41405" lon="-0.57808">
        <ele>131.84</ele>
        <time>2017-01-14T10:31:24Z</time>
      </trkpt>
      <trkpt lat="43.41402" lon="-0.57802">
        <ele>131.84</ele>
        <time>2017-01-14T10:31:25Z</time>
      </trkpt>
      <trkpt lat="43.41398" lon="-0.57796">
        <ele>131.84</ele>
        <time>2017-01-14T10:31:26Z</time>
      </trkpt>
      <trkpt lat="43.41394" lon="-0.5779">
        <ele>131.84</ele>
        <time>2017-01-14T10:31:27Z</time>
      </trkpt>
      <trkpt lat="43.41389" lon="-0.57785">
        <ele>132.32</ele>
        <time>2017-01-14T10:31:28Z</time>
      </trkpt>
      <trkpt lat="43.41375" lon="-0.5777">
        <ele>132.32</ele>
        <time>2017-01-14T10:31:31Z</time>
      </trkpt>
      <trkpt lat="43.41371" lon="-0.57765">
        <ele>132.32</ele>
        <time>2017-01-14T10:31:32Z</time>
      </trkpt>
      <trkpt lat="43.41312" lon="-0.5767">
        <ele>134.24</ele>
        <time>2017-01-14T10:31:48Z</time>
      </trkpt>
      <trkpt lat="43.41305" lon="-0.5766">
        <ele>134.24</ele>
        <time>2017-01-14T10:31:50Z</time>
      </trkpt>
      <trkpt lat="43.4129" lon="-0.57635">
        <ele>134.24</ele>
        <time>2017-01-14T10:31:55Z</time>
      </trkpt>
      <trkpt lat="43.41288" lon="-0.5763">
        <ele>134.72</ele>
        <time>2017-01-14T10:31:56Z</time>
      </trkpt>
      <trkpt lat="43.41282" lon="-0.57614">
        <ele>134.72</ele>
        <time>2017-01-14T10:31:59Z</time>
      </trkpt>
      <trkpt lat="43.41281" lon="-0.57608">
        <ele>134.72</ele>
        <time>2017-01-14T10:32:00Z</time>
      </trkpt>
      <trkpt lat="43.41274" lon="-0.57506">
        <ele>133.28</ele>
        <time>2017-01-14T10:32:16Z</time>
      </trkpt>
      <trkpt lat="43.41271" lon="-0.57479">
        <ele>133.28</ele>
        <time>2017-01-14T10:32:21Z</time>
      </trkpt>
      <trkpt lat="43.41269" lon="-0.57475">
        <ele>133.28</ele>
        <time>2017-01-14T10:32:22Z</time>
      </trkpt>
      <trkpt lat="43.41266" lon="-0.57473">
        <ele>133.28</ele>
        <time>2017-01-14T10:32:23Z</time>
      </trkpt>
      <trkpt lat="43.41261" lon="-0.57471">
        <ele>133.28</ele>
        <time>2017-01-14T10:32:24Z</time>
      </trkpt>
      <trkpt lat="43.41257" lon="-0.57471">
        <ele>133.28</ele>
        <time>2017-01-14T10:32:25Z</time>
      </trkpt>
      <trkpt lat="43.41253" lon="-0.5747">
        <ele>133.28</ele>
        <time>2017-01-14T10:32:26Z</time>
      </trkpt>
      <trkpt lat="43.41248" lon="-0.5747">
        <ele>133.28</ele>
        <time>2017-01-14T10:32:27Z</time>
      </trkpt>
      <trkpt lat="43.41244" lon="-0.57471">
        <ele>132.8</ele>
        <time>2017-01-14T10:32:28Z</time>
      </trkpt>
      <trkpt lat="43.41238" lon="-0.57472">
        <ele>132.8</ele>
        <time>2017-01-14T10:32:29Z</time>
      </trkpt>
      <trkpt lat="43.41211" lon="-0.57479">
        <ele>132.32</ele>
        <time>2017-01-14T10:32:34Z</time>
      </trkpt>
      <trkpt lat="43.41206" lon="-0.5748">
        <ele>132.32</ele>
        <time>2017-01-14T10:32:35Z</time>
      </trkpt>
      <trkpt lat="43.41114" lon="-0.57504">
        <ele>130.4</ele>
        <time>2017-01-14T10:32:52Z</time>
      </trkpt>
      <trkpt lat="43.41102" lon="-0.57507">
        <ele>130.4</ele>
        <time>2017-01-14T10:32:54Z</time>
      </trkpt>
      <trkpt lat="43.41004" lon="-0.57532">
        <ele>132.32</ele>
        <time>2017-01-14T10:33:12Z</time>
      </trkpt>
      <trkpt lat="43.40887" lon="-0.57569">
        <ele>131.36</ele>
        <time>2017-01-14T10:33:32Z</time>
      </trkpt>
      <trkpt lat="43.40855" lon="-0.57582">
        <ele>130.88</ele>
        <time>2017-01-14T10:33:38Z</time>
      </trkpt>
      <trkpt lat="43.40766" lon="-0.57604">
        <ele>133.28</ele>
        <time>2017-01-14T10:33:54Z</time>
      </trkpt>
      <trkpt lat="43.40682" lon="-0.57622">
        <ele>133.28</ele>
        <time>2017-01-14T10:34:11Z</time>
      </trkpt>
      <trkpt lat="43.40639" lon="-0.5763">
        <ele>133.76</ele>
        <time>2017-01-14T10:34:19Z</time>
      </trkpt>
      <trkpt lat="43.40549" lon="-0.57648">
        <ele>133.76</ele>
        <time>2017-01-14T10:34:36Z</time>
      </trkpt>
      <trkpt lat="43.40514" lon="-0.57647">
        <ele>133.76</ele>
        <time>2017-01-14T10:34:43Z</time>
      </trkpt>
      <trkpt lat="43.40509" lon="-0.57647">
        <ele>133.76</ele>
        <time>2017-01-14T10:34:44Z</time>
      </trkpt>
      <trkpt lat="43.40465" lon="-0.57647">
        <ele>133.76</ele>
        <time>2017-01-14T10:34:53Z</time>
      </trkpt>
      <trkpt lat="43.40422" lon="-0.57645">
        <ele>133.28</ele>
        <time>2017-01-14T10:35:01Z</time>
      </trkpt>
      <trkpt lat="43.40416" lon="-0.57647">
        <ele>133.28</ele>
        <time>2017-01-14T10:35:02Z</time>
      </trkpt>
      <trkpt lat="43.40308" lon="-0.57684">
        <ele>132.8</ele>
        <time>2017-01-14T10:35:22Z</time>
      </trkpt>
      <trkpt lat="43.4023" lon="-0.57711">
        <ele>128.47</ele>
        <time>2017-01-14T10:35:33Z</time>
      </trkpt>
      <trkpt lat="43.40213" lon="-0.57712">
        <ele>127.03</ele>
        <time>2017-01-14T10:35:35Z</time>
      </trkpt>
      <trkpt lat="43.40203" lon="-0.5771">
        <ele>126.07</ele>
        <time>2017-01-14T10:35:36Z</time>
      </trkpt>
      <trkpt lat="43.40193" lon="-0.57707">
        <ele>125.59</ele>
        <time>2017-01-14T10:35:37Z</time>
      </trkpt>
      <trkpt lat="43.40184" lon="-0.57702">
        <ele>124.63</ele>
        <time>2017-01-14T10:35:38Z</time>
      </trkpt>
      <trkpt lat="43.40175" lon="-0.57696">
        <ele>124.15</ele>
        <time>2017-01-14T10:35:39Z</time>
      </trkpt>
      <trkpt lat="43.40167" lon="-0.57688">
        <ele>123.19</ele>
        <time>2017-01-14T10:35:40Z</time>
      </trkpt>
      <trkpt lat="43.4015" lon="-0.57674">
        <ele>121.26</ele>
        <time>2017-01-14T10:35:42Z</time>
      </trkpt>
      <trkpt lat="43.4014" lon="-0.5767">
        <ele>120.3</ele>
        <time>2017-01-14T10:35:43Z</time>
      </trkpt>
      <trkpt lat="43.4013" lon="-0.57671">
        <ele>119.34</ele>
        <time>2017-01-14T10:35:44Z</time>
      </trkpt>
      <trkpt lat="43.40119" lon="-0.57674">
        <ele>118.38</ele>
        <time>2017-01-14T10:35:45Z</time>
      </trkpt>
      <trkpt lat="43.40108" lon="-0.5768">
        <ele>117.42</ele>
        <time>2017-01-14T10:35:46Z</time>
      </trkpt>
      <trkpt lat="43.401" lon="-0.57684">
        <ele>116.94</ele>
        <time>2017-01-14T10:35:47Z</time>
      </trkpt>
      <trkpt lat="43.40089" lon="-0.57687">
        <ele>116.46</ele>
        <time>2017-01-14T10:35:48Z</time>
      </trkpt>
      <trkpt lat="43.40079" lon="-0.57688">
        <ele>115.98</ele>
        <time>2017-01-14T10:35:49Z</time>
      </trkpt>
      <trkpt lat="43.40069" lon="-0.57688">
        <ele>115.5</ele>
        <time>2017-01-14T10:35:50Z</time>
      </trkpt>
      <trkpt lat="43.4006" lon="-0.57687">
        <ele>115.01</ele>
        <time>2017-01-14T10:35:51Z</time>
      </trkpt>
      <trkpt lat="43.4005" lon="-0.57685">
        <ele>114.53</ele>
        <time>2017-01-14T10:35:52Z</time>
      </trkpt>
      <trkpt lat="43.3997" lon="-0.57695">
        <ele>112.13</ele>
        <time>2017-01-14T10:36:02Z</time>
      </trkpt>
      <trkpt lat="43.39882" lon="-0.57731">
        <ele>112.13</ele>
        <time>2017-01-14T10:36:18Z</time>
      </trkpt>
      <trkpt lat="43.39865" lon="-0.57739">
        <ele>112.61</ele>
        <time>2017-01-14T10:36:22Z</time>
      </trkpt>
      <trkpt lat="43.39862" lon="-0.57742">
        <ele>112.61</ele>
        <time>2017-01-14T10:36:23Z</time>
      </trkpt>
      <trkpt lat="43.39859" lon="-0.57747">
        <ele>113.09</ele>
        <time>2017-01-14T10:36:24Z</time>
      </trkpt>
      <trkpt lat="43.39858" lon="-0.57754">
        <ele>113.09</ele>
        <time>2017-01-14T10:36:25Z</time>
      </trkpt>
      <trkpt lat="43.39859" lon="-0.5776">
        <ele>113.09</ele>
        <time>2017-01-14T10:36:26Z</time>
      </trkpt>
      <trkpt lat="43.39861" lon="-0.57767">
        <ele>113.09</ele>
        <time>2017-01-14T10:36:27Z</time>
      </trkpt>
      <trkpt lat="43.39865" lon="-0.57773">
        <ele>113.09</ele>
        <time>2017-01-14T10:36:28Z</time>
      </trkpt>
      <trkpt lat="43.39868" lon="-0.57778">
        <ele>113.09</ele>
        <time>2017-01-14T10:36:29Z</time>
      </trkpt>
      <trkpt lat="43.39879" lon="-0.57798">
        <ele>113.09</ele>
        <time>2017-01-14T10:36:32Z</time>
      </trkpt>
      <trkpt lat="43.39882" lon="-0.57805">
        <ele>113.09</ele>
        <time>2017-01-14T10:36:33Z</time>
      </trkpt>
      <trkpt lat="43.39904" lon="-0.57865">
        <ele>112.13</ele>
        <time>2017-01-14T10:36:45Z</time>
      </trkpt>
      <trkpt lat="43.39906" lon="-0.57874">
        <ele>112.61</ele>
        <time>2017-01-14T10:37:06Z</time>
      </trkpt>
      <trkpt lat="43.39914" lon="-0.57896">
        <ele>113.09</ele>
        <time>2017-01-14T10:37:20Z</time>
      </trkpt>
      <trkpt lat="43.3993" lon="-0.57941">
        <ele>113.57</ele>
        <time>2017-01-14T10:37:37Z</time>
      </trkpt>
      <trkpt lat="43.39957" lon="-0.58015">
        <ele>113.57</ele>
        <time>2017-01-14T10:37:59Z</time>
      </trkpt>
      <trkpt lat="43.39989" lon="-0.58098">
        <ele>112.61</ele>
        <time>2017-01-14T10:38:18Z</time>
      </trkpt>
      <trkpt lat="43.40002" lon="-0.58133">
        <ele>112.13</ele>
        <time>2017-01-14T10:38:26Z</time>
      </trkpt>
      <trkpt lat="43.40006" lon="-0.58133">
        <ele>112.13</ele>
        <time>2017-01-14T10:38:27Z</time>
      </trkpt>
      <trkpt lat="43.4001" lon="-0.58132">
        <ele>112.13</ele>
        <time>2017-01-14T10:38:28Z</time>
      </trkpt>
      <trkpt lat="43.40012" lon="-0.5813">
        <ele>112.13</ele>
        <time>2017-01-14T10:38:29Z</time>
      </trkpt>
      <trkpt lat="43.40014" lon="-0.58128">
        <ele>111.65</ele>
        <time>2017-01-14T10:38:30Z</time>
      </trkpt>
      <trkpt lat="43.40018" lon="-0.58125">
        <ele>111.65</ele>
        <time>2017-01-14T10:38:31Z</time>
      </trkpt>
      <trkpt lat="43.40021" lon="-0.58123">
        <ele>111.17</ele>
        <time>2017-01-14T10:38:32Z</time>
      </trkpt>
      <trkpt lat="43.4008" lon="-0.58089">
        <ele>110.21</ele>
        <time>2017-01-14T10:38:51Z</time>
      </trkpt>
      <trkpt lat="43.40084" lon="-0.5806">
        <ele>109.25</ele>
        <time>2017-01-14T10:38:59Z</time>
      </trkpt>
      <trkpt lat="43.40078" lon="-0.58006">
        <ele>108.77</ele>
        <time>2017-01-14T10:39:15Z</time>
      </trkpt>
      <trkpt lat="43.40086" lon="-0.57997">
        <ele>108.29</ele>
        <time>2017-01-14T10:39:26Z</time>
      </trkpt>
    </trkseg>
  </trk>
</gpx>